GFSSGP_sfc_thetae_000.txt.gz
Theta_e
313 310 304 301 292 293 290 292 300 304 311 318 321 320 318 322 316 310 336 340 343 343 346 346 347 349 349 348 348 348 347 345 344 344 343 342 341 341 340 339 340 338 336 336 335 336 336 336 336
304 306 302 296 289 285 288 297 306 312 316 318 318 318 319 318 330 331 334 343 343 345 345 346 346 347 348 348 348 347 346 345 345 344 342 341 340 338 337 337 338 336 335 334 333 333 332 332 332
305 306 296 292 287 287 288 304 311 314 316 315 312 316 317 320 331 332 340 343 344 343 343 345 346 347 348 348 347 347 347 346 345 344 341 340 338 337 335 335 334 333 333 332 331 330 329 329 330
303 299 294 289 287 292 294 306 313 313 315 317 316 313 319 327 331 336 343 343 341 340 341 341 344 346 347 347 347 347 346 344 344 343 340 339 337 335 333 333 331 330 330 329 329 328 328 328 329
299 294 288 286 288 292 297 307 310 311 312 313 314 311 315 333 338 341 341 342 340 341 342 343 343 346 347 347 347 346 344 342 343 342 340 338 336 334 332 330 329 329 328 329 329 329 328 328 328
295 292 287 285 289 297 301 310 314 313 313 313 314 313 316 335 335 339 341 339 341 341 344 344 345 345 344 345 344 343 342 341 342 341 339 337 335 334 331 329 329 329 328 328 329 329 329 330 329
292 289 286 288 295 296 299 311 312 311 312 311 314 308 320 330 336 340 339 340 341 343 343 343 342 343 342 340 340 340 340 340 340 339 338 337 336 334 332 331 331 330 329 330 331 332 331 331 331
294 291 290 294 294 296 298 305 310 311 310 315 315 312 318 327 337 339 337 337 337 338 340 340 342 343 337 336 338 338 338 338 338 338 336 335 335 334 333 333 330 332 332 332 332 332 332 331 331
294 289 288 293 296 299 302 301 301 311 312 311 312 315 324 333 335 333 333 334 334 336 337 339 338 337 333 332 335 337 338 337 336 336 335 331 327 325 326 331 333 333 332 332 333 333 332 331 330
293 289 291 295 296 303 306 304 306 309 308 308 308 319 329 332 330 327 327 328 329 332 333 334 330 330 330 335 331 329 330 329 329 330 329 327 326 325 328 329 332 333 333 334 333 333 333 330 322
291 290 293 295 297 298 300 298 304 307 303 308 309 317 323 327 326 326 326 326 328 330 328 327 327 327 327 328 326 325 326 326 326 327 325 325 326 324 324 324 322 321 327 323 323 322 322 320 319
291 295 295 294 297 296 300 296 305 299 305 313 316 321 320 322 321 322 321 322 321 323 326 326 325 324 324 324 324 323 324 324 325 326 326 323 322 320 318 318 316 314 314 313 314 315 316 316 315
292 294 296 295 295 294 296 297 301 294 306 311 314 318 318 319 318 317 318 319 318 321 322 322 323 323 323 322 323 322 323 325 325 325 325 322 319 314 314 312 312 312 313 312 311 311 311 310 310
297 293 292 295 293 293 294 293 293 294 308 308 311 314 314 317 315 312 312 313 316 321 321 323 323 321 319 320 321 321 322 324 325 324 321 319 316 314 313 310 309 308 309 309 309 309 308 307 307
295 292 293 294 293 293 296 291 290 297 309 307 308 308 308 310 309 308 309 310 315 319 320 321 321 322 321 321 321 321 321 322 322 318 316 316 313 310 307 306 305 305 306 306 305 305 303 302 302
292 290 287 291 294 293 292 286 292 301 307 305 307 308 307 307 308 308 309 308 313 318 323 324 327 325 324 320 320 318 315 316 316 314 313 310 307 306 304 305 304 304 303 301 302 302 299 300 299
289 284 286 289 294 293 292 288 295 297 305 301 302 303 305 306 307 309 314 313 318 323 323 323 325 323 321 318 315 314 311 309 309 309 306 305 305 305 303 303 303 301 300 299 299 299 299 298 298
285 285 285 287 291 294 291 292 297 299 300 300 299 301 302 302 303 308 311 312 315 318 320 319 318 315 314 313 314 313 310 308 309 306 304 305 305 306 305 301 300 299 298 297 297 297 297 297 297
290 288 286 287 292 294 292 292 294 299 299 298 299 300 300 301 304 306 309 310 311 313 313 314 314 314 311 307 308 309 307 309 305 303 302 302 301 300 300 299 299 299 297 296 297 296 296 296 297
292 289 288 291 295 294 293 291 293 296 297 298 299 299 300 301 302 304 304 305 307 308 310 308 308 307 307 307 306 309 308 304 302 301 298 299 299 299 300 299 298 297 297 296 296 295 295 295 296
292 289 289 290 295 294 293 290 292 297 300 301 301 300 301 301 302 302 301 300 302 302 302 303 303 303 304 307 305 302 301 301 298 298 295 297 298 298 298 298 298 296 296 295 295 294 294 293 293
289 294 293 292 290 286 290 283 289 293 296 298 298 299 300 301 301 300 299 298 298 298 299 300 301 301 301 301 301 299 298 296 296 295 294 295 297 297 298 297 296 295 295 296 295 294 292 292 288
293 295 293 290 288 287 287 285 286 293 293 296 297 299 299 299 300 301 300 300 299 300 299 299 300 300 300 299 299 298 294 295 295 293 294 294 296 296 296 296 296 296 294 293 292 291 289 290 288
297 295 293 291 288 281 286 285 284 289 293 295 297 299 300 300 299 300 302 302 301 299 298 298 299 297 298 297 296 295 295 294 293 294 294 295 294 295 295 295 294 293 292 291 290 289 289 288 288
294 290 283 282 279 280 289 286 287 293 295 298 298 298 299 298 298 299 300 300 297 296 296 297 295 295 295 295 295 295 294 293 294 294 293 294 295 294 294 293 292 292 291 291 290 288 287 286 285
289 290 283 279 276 281 288 283 288 294 297 299 299 299 298 298 299 298 297 296 296 296 294 294 294 293 294 294 294 294 294 294 295 295 294 294 293 292 292 292 291 290 293 291 292 290 287 286 285
290 285 290 284 282 280 283 287 291 294 295 297 297 297 296 295 295 296 296 296 295 296 295 293 293 293 293 293 293 292 292 292 292 292 292 292 292 293 292 290 292 292 291 290 289 287 288 286 285
291 293 284 282 277 275 280 283 284 290 293 295 294 294 294 294 295 295 294 294 294 294 295 294 291 289 289 289 290 289 289 289 290 290 289 290 291 292 293 293 291 291 290 290 289 286 286 286 285
290 288 287 286 281 276 273 280 289 292 295 293 292 293 293 293 293 293 293 292 291 293 292 291 288 288 288 287 288 288 288 289 289 288 289 289 290 291 291 291 291 288 288 288 285 284 284 284 283
290 288 286 278 280 278 275 279 290 290 293 293 293 293 293 293 292 292 292 291 290 289 289 287 287 287 287 287 287 287 288 288 287 287 287 288 288 288 289 289 289 288 287 285 283 283 283 282 281

GFSSGP_sfc_thetae_003.txt.gz
Theta_e
321 316 311 310 300 300 296 298 305 311 315 322 325 322 319 321 317 313 338 342 344 346 348 346 345 347 348 348 348 348 348 346 346 345 344 343 342 341 340 339 341 339 336 336 335 334 333 332 333
309 309 309 304 296 293 296 301 310 315 319 319 318 318 316 313 323 331 335 344 346 347 347 345 345 346 348 347 348 348 347 346 345 345 343 342 341 339 339 338 339 336 335 333 332 330 330 331 331
310 308 305 301 296 294 297 309 313 317 319 317 314 319 319 316 323 333 341 345 347 346 347 345 344 345 346 347 346 347 347 347 347 344 342 341 339 337 336 335 336 333 331 330 330 329 329 330 331
308 308 302 298 295 297 299 313 316 314 317 317 316 312 323 332 332 337 345 346 345 345 346 344 342 344 345 346 348 347 346 345 345 344 341 339 337 336 334 333 331 330 329 331 331 331 330 330 331
306 302 298 295 294 299 302 315 317 313 314 315 315 312 319 334 339 343 343 344 343 344 346 346 340 343 345 346 347 346 345 344 344 343 341 338 336 335 332 331 330 329 330 331 331 330 331 331 332
303 301 295 293 296 302 306 315 316 314 315 314 315 316 321 337 339 341 343 342 343 342 344 345 344 343 345 345 344 343 342 342 342 341 339 337 336 334 331 331 331 330 330 330 331 331 331 332 332
301 298 295 295 300 301 308 317 314 314 314 314 317 315 326 333 339 341 341 342 343 344 344 345 346 346 342 340 340 340 340 340 340 340 338 337 335 334 332 332 333 333 332 333 333 333 333 333 334
301 299 295 300 300 299 305 313 316 312 312 318 323 317 320 330 338 339 340 340 341 344 344 343 346 345 346 346 338 339 339 339 339 338 337 335 334 334 333 333 331 334 334 334 335 334 334 334 334
300 297 298 299 301 302 309 307 307 315 316 315 315 324 329 336 338 336 335 335 337 339 341 342 341 343 345 345 342 339 338 338 337 337 335 334 336 334 334 332 333 334 334 334 335 335 334 333 332
300 297 297 301 306 306 308 307 309 313 312 310 317 329 334 334 333 330 330 330 333 334 336 339 339 340 341 341 341 340 338 337 336 336 336 336 336 336 334 334 333 334 333 334 333 332 332 332 332
299 298 298 299 298 303 306 302 310 312 309 312 316 323 328 329 329 328 328 330 332 333 334 335 337 339 338 338 338 336 335 334 335 335 335 335 335 337 338 337 336 335 331 329 326 326 328 329 328
297 298 297 298 297 304 304 307 309 310 308 315 324 329 328 327 326 328 329 330 331 333 334 336 335 335 334 334 333 332 331 332 332 334 335 335 334 334 331 329 327 326 325 324 323 323 324 323 320
297 297 298 296 299 302 300 306 309 301 311 318 326 329 329 330 329 329 328 329 329 329 331 330 330 330 330 329 330 330 330 332 333 334 335 334 332 330 327 324 322 321 321 319 319 320 318 316 315
299 298 297 297 296 298 299 298 302 302 311 318 323 325 327 327 325 323 322 322 325 327 328 328 326 328 328 328 329 329 326 327 331 331 325 325 327 326 319 317 316 316 317 316 316 314 312 311 310
298 296 297 298 299 298 300 297 296 301 310 312 319 318 319 320 320 321 319 320 324 326 326 326 327 329 329 328 329 327 322 322 321 322 322 319 317 317 315 316 314 314 314 313 312 310 311 309 307
296 296 293 297 300 298 298 293 300 303 310 308 310 311 312 311 313 315 316 317 324 326 326 326 328 327 325 324 319 317 315 317 317 318 318 315 314 315 315 313 312 311 310 310 310 309 308 307 306
295 291 292 295 299 299 299 295 302 304 308 306 307 309 310 311 312 317 319 320 326 327 327 327 326 324 318 317 313 313 314 312 312 313 311 311 310 311 313 311 310 310 309 308 307 306 305 304 304
291 291 293 294 297 299 299 297 302 304 307 306 307 308 308 309 310 316 320 325 328 327 326 323 322 316 315 319 316 316 314 312 311 308 307 308 309 310 311 310 310 309 308 307 306 304 304 305 304
294 293 293 294 298 299 296 298 300 303 304 305 306 307 308 308 311 315 319 324 324 325 322 321 319 317 317 315 315 316 315 313 308 307 308 308 308 309 310 308 308 308 307 307 306 304 302 302 304
295 294 293 296 298 299 299 298 301 302 302 304 306 306 307 308 310 312 318 323 325 324 325 321 319 315 315 316 317 317 315 310 307 306 306 306 307 307 307 308 308 308 307 307 306 303 300 302 303
295 294 293 294 298 299 299 296 299 303 304 305 305 306 307 309 309 311 315 319 319 317 317 317 315 314 313 313 312 310 309 309 307 305 305 305 307 307 307 308 308 308 307 306 305 303 300 298 300
294 296 297 295 295 291 295 290 296 300 301 303 304 305 306 306 307 308 308 309 311 309 310 311 310 309 307 308 309 308 306 305 305 304 305 306 307 307 306 307 307 307 307 304 303 301 300 298 294
296 298 297 294 293 293 293 293 293 299 299 302 303 304 305 305 305 304 304 305 306 307 308 307 307 305 305 306 306 305 304 304 305 305 305 305 306 305 305 305 305 305 304 303 302 300 297 296 293
299 298 297 295 294 289 291 291 291 296 300 302 303 304 304 305 305 306 307 307 305 306 306 306 304 302 304 304 303 304 303 302 302 303 303 303 304 305 305 304 304 304 303 301 299 298 295 294 293
298 296 290 288 288 287 291 290 294 298 301 304 303 304 305 306 305 305 306 306 305 305 304 302 302 301 302 302 302 302 301 301 300 300 300 300 300 301 303 303 302 302 300 298 299 297 295 294 292
295 295 290 282 284 287 291 289 294 297 301 305 306 306 305 305 305 306 305 303 302 301 301 301 301 299 299 299 298 297 296 295 295 295 296 296 297 298 301 302 300 299 298 298 297 296 295 295 293
293 292 295 288 285 286 289 292 297 297 298 302 302 303 303 304 304 304 302 302 301 300 300 300 296 295 295 295 295 295 295 295 295 295 296 296 298 299 300 299 299 298 298 297 297 295 294 294 293
297 296 290 289 283 281 286 287 291 294 296 300 300 302 303 302 302 301 301 301 302 301 298 296 295 294 294 295 295 294 295 295 296 296 295 296 298 299 299 298 297 297 298 296 295 294 293 292 293
294 291 290 290 287 283 281 287 295 296 299 299 302 301 301 301 301 299 299 300 301 298 295 294 293 294 294 294 294 295 295 295 296 295 295 296 297 298 297 297 297 296 295 294 294 293 292 291 292
296 292 291 287 283 283 284 287 293 295 296 300 299 298 300 300 298 298 297 296 295 294 294 293 294 294 293 293 293 294 295 295 294 294 294 295 295 295 295 295 295 295 294 293 292 291 291 290 289

GFSSGP_sfc_thetae_006.txt.gz
Theta_e
326 321 317 315 305 305 302 303 316 317 319 326 327 322 319 322 321 315 340 344 346 346 346 345 346 347 348 348 348 348 348 347 346 345 343 342 341 340 340 340 340 338 335 334 332 331 330 330 331
316 312 316 313 302 299 302 305 310 320 321 322 321 321 317 314 327 334 337 344 345 346 347 346 345 346 347 348 347 348 348 347 346 344 342 341 340 339 339 337 338 335 332 331 330 329 329 330 331
313 314 309 305 301 299 301 310 318 320 320 318 315 320 318 315 325 335 341 345 346 346 346 346 345 345 346 346 346 346 347 347 345 343 341 340 338 337 336 335 334 331 330 331 331 331 330 331 332
310 312 311 301 299 302 306 316 319 318 320 319 317 312 321 326 326 336 342 345 344 346 347 342 342 343 343 345 345 347 347 346 345 343 340 338 336 335 333 332 330 331 332 332 332 331 331 332 333
312 310 302 300 300 303 311 319 320 316 316 317 319 314 315 330 338 340 344 344 341 343 345 344 339 341 343 345 346 347 345 345 344 341 340 337 335 332 331 331 330 331 332 332 332 332 332 333 333
306 309 299 298 300 306 309 320 320 316 314 315 316 319 321 337 339 342 344 341 342 342 344 344 342 343 341 342 344 344 343 343 342 340 338 336 334 332 332 332 332 331 331 332 332 332 332 333 333
306 303 300 300 303 306 309 321 317 315 313 315 320 317 328 335 340 344 342 342 344 345 344 345 344 344 341 341 341 340 341 341 340 339 337 335 334 333 333 333 333 333 332 333 333 333 334 334 334
309 305 300 303 304 306 315 319 316 311 311 323 325 316 322 334 341 341 340 341 344 344 344 345 345 346 346 346 340 340 340 339 339 337 335 334 334 333 333 331 333 334 334 334 335 335 335 334 334
309 301 300 304 306 310 317 312 317 317 317 321 321 325 333 339 339 338 337 339 341 341 341 342 342 344 344 344 342 339 339 337 337 336 335 333 336 335 332 332 333 334 335 335 335 334 333 333 333
306 302 303 310 312 310 311 311 314 316 317 317 322 331 337 336 336 334 334 333 334 337 338 341 342 341 343 339 340 338 335 335 335 336 338 338 338 338 335 334 333 333 333 334 330 329 329 330 328
306 302 305 305 311 313 310 311 316 315 314 317 321 328 332 332 333 332 330 331 331 334 336 337 338 340 339 337 335 332 332 334 336 338 339 339 339 339 336 334 334 335 329 330 327 327 325 327 326
303 305 304 301 302 308 309 313 313 314 313 319 329 331 333 331 331 332 332 331 333 333 336 336 336 337 337 332 331 332 332 336 336 338 340 339 337 337 332 331 331 332 330 326 325 324 325 324 322
303 304 302 302 305 311 312 313 313 310 319 327 330 331 331 329 329 329 329 330 330 330 333 334 334 333 332 333 334 335 336 337 340 342 339 337 330 330 330 330 328 326 326 324 323 321 319 318 317
304 302 301 302 306 305 310 308 310 307 319 324 327 326 329 329 327 327 327 326 327 330 331 332 330 333 335 336 336 332 331 332 334 339 336 330 329 326 327 324 322 323 323 322 319 317 315 315 315
304 300 302 303 305 303 306 302 303 310 316 322 323 325 327 328 327 324 324 324 327 330 331 330 333 335 333 332 331 330 329 328 331 335 333 329 327 324 322 320 321 321 320 318 317 315 315 313 313
301 301 297 302 303 303 303 297 305 312 315 319 322 324 325 325 324 325 325 324 327 331 330 330 331 332 330 329 322 321 323 326 328 325 324 323 317 320 320 318 316 314 314 314 314 313 312 311 311
300 294 296 298 305 303 303 299 306 313 314 315 318 320 319 319 321 324 324 325 328 331 331 330 331 327 323 324 321 322 320 319 318 317 316 314 313 315 317 316 316 316 315 314 312 311 310 308 308
295 295 297 297 303 303 302 303 306 311 314 313 316 317 318 318 320 323 323 326 329 332 332 331 329 329 330 330 324 321 319 317 317 315 315 314 315 315 318 316 315 313 312 311 310 309 310 308 308
300 298 297 300 304 304 303 303 305 310 313 314 315 315 316 317 321 324 327 329 330 332 331 330 328 329 329 326 323 321 320 318 315 315 314 313 313 313 313 313 313 312 311 311 311 309 308 307 308
300 298 298 300 303 304 304 303 306 307 309 313 314 316 316 317 320 323 326 328 329 329 329 328 328 328 325 323 322 323 324 318 314 314 313 312 311 311 311 313 312 312 310 311 310 308 305 304 306
301 299 299 298 302 304 304 301 304 307 309 310 313 315 317 318 320 322 325 327 329 329 329 328 326 322 320 319 319 317 317 316 316 314 313 312 312 311 311 311 311 311 310 308 308 307 304 301 302
298 301 301 300 299 295 302 294 302 306 307 309 311 314 316 319 322 324 325 327 328 329 328 323 319 317 315 315 315 314 312 311 310 311 312 311 312 311 310 310 311 310 309 307 307 305 304 301 297
300 304 302 301 300 299 299 296 301 306 304 307 311 314 316 319 320 319 320 321 319 318 318 317 314 313 313 313 314 312 310 310 310 310 309 309 310 310 309 309 309 308 307 307 306 304 301 300 298
304 303 302 302 300 293 297 296 297 302 305 308 310 311 313 314 314 314 315 314 313 315 314 314 312 311 311 311 311 310 308 306 304 302 301 301 301 301 303 303 307 308 308 307 305 304 300 299 297
304 301 293 290 291 290 297 295 298 304 307 310 310 310 312 312 310 310 310 310 311 312 312 311 310 308 310 309 307 305 302 301 299 299 298 298 298 299 300 302 304 306 307 305 303 301 299 298 296
302 300 293 284 288 291 296 292 299 304 308 312 312 311 311 310 311 311 311 312 311 311 310 310 309 307 306 303 301 301 301 300 300 300 299 299 298 300 303 304 306 306 304 300 300 301 299 297 296
298 297 301 294 293 292 295 298 303 303 304 309 309 309 309 310 311 312 312 311 310 309 309 309 306 302 301 301 300 301 301 300 300 300 300 299 300 300 302 305 304 303 301 300 300 299 297 296 295
301 302 295 297 287 285 292 294 296 300 302 306 307 308 309 310 311 312 310 309 309 309 308 306 304 302 299 299 301 300 300 300 300 300 299 299 299 300 301 302 302 300 300 300 299 297 296 294 294
298 297 296 297 294 288 286 291 302 302 305 305 307 309 310 310 311 310 309 309 309 307 304 303 301 300 298 300 300 300 301 300 300 299 298 298 299 299 299 300 300 299 298 298 297 295 294 293 293
301 298 297 292 289 292 292 291 301 303 305 307 308 309 311 311 311 310 308 308 307 304 302 301 301 300 300 299 299 299 300 299 298 298 297 298 298 298 298 298 298 298 297 297 295 293 293 293 292

GFSSGP_sfc_thetae_009.txt.gz
Theta_e
326 324 320 314 305 305 303 306 311 315 318 324 326 324 322 325 322 315 339 343 344 345 345 344 346 348 348 347 348 349 349 346 345 344 343 341 340 340 339 340 340 336 334 332 331 330 331 332 332
325 317 314 311 303 301 303 309 307 319 321 326 323 321 319 319 332 335 337 344 346 345 344 341 346 347 347 347 347 347 347 346 344 342 341 339 339 338 337 337 338 334 332 331 331 331 332 332 331
318 314 308 304 304 300 302 310 318 321 323 322 318 321 318 318 331 336 343 345 346 346 344 343 345 344 345 345 345 345 346 346 345 343 340 338 336 336 335 334 334 333 333 333 333 332 333 333 334
313 310 310 303 301 306 306 317 320 318 320 321 320 316 319 325 329 338 345 346 345 346 345 342 342 343 344 344 344 344 346 345 344 343 339 337 334 333 332 332 333 334 333 333 333 333 333 334 335
313 309 301 301 303 307 308 316 318 315 317 319 320 313 316 324 335 338 342 344 344 341 341 342 338 340 343 344 344 344 345 344 343 340 338 335 332 331 331 332 333 333 333 332 332 332 333 334 334
305 308 300 299 303 306 309 318 316 315 315 316 316 316 319 334 334 338 342 340 340 340 341 341 341 342 342 342 343 343 343 343 341 339 337 334 333 332 332 332 333 332 332 333 333 333 334 334 334
304 304 301 303 303 305 309 317 314 314 314 312 319 315 326 331 338 341 339 330 339 332 341 341 342 342 340 338 340 340 341 340 339 338 336 333 333 333 333 334 334 334 334 334 334 335 335 335 334
308 307 302 303 303 305 313 315 319 317 315 323 320 312 320 331 342 342 340 340 340 340 342 343 343 343 344 342 338 339 339 338 338 336 334 334 334 334 333 332 335 335 335 335 336 335 335 334 334
311 303 300 303 305 309 318 315 316 318 313 316 323 325 330 336 340 338 338 339 339 340 341 342 341 342 342 342 340 338 339 338 336 335 334 333 334 334 332 333 333 334 334 334 335 332 330 331 333
305 301 303 309 313 312 313 314 314 314 314 316 322 330 336 336 335 334 334 334 335 335 337 340 340 340 341 335 337 334 331 332 333 335 335 334 336 334 329 331 334 335 334 333 333 330 331 329 325
305 302 309 310 314 313 311 311 316 312 313 318 323 327 329 332 331 332 333 331 331 336 337 338 339 339 337 334 331 329 328 331 335 338 336 337 336 336 333 332 332 333 331 329 327 326 326 326 324
304 307 308 307 311 309 309 311 313 309 310 317 325 329 329 330 331 331 331 330 332 334 336 335 335 335 334 330 329 329 332 334 334 336 336 337 334 335 333 331 331 331 329 327 326 325 325 323 321
305 306 306 305 306 310 312 310 310 313 319 324 328 329 327 329 328 329 328 329 330 330 332 332 333 333 333 333 334 335 336 336 338 338 338 336 333 331 329 328 327 329 326 325 325 323 320 318 318
307 307 303 307 308 312 311 310 309 315 321 323 325 324 324 324 324 325 325 326 327 330 331 331 330 332 335 336 336 333 333 333 333 337 338 335 332 330 328 327 326 324 324 323 321 318 316 315 316
305 301 301 307 308 309 309 304 306 317 320 319 320 320 321 321 322 321 324 324 327 329 329 330 334 336 335 333 331 330 329 328 330 332 336 337 333 331 328 322 322 323 320 318 317 316 315 314 314
302 303 300 306 307 306 305 299 308 316 317 316 318 320 321 322 322 322 322 323 330 329 329 331 333 333 332 330 325 327 328 328 326 325 326 323 319 320 321 320 319 317 318 317 316 315 313 313 311
301 295 298 301 306 303 303 301 308 314 316 316 319 320 321 322 322 323 324 324 329 331 330 330 333 331 331 329 330 328 327 323 321 319 319 319 318 318 320 319 319 318 316 315 314 313 312 311 310
296 297 298 298 302 303 302 303 308 312 314 316 318 320 320 321 321 324 325 325 329 332 332 332 331 330 331 331 328 324 322 321 320 318 318 318 318 317 318 318 317 315 314 314 314 313 313 311 310
301 298 297 301 303 302 302 303 306 311 312 313 315 318 319 320 325 326 326 328 329 332 332 332 330 330 330 327 324 322 321 320 318 317 317 317 316 315 315 315 315 315 313 313 313 312 310 308 308
300 298 299 302 304 305 303 304 307 310 311 314 314 315 317 320 322 324 326 328 330 331 332 331 330 330 327 324 323 324 323 319 317 317 316 316 315 315 314 314 313 313 311 312 311 310 307 305 305
300 298 299 299 304 306 304 303 305 309 312 314 316 317 318 320 321 324 326 328 330 330 330 329 329 326 324 323 321 319 319 318 316 315 315 314 314 314 313 313 312 311 310 307 309 307 306 301 302
297 304 303 300 300 295 304 292 302 307 308 310 313 316 318 320 323 325 326 326 327 329 330 327 325 322 320 318 318 317 315 313 313 313 313 312 312 311 309 308 308 309 308 307 306 306 305 303 299
301 306 304 303 301 300 300 296 296 307 305 308 312 314 318 321 323 324 326 328 328 328 327 324 321 317 317 317 318 315 313 312 312 309 306 305 305 304 303 303 304 306 306 307 307 306 305 302 300
307 304 303 303 300 293 298 297 297 303 306 309 313 315 319 322 323 324 325 325 323 323 321 319 316 315 315 315 315 313 309 305 304 302 301 301 301 301 302 302 303 304 304 306 306 305 303 301 300
305 301 293 291 292 291 299 297 299 304 309 311 312 315 318 320 319 318 318 316 316 316 316 316 314 312 314 313 309 306 305 303 302 301 300 300 300 300 301 303 304 304 305 306 304 302 301 300 298
302 300 293 286 288 291 299 293 299 307 309 312 315 315 317 316 315 314 314 314 314 315 315 314 313 312 310 306 305 304 303 302 302 301 301 300 299 300 301 303 304 304 304 303 302 301 301 300 298
301 298 303 296 297 293 295 299 304 306 307 310 313 314 314 313 312 312 313 314 314 314 314 314 313 309 306 305 305 303 303 303 302 301 301 300 300 299 300 302 303 304 303 302 302 300 299 298 297
303 305 295 296 287 286 293 294 295 303 304 308 311 312 312 313 312 313 313 314 315 314 314 314 311 306 305 305 303 303 303 303 303 302 300 299 300 300 300 300 301 301 301 301 300 298 298 296 296
300 298 299 299 298 290 287 293 303 301 305 307 311 312 313 312 312 313 314 315 314 314 313 310 307 306 304 303 303 302 302 302 302 301 299 299 299 299 298 298 299 299 298 299 298 297 297 295 294
304 301 301 294 292 295 294 292 304 305 307 308 310 312 314 313 313 314 314 313 312 312 310 307 306 305 304 303 302 302 302 301 300 299 299 299 298 298 298 298 298 297 297 297 295 295 294 294 293

GFSSGP_sfc_thetae_012.txt.gz
Theta_e
323 320 320 314 300 302 299 302 309 312 318 323 323 322 321 324 321 314 339 343 341 339 342 343 346 347 347 347 348 348 348 347 346 344 343 342 340 340 341 340 338 337 334 332 333 333 332 331 331
318 318 317 307 298 296 299 306 313 318 321 323 322 321 319 321 332 334 336 343 342 340 339 342 346 346 347 347 347 347 347 346 344 343 341 341 338 337 337 338 337 338 334 334 334 334 334 334 334
323 319 304 301 299 297 299 308 314 320 322 320 317 321 318 321 332 334 342 344 343 339 339 344 345 343 344 346 345 345 345 344 343 341 339 336 335 334 334 338 337 336 334 334 334 335 335 335 336
313 309 305 298 297 303 304 311 319 318 320 321 320 314 319 326 331 338 342 343 343 342 341 341 341 341 343 343 345 345 344 343 342 341 339 334 333 332 334 337 337 335 334 334 334 334 335 336 336
313 306 297 297 299 304 309 318 317 314 316 315 316 312 314 328 335 341 341 343 340 338 339 339 337 340 342 343 345 344 343 342 341 340 337 335 332 332 334 336 336 334 334 334 333 334 336 336 336
303 304 296 294 299 304 309 318 315 314 316 316 315 315 317 330 333 338 340 340 339 337 338 337 338 340 340 341 342 341 341 341 340 338 336 335 335 336 336 337 336 336 336 336 336 337 337 336 336
303 300 297 299 300 304 307 320 315 313 314 314 320 314 316 327 335 333 334 336 337 339 338 336 337 341 340 339 339 339 339 339 338 337 335 335 335 336 336 337 337 337 336 337 337 337 336 336 335
305 303 298 300 300 303 312 316 316 312 314 322 319 309 315 330 336 331 332 331 331 333 337 336 337 338 339 337 337 337 337 336 336 335 334 334 334 335 335 336 337 336 335 335 336 333 332 333 333
308 298 297 300 302 308 312 309 316 319 315 318 319 314 320 335 337 335 334 324 324 329 335 337 336 338 339 338 337 337 337 336 335 334 333 331 331 332 332 334 334 335 333 333 333 331 330 331 331
303 299 300 311 313 311 311 309 311 313 312 317 320 319 322 333 333 332 332 325 322 328 333 335 337 336 337 334 335 333 331 330 331 331 331 332 333 328 328 333 334 335 332 332 333 331 332 330 320
304 299 305 309 311 312 310 311 315 313 309 313 315 323 330 330 330 331 331 331 330 332 334 336 336 338 335 332 331 328 330 331 335 334 335 334 335 333 332 331 332 330 331 327 327 325 324 321 319
301 304 306 310 311 310 310 314 308 309 310 314 319 325 328 328 328 329 327 329 330 331 333 335 334 332 330 328 327 329 330 333 333 335 333 334 334 332 330 328 326 325 326 325 323 321 322 318 317
302 305 307 308 308 310 312 310 308 309 314 318 319 325 326 327 327 327 326 329 330 329 329 330 332 332 332 331 334 335 334 335 335 335 335 334 330 327 326 325 324 325 325 322 318 315 314 313 312
305 306 304 306 308 312 308 308 311 313 318 320 321 321 324 325 323 323 324 325 327 327 328 330 329 332 334 334 332 331 331 331 331 334 335 333 330 327 325 324 319 320 317 316 315 314 312 312 311
307 302 302 306 307 308 311 305 307 316 319 318 317 319 320 322 322 322 324 324 327 328 328 327 330 336 334 332 331 329 324 327 329 331 332 332 324 323 319 317 319 316 316 315 313 312 310 309 310
302 302 295 305 307 308 306 298 308 316 315 315 315 316 317 318 320 322 323 324 327 327 326 329 332 333 331 326 325 326 328 327 322 323 321 319 318 318 318 317 316 315 314 312 311 310 309 308 307
300 295 298 300 307 304 301 300 307 315 315 313 315 316 317 317 318 320 322 325 326 326 328 331 332 330 326 328 327 328 326 320 318 319 318 318 317 318 317 316 316 314 313 312 311 310 309 307 306
294 294 298 298 302 301 300 301 306 311 311 309 315 316 317 317 317 320 321 325 329 328 328 331 331 330 328 330 325 324 321 320 319 317 317 317 315 317 315 315 313 312 311 310 310 309 308 307 305
300 298 297 300 302 300 301 301 304 308 313 313 314 316 317 319 322 323 323 325 329 329 328 329 329 329 329 326 320 320 318 318 316 315 316 315 314 314 313 312 312 312 309 309 308 307 305 304 303
300 298 297 300 302 301 300 300 304 307 309 312 313 315 317 318 320 323 324 324 327 328 328 329 328 329 329 325 323 323 318 316 315 315 314 314 314 313 311 311 309 309 307 307 306 303 302 301 301
299 298 298 298 300 302 302 299 302 306 309 311 313 315 317 318 320 322 322 325 329 327 328 329 326 328 324 322 320 318 317 316 314 313 313 313 313 311 309 308 307 307 306 304 303 302 301 298 298
296 304 301 300 298 292 302 291 299 304 305 309 312 313 315 317 321 322 324 325 328 326 329 327 327 321 321 321 317 316 312 309 311 311 309 307 306 304 302 302 303 302 304 303 303 302 301 299 295
299 304 302 301 299 299 298 294 298 302 303 306 311 314 316 319 320 322 324 325 327 326 328 326 321 318 318 318 317 314 311 311 308 304 303 302 302 302 302 301 302 301 301 301 303 303 301 299 296
306 302 302 301 299 292 296 295 294 299 302 306 309 313 316 318 321 323 325 325 324 326 325 320 316 315 316 315 313 310 306 303 302 300 299 299 300 300 301 302 301 302 302 301 302 300 298 297 295
303 299 291 289 289 290 298 295 298 303 307 307 308 312 316 319 321 322 322 323 323 321 318 316 313 312 314 312 307 306 304 302 301 300 299 298 297 298 299 299 300 301 302 302 300 298 297 296 294
300 297 292 283 284 289 298 292 297 307 310 310 313 315 318 319 321 321 321 319 318 316 315 314 312 311 311 307 304 305 304 302 301 301 299 298 297 297 298 299 300 301 301 299 299 298 297 297 295
298 296 302 295 296 292 294 297 301 306 306 308 313 314 315 317 317 317 318 315 314 314 314 313 311 311 306 305 305 304 303 302 301 301 300 298 298 297 298 298 298 300 299 299 298 297 296 294 294
302 303 295 297 287 285 290 293 295 301 303 306 310 312 314 315 315 314 314 313 314 314 314 314 312 308 305 305 305 303 303 303 302 300 298 297 297 297 297 297 297 297 298 299 297 296 296 293 292
299 297 298 297 297 291 288 291 301 301 304 306 309 313 313 314 313 312 312 313 314 314 313 313 311 306 304 304 303 303 302 302 302 299 298 297 297 297 296 297 296 296 296 296 294 294 293 293 291
303 301 299 295 292 297 294 292 304 305 305 308 309 312 314 314 313 312 313 313 314 313 312 311 309 305 304 304 303 302 303 302 300 299 297 297 296 297 296 296 296 296 296 294 294 292 292 291 290

GFSSGP_sfc_thetae_015.txt.gz
Theta_e
319 316 312 307 293 290 287 293 301 310 313 316 323 322 321 323 320 311 338 338 339 341 344 345 345 347 347 348 349 348 347 346 344 343 343 342 340 338 339 338 338 338 335 334 335 335 335 334 334
312 311 307 302 288 283 288 302 310 312 315 318 318 318 320 320 331 333 332 338 337 341 342 343 345 346 346 347 347 346 345 343 343 342 341 340 338 337 339 339 338 339 336 336 336 335 335 334 334
317 318 301 291 287 285 289 303 313 316 317 315 313 315 316 323 333 334 338 338 339 338 341 343 344 344 345 346 346 345 344 343 342 340 339 338 336 336 337 339 338 338 336 335 335 335 334 334 336
311 302 296 288 287 293 296 305 314 315 316 316 313 309 315 326 331 338 340 337 336 340 341 340 341 342 344 344 345 344 342 340 339 338 337 335 335 336 336 338 337 335 335 334 335 334 334 336 335
306 299 287 286 290 297 303 315 315 313 315 314 316 309 313 328 338 338 338 339 337 336 337 337 338 340 342 343 344 342 341 340 338 337 336 336 336 335 336 337 337 335 334 334 334 334 336 335 335
299 296 287 285 291 298 309 314 314 313 314 314 314 312 315 333 333 335 336 335 336 335 336 338 340 340 339 340 341 340 339 339 337 337 337 336 337 337 338 338 338 337 336 337 336 336 335 335 335
295 291 289 291 293 301 311 314 311 311 310 311 316 313 318 326 330 334 334 336 336 334 332 335 338 335 338 337 337 337 338 337 335 336 336 336 336 337 338 338 338 337 336 335 335 334 333 334 333
299 294 292 293 294 301 311 313 315 312 310 318 315 308 312 325 330 331 330 330 333 330 330 332 335 336 336 336 335 335 335 334 333 334 333 333 334 336 336 335 336 335 333 333 334 332 331 331 331
301 290 288 298 302 303 311 308 311 317 315 316 317 314 326 325 328 325 324 327 327 329 328 331 331 334 333 334 335 335 335 333 333 333 332 330 328 329 332 332 334 333 331 331 332 331 330 330 328
296 290 292 307 310 308 310 309 310 311 311 313 313 321 328 328 325 321 319 320 324 325 327 326 331 333 334 334 331 329 330 329 327 327 328 327 327 326 329 331 332 333 331 331 330 330 330 327 315
296 293 301 306 307 310 308 310 314 309 307 313 311 315 324 327 323 321 320 322 323 328 330 329 332 334 331 329 329 326 325 326 328 327 327 328 329 328 327 325 325 325 328 324 324 319 317 313 312
295 300 301 307 308 309 308 311 311 307 309 317 318 322 321 324 322 319 322 323 324 328 330 331 333 333 327 330 327 323 324 328 328 328 329 329 326 324 322 321 321 320 321 316 315 315 313 310 310
299 300 303 309 309 309 312 308 306 307 311 316 320 324 323 324 325 321 323 327 329 329 330 328 326 325 323 325 329 328 328 329 331 330 330 328 324 321 321 319 318 315 313 312 311 311 309 308 309
302 301 299 301 306 308 306 306 309 306 312 313 318 319 324 323 323 324 325 325 326 325 324 324 324 325 329 325 325 322 324 324 327 329 328 326 324 322 317 314 314 311 311 310 309 307 306 306 306
303 297 298 302 305 305 307 302 304 310 313 312 313 319 322 320 319 322 324 322 322 324 324 322 324 327 325 324 323 320 322 324 324 320 320 320 318 315 312 313 311 309 309 307 307 306 307 306 307
298 298 291 301 304 307 304 295 308 313 314 310 311 313 317 316 317 319 322 322 323 322 321 322 331 326 323 320 319 321 321 317 317 315 314 314 314 313 312 310 309 309 309 308 307 306 305 305 304
296 290 296 298 304 301 299 296 308 311 311 308 309 310 311 312 315 318 323 322 322 321 321 326 325 321 319 320 322 320 314 313 313 313 311 311 312 312 311 310 309 308 307 307 307 305 304 303 302
290 293 293 295 298 299 293 295 306 308 308 309 309 309 310 310 312 316 320 322 323 323 324 326 323 321 322 322 318 317 313 312 311 309 310 310 310 310 309 309 308 308 306 305 304 303 303 303 300
298 295 295 296 300 295 295 296 301 304 306 307 309 314 312 310 312 315 320 322 322 323 326 325 323 321 323 318 315 312 310 308 308 309 309 309 309 309 307 306 305 305 303 303 303 302 299 298 298
298 295 294 297 297 294 294 295 299 304 305 306 310 312 314 311 313 314 316 321 322 322 325 324 324 322 324 320 314 313 311 308 308 308 308 309 308 307 307 304 303 303 302 301 300 298 297 297 296
297 297 294 294 295 295 296 295 299 303 306 309 311 311 314 313 313 315 316 321 321 321 323 324 323 322 322 318 314 310 309 308 307 306 306 306 302 299 298 299 298 297 298 299 298 298 297 294 295
294 301 300 298 295 288 294 285 296 301 301 304 308 310 312 313 316 317 316 318 321 323 325 326 324 318 316 313 310 308 305 304 304 302 299 297 298 298 297 298 297 296 297 295 297 300 297 295 291
296 301 299 299 294 295 294 290 293 298 298 302 303 306 307 314 316 315 316 320 322 326 325 324 317 314 312 310 309 307 305 301 298 297 296 295 296 297 298 298 296 297 297 297 297 296 295 294 292
303 299 298 297 293 286 294 291 292 295 299 303 306 308 310 313 314 317 319 322 323 324 319 315 312 310 309 308 305 301 299 296 295 294 294 294 295 296 297 297 297 297 297 297 296 295 295 293 292
301 295 286 284 284 283 296 294 294 300 303 304 306 306 308 312 315 317 318 318 320 315 311 310 309 308 306 301 299 298 296 295 294 294 293 293 293 294 293 295 295 296 298 297 296 295 294 293 292
297 294 287 281 281 287 295 290 294 303 306 308 308 306 308 312 314 317 319 320 315 311 310 307 308 306 303 300 299 297 297 296 295 295 294 294 293 293 293 294 295 296 298 296 296 294 294 294 292
297 291 296 291 292 287 291 294 300 303 303 305 305 304 308 312 314 319 319 316 312 311 307 305 307 305 302 299 298 297 297 297 296 295 295 294 294 295 293 293 294 294 296 296 296 294 293 292 290
298 299 289 290 281 280 285 288 290 297 299 304 303 305 309 311 312 312 312 311 311 309 308 306 305 302 300 299 298 297 297 297 296 295 294 295 295 293 293 293 293 293 293 293 295 293 292 291 292
295 292 293 293 288 281 280 285 294 296 298 301 305 309 310 310 309 308 309 310 310 309 308 306 304 300 298 299 298 297 297 298 297 295 295 295 293 295 293 293 293 293 292 292 290 290 290 290 289
298 296 295 283 285 285 283 286 298 297 298 300 302 309 310 311 309 307 307 308 308 308 308 307 302 300 299 299 298 297 298 298 297 297 295 295 293 293 293 293 293 294 293 292 292 291 290 289 289

GFSSGP_sfc_thetae_018.txt.gz
Theta_e
318 315 310 305 292 287 285 290 296 304 310 316 324 322 320 322 319 306 336 339 342 343 345 344 345 346 348 349 348 346 345 344 342 341 342 340 338 339 339 339 339 339 337 336 335 334 334 334 334
312 311 305 298 286 282 286 294 305 310 313 315 314 319 321 320 331 332 332 339 340 342 342 342 345 346 348 347 346 344 343 342 341 340 338 339 338 338 340 339 339 339 336 335 334 334 334 334 335
312 314 302 293 284 283 286 300 309 312 314 312 311 312 319 323 331 331 335 336 338 338 340 342 344 345 347 346 344 343 343 342 341 340 338 338 338 337 338 339 339 338 335 334 334 334 334 335 336
309 300 297 286 284 289 291 299 312 312 314 315 311 308 320 332 334 335 337 338 338 338 340 341 342 345 345 345 343 342 341 340 339 338 339 338 337 337 339 338 338 335 335 334 334 334 334 335 335
304 294 285 283 286 293 298 307 314 311 312 313 310 309 316 330 335 336 337 338 336 337 338 338 339 340 341 343 342 341 340 338 337 337 338 338 338 337 339 338 338 336 335 334 334 334 336 335 335
298 292 285 283 289 300 309 311 314 312 313 312 310 314 321 332 333 334 335 334 335 335 336 337 339 338 338 339 340 339 338 337 336 336 338 338 338 338 338 338 338 337 337 336 335 334 334 333 333
295 291 287 289 292 299 309 313 311 312 312 310 315 311 321 326 331 333 333 331 330 332 334 331 331 334 335 334 336 337 336 335 336 336 336 336 336 337 337 338 337 336 335 333 333 332 332 332 332
297 292 288 290 299 299 309 311 312 312 310 315 314 308 315 325 330 332 329 328 327 329 330 327 327 329 333 334 335 335 335 334 334 335 335 334 335 336 336 335 335 335 332 331 331 331 331 331 332
297 289 286 290 301 303 310 308 311 315 313 314 317 320 323 327 328 327 325 324 325 329 329 326 328 332 332 333 333 334 334 333 333 333 333 330 328 329 330 331 332 332 330 330 329 330 331 326 327
295 289 290 298 307 305 307 309 311 311 311 312 315 320 325 325 323 322 320 320 320 321 324 328 328 332 332 332 330 328 329 327 326 326 326 325 325 325 328 330 331 331 330 330 328 329 324 317 311
295 292 297 306 306 309 307 308 312 309 307 311 312 318 321 321 322 321 320 322 318 320 322 324 328 331 331 328 326 325 324 324 324 324 325 326 326 325 323 321 321 321 322 316 315 312 311 310 307
294 298 299 306 309 306 307 311 310 309 310 316 321 319 322 319 319 320 321 321 322 323 323 324 328 332 329 327 324 322 323 325 326 327 327 325 323 320 318 319 318 314 312 311 310 309 309 307 308
296 298 300 305 308 308 311 308 305 305 312 318 322 323 320 319 318 321 323 323 325 326 327 326 329 331 326 325 322 323 326 328 328 328 328 324 320 318 316 312 311 310 310 309 307 306 305 305 306
300 299 298 306 307 308 307 307 305 306 313 315 318 320 320 319 319 321 322 323 325 327 328 328 328 323 325 325 325 324 326 327 327 326 324 323 320 315 313 311 309 308 307 307 306 305 305 304 304
303 296 299 302 304 304 307 301 304 308 312 315 317 319 321 320 319 320 323 325 327 327 326 321 322 325 323 321 319 321 326 323 320 321 321 321 319 314 312 309 308 308 307 306 306 305 304 304 304
297 294 291 300 304 304 303 297 307 310 310 309 311 317 320 321 320 322 326 326 325 324 321 322 328 323 321 318 318 320 318 317 314 313 313 313 312 312 309 308 306 306 307 306 305 304 303 303 302
293 288 293 296 303 304 300 299 308 310 311 308 311 315 315 318 320 323 324 321 323 322 319 324 322 319 317 318 319 316 313 311 311 310 310 310 310 311 309 307 305 306 305 305 304 303 302 301 299
289 292 292 293 298 301 298 298 307 307 307 306 307 308 310 314 316 321 320 322 322 319 322 324 320 318 319 320 314 311 309 310 309 308 308 308 307 310 307 306 305 304 303 302 301 299 299 299 298
296 294 293 294 298 295 294 298 303 305 307 306 309 310 310 314 316 321 321 321 319 318 323 322 318 319 320 316 312 308 307 306 306 306 307 307 307 306 305 303 303 302 301 300 300 298 297 296 295
296 293 292 295 298 294 292 298 301 303 307 308 309 310 311 310 312 318 319 319 319 321 324 321 319 320 319 316 312 310 308 305 305 306 306 306 305 304 302 301 298 298 299 298 298 297 295 295 294
294 294 293 293 293 295 295 292 297 303 306 307 309 312 312 311 310 315 317 317 319 321 323 322 320 319 321 315 311 307 306 305 304 303 304 299 298 297 298 297 296 295 295 294 294 296 295 293 292
291 298 298 296 292 287 291 284 293 298 300 306 307 308 306 311 312 313 316 317 319 322 324 323 322 320 321 315 311 308 306 304 303 301 297 295 297 297 297 297 296 296 296 294 295 297 294 292 290
295 298 297 297 292 289 291 288 292 296 296 301 305 308 308 311 311 311 317 318 319 322 321 322 321 318 317 312 313 308 303 302 298 295 294 294 295 296 297 296 296 295 297 296 295 294 293 292 290
301 297 297 294 291 283 291 288 287 293 298 299 301 308 309 311 312 313 318 319 319 321 322 321 315 313 313 309 306 306 300 297 294 293 292 293 294 295 295 296 295 295 296 295 294 294 293 292 291
298 293 285 283 281 281 294 290 291 297 300 301 302 303 309 310 312 314 317 318 320 319 314 312 311 309 309 306 302 299 296 295 294 293 292 293 293 292 291 293 293 295 296 296 295 294 293 292 290
295 292 284 280 279 284 293 287 293 301 303 304 303 304 307 310 314 316 318 319 319 315 311 310 310 306 304 302 300 298 296 295 294 294 293 293 293 293 293 294 295 294 296 296 294 293 292 292 291
294 290 294 288 288 285 288 294 294 301 301 301 302 303 306 309 313 315 316 317 315 310 306 308 307 303 302 301 299 298 296 296 296 294 294 293 293 294 295 293 294 293 293 294 294 292 292 291 290
296 296 288 288 282 280 284 286 288 295 298 301 301 301 303 309 312 314 315 312 311 308 306 306 306 302 303 301 299 299 297 297 296 294 293 295 295 294 294 294 293 292 292 292 292 291 290 289 289
294 291 291 291 286 281 279 284 292 295 299 299 302 303 304 309 312 314 312 311 309 307 306 306 305 302 301 302 299 297 295 296 295 294 295 294 293 294 294 294 292 293 292 292 291 290 289 289 288
297 294 292 283 284 283 281 285 296 296 297 300 302 304 307 311 312 312 311 310 308 307 306 305 304 302 301 298 297 297 298 298 296 294 294 295 294 294 294 292 293 293 292 292 291 290 290 289 288

GFSSGP_sfc_thetae_021.txt.gz
Theta_e
316 312 307 304 292 287 283 288 293 299 310 318 323 321 319 319 315 305 333 337 341 341 343 343 344 346 348 348 346 345 344 343 340 339 340 339 339 340 340 340 340 339 338 335 335 335 334 334 336
309 309 303 295 285 281 284 290 294 305 313 315 318 321 320 320 329 331 332 340 342 343 343 341 345 346 347 346 345 343 342 340 340 338 337 339 338 339 340 340 339 339 337 335 335 335 334 334 336
310 311 300 290 283 282 284 294 308 310 313 312 309 315 320 322 330 331 337 340 342 341 341 342 345 345 346 344 343 342 342 341 340 339 338 337 338 337 339 340 339 338 335 335 335 335 334 335 334
307 302 294 285 283 288 290 294 311 309 313 313 310 309 323 332 332 334 337 339 338 339 340 340 343 344 344 343 343 342 341 339 338 339 340 339 339 337 339 339 338 336 335 334 334 334 336 335 333
300 293 286 282 286 290 297 309 309 310 311 311 312 314 320 331 334 334 336 338 336 335 337 339 340 342 342 343 342 341 340 339 338 339 340 340 340 338 339 338 338 337 335 334 333 334 335 334 332
295 290 283 281 288 293 307 309 311 311 312 311 315 315 321 333 332 334 335 333 333 332 332 336 339 339 338 340 340 338 338 337 338 339 339 340 339 338 338 338 338 337 336 335 334 333 334 335 332
293 289 285 287 290 298 306 311 310 310 309 310 317 313 321 327 331 332 331 332 327 327 327 327 330 330 332 335 336 336 336 336 337 337 337 337 337 337 337 337 337 336 335 333 332 332 333 334 331
296 291 285 287 296 298 307 309 310 309 309 316 316 311 314 326 329 329 329 326 323 325 326 325 326 330 331 332 334 334 333 334 336 336 335 335 335 336 335 335 335 333 332 332 332 332 331 333 329
294 287 284 287 300 300 307 305 308 315 314 318 320 319 324 328 327 324 325 326 321 322 323 323 324 325 329 332 333 334 334 334 334 333 333 330 328 328 327 331 331 330 329 330 332 329 326 324 326
293 287 289 294 302 303 305 306 311 311 313 314 316 323 326 326 324 321 321 321 319 320 321 322 322 325 330 332 329 327 327 327 326 327 326 325 324 325 327 329 330 330 329 328 326 323 320 314 309
292 291 294 302 306 307 305 308 311 310 307 313 315 318 321 323 322 322 321 320 320 322 323 324 326 329 330 327 326 324 323 323 323 324 322 323 324 323 321 319 319 316 318 311 311 310 308 307 307
291 296 297 299 306 307 306 310 309 308 309 318 319 320 320 320 320 321 320 318 317 320 324 325 326 328 328 325 323 322 321 322 323 323 325 323 320 317 317 315 312 310 309 308 307 307 306 305 306
293 297 297 301 308 307 310 306 304 305 316 319 320 319 318 319 319 321 322 322 320 319 321 323 325 328 327 323 321 320 322 325 325 325 325 322 318 314 311 309 309 308 307 306 305 304 304 304 304
299 300 297 301 305 308 305 305 306 307 318 317 319 317 316 317 318 319 320 321 323 324 322 323 324 328 324 322 320 321 325 326 326 324 323 320 316 312 310 308 307 306 306 305 304 303 303 303 303
301 296 299 301 304 304 306 302 302 308 316 317 318 317 315 317 319 318 321 321 323 325 326 325 325 324 323 322 321 322 325 324 322 321 321 319 315 312 309 307 306 306 305 304 304 303 303 302 303
296 294 292 298 302 304 303 296 305 310 313 313 315 317 316 317 318 319 321 323 325 326 323 322 327 322 321 318 319 321 320 318 317 318 316 314 312 310 307 305 304 305 305 304 303 302 302 301 299
292 287 291 296 302 303 300 298 305 310 311 311 311 316 317 317 317 319 322 325 325 324 319 322 322 319 317 318 318 317 317 312 311 310 310 311 310 309 306 305 305 304 303 302 302 301 300 298 297
286 289 290 292 297 300 299 300 304 307 308 309 309 313 316 316 316 320 323 324 324 321 319 322 320 317 317 316 312 311 309 308 308 308 307 307 309 308 306 304 303 303 301 300 299 296 296 296 295
294 291 290 293 297 296 297 299 304 305 306 305 306 308 313 316 320 322 324 321 322 316 321 320 317 316 318 312 308 307 306 305 305 305 306 306 306 305 303 302 301 300 299 298 298 296 295 294 293
296 292 291 294 296 294 292 296 299 304 305 306 307 308 311 315 315 320 319 319 318 317 321 318 318 317 317 313 309 308 306 304 303 304 304 304 304 303 302 298 296 296 295 295 295 295 294 294 292
294 292 291 292 292 293 294 292 298 303 304 305 308 310 311 313 312 317 317 317 316 317 321 319 318 319 317 313 308 305 304 304 302 302 301 298 299 297 296 296 295 295 294 293 292 294 294 291 290
291 296 295 294 289 286 291 284 292 298 301 302 306 306 308 310 312 317 317 316 316 317 321 322 319 319 317 312 308 307 306 303 302 301 295 294 296 296 296 296 295 295 295 294 295 296 293 291 289
294 297 295 294 290 289 289 286 288 296 299 301 303 306 308 308 309 313 316 317 317 318 321 322 319 319 319 313 311 307 305 304 299 295 293 293 295 295 295 296 295 296 297 296 295 293 292 292 290
299 295 294 292 290 283 288 287 286 291 298 303 304 306 307 306 309 310 317 317 317 319 320 320 318 318 317 314 312 308 306 301 295 292 292 292 293 293 295 295 295 296 296 297 296 293 292 291 290
296 291 284 282 281 281 291 288 290 295 298 300 299 302 306 307 309 308 314 315 316 317 318 319 317 318 317 312 311 308 305 302 297 293 292 292 292 291 292 292 294 298 299 297 296 293 293 291 290
293 291 283 279 279 283 291 286 291 298 300 301 301 301 303 306 309 311 314 315 316 318 318 319 312 311 307 309 306 303 301 299 297 295 294 292 292 291 292 294 296 298 298 294 294 294 291 292 290
292 288 292 286 285 283 285 291 294 297 298 298 299 302 304 304 309 311 314 316 317 318 316 315 311 308 304 304 302 300 299 298 296 295 295 292 292 293 293 295 295 295 295 294 293 293 291 291 290
294 296 286 286 281 280 283 284 286 294 297 299 298 300 303 306 310 312 315 316 318 318 314 309 308 306 304 301 301 301 301 298 296 295 294 294 294 295 295 294 294 294 293 293 293 291 290 289 288
292 290 289 289 285 280 278 283 291 294 297 298 298 301 301 306 310 313 315 316 316 313 308 307 303 301 300 301 301 301 297 296 295 294 295 295 295 295 295 294 293 293 293 292 290 290 288 288 287
295 293 290 282 283 281 280 283 295 294 295 296 299 301 302 305 310 313 314 311 308 306 305 306 304 302 301 301 299 297 298 296 294 295 296 296 294 295 294 294 293 294 293 292 291 289 289 288 287

GFSSGP_sfc_thetae_024.txt.gz
Theta_e
315 309 305 300 291 286 283 287 290 292 309 318 322 319 317 319 313 304 334 338 340 341 343 343 345 346 346 346 345 344 343 342 340 340 340 340 341 341 341 340 340 340 340 336 336 338 341 342 341
307 306 302 293 285 281 282 289 291 299 311 316 313 319 319 318 328 329 330 339 341 342 341 341 345 345 345 344 344 343 342 341 340 340 340 341 340 340 341 339 339 340 340 335 335 335 337 337 339
307 308 297 288 282 282 283 290 304 309 312 310 309 318 320 321 329 331 339 341 342 341 340 342 345 344 345 343 342 341 341 340 340 339 339 340 339 339 340 339 339 340 340 335 335 333 334 335 336
305 301 291 285 283 286 289 290 298 307 311 312 309 312 326 332 332 334 339 340 340 340 339 341 342 343 343 343 342 342 340 338 338 339 340 340 339 338 340 339 339 339 338 335 334 331 333 335 333
297 292 285 281 283 288 294 307 309 308 308 311 312 315 318 330 334 336 335 336 334 335 336 339 339 341 342 343 342 341 339 338 339 340 340 340 340 340 340 339 339 338 337 337 335 335 333 334 333
294 289 282 280 284 291 307 307 310 309 310 311 314 314 320 332 332 331 330 328 329 327 329 335 338 339 339 341 340 338 338 339 340 340 340 340 339 339 339 338 338 336 336 335 336 335 333 332 333
292 287 283 284 288 293 305 309 309 308 307 308 315 313 321 327 330 328 327 328 327 328 328 328 329 331 335 336 336 336 337 338 339 339 338 338 338 337 337 337 336 336 335 334 335 336 333 331 331
294 290 285 285 290 296 307 308 309 307 306 316 316 312 315 326 328 326 324 324 323 325 326 325 325 326 328 331 334 334 335 336 337 337 336 335 335 336 335 335 334 334 333 333 333 334 331 329 328
293 287 283 286 294 298 307 304 308 316 315 317 320 319 325 327 327 322 320 321 322 322 322 323 324 324 325 331 332 333 335 335 334 334 333 329 327 327 324 330 331 331 330 331 330 328 327 326 324
292 286 288 292 294 300 304 305 308 310 312 314 319 325 326 325 323 321 317 317 319 319 320 322 321 321 322 332 329 325 328 327 327 327 325 325 325 323 326 328 331 330 329 327 325 322 319 312 306
290 289 292 294 300 306 304 305 310 309 307 313 316 319 323 323 322 322 318 317 318 320 320 322 321 322 322 329 325 323 323 323 324 324 322 323 324 322 319 317 315 312 315 309 309 308 307 306 306
291 295 295 297 303 306 305 308 307 307 310 318 320 321 321 320 320 321 318 318 317 317 318 320 322 326 327 325 322 321 320 321 321 321 322 322 319 316 313 311 310 308 307 306 306 305 305 305 305
292 295 296 297 306 306 308 305 304 310 316 320 320 320 319 319 320 321 321 320 320 319 319 322 324 326 326 323 320 319 319 320 320 322 324 320 316 313 309 308 307 306 306 305 304 304 303 303 303
297 297 297 301 305 307 304 304 307 313 317 315 316 316 317 315 317 319 320 317 320 322 322 322 322 326 325 320 318 318 320 323 324 323 321 318 313 309 307 306 306 305 305 304 303 303 302 302 301
299 295 298 301 303 305 306 300 303 314 315 314 315 316 316 315 317 318 320 318 319 320 319 320 322 325 323 320 318 320 324 324 322 321 319 316 312 310 306 306 305 304 304 303 303 303 302 301 299
294 295 293 298 302 304 301 295 305 315 314 313 314 316 314 315 316 317 318 320 321 321 322 322 325 323 321 319 318 320 321 320 319 318 317 313 311 308 306 305 305 304 304 303 302 302 301 298 296
290 286 291 295 301 302 300 297 304 312 314 311 314 314 313 314 316 317 318 320 322 323 322 320 322 320 319 317 318 319 318 316 315 313 312 311 309 308 305 304 304 303 302 301 302 300 300 296 296
286 287 288 291 295 298 298 298 303 309 311 311 311 314 314 314 315 318 318 322 323 322 320 321 320 318 317 316 313 312 310 309 309 309 309 310 308 306 305 304 303 302 300 299 297 296 296 296 295
292 289 288 292 296 297 296 298 301 305 306 306 307 311 314 316 318 318 319 322 321 319 318 319 317 315 317 313 309 309 308 307 305 306 306 308 306 305 303 301 300 299 298 298 297 295 294 293 292
293 290 289 293 294 293 293 295 299 302 305 306 308 310 313 315 315 317 318 318 319 318 319 318 317 316 316 315 308 308 306 304 303 304 304 305 303 302 301 298 297 297 295 294 295 295 294 292 291
292 291 290 291 291 292 293 292 298 302 303 305 307 310 312 313 314 317 318 317 318 317 318 319 317 317 316 312 306 304 304 303 302 301 300 299 299 297 295 295 294 294 293 292 293 294 294 291 291
291 296 293 292 288 284 289 282 290 298 300 302 305 306 309 310 314 316 318 316 316 317 319 320 318 317 316 310 307 306 305 302 301 300 296 294 296 295 295 295 295 295 294 295 296 296 294 293 290
293 296 293 292 289 288 287 285 287 293 297 301 303 305 308 310 311 313 317 318 317 317 318 319 317 317 316 311 309 306 304 302 300 296 292 294 294 295 295 295 296 295 295 295 295 294 292 292 290
297 295 293 291 288 282 286 286 286 290 298 303 304 304 307 307 308 312 316 316 316 315 316 318 316 317 316 313 310 307 306 301 298 294 293 292 292 293 294 295 295 296 296 297 296 295 292 291 291
294 290 283 282 281 280 290 287 289 294 296 300 302 304 305 308 306 307 312 314 314 314 316 318 317 315 316 314 311 308 306 304 301 296 296 293 292 292 292 293 295 296 298 296 296 294 292 291 290
291 290 283 279 278 282 289 284 289 296 297 299 299 300 301 304 307 308 311 315 315 315 317 318 318 317 316 317 313 309 307 305 303 299 296 295 294 293 293 295 297 298 299 297 296 294 293 292 291
291 287 290 285 284 282 284 289 292 294 296 298 297 298 298 302 304 307 309 313 315 316 317 318 319 318 314 313 309 306 307 304 300 301 298 295 294 295 296 296 296 298 298 296 295 295 293 291 290
293 294 286 285 280 279 282 282 285 291 295 298 298 298 300 303 304 307 309 312 314 316 317 317 318 316 311 309 306 305 303 303 301 298 295 295 296 296 295 295 295 294 294 294 294 293 292 290 289
291 289 288 288 284 280 277 282 291 292 294 294 295 299 299 302 305 308 310 312 314 315 315 314 313 309 304 304 304 304 302 301 299 298 296 296 296 296 295 294 294 293 293 293 292 290 289 288 287
293 291 289 282 282 281 279 282 292 293 293 293 295 297 299 301 306 309 310 311 312 314 310 308 305 303 306 303 302 302 299 298 296 296 295 295 296 295 295 294 294 294 293 293 291 289 289 288 286

GFSSGP_sfc_thetae_027.txt.gz
Theta_e
323 314 313 308 299 296 292 293 297 297 305 323 325 320 319 321 315 310 336 340 343 342 342 345 345 346 345 345 345 344 343 343 342 342 342 342 342 342 341 341 341 341 342 343 344 343 342 342 342
314 309 309 302 295 290 291 294 297 309 313 318 318 324 321 317 327 328 332 341 343 342 342 342 345 344 345 344 344 343 343 342 342 342 342 343 342 342 341 341 340 340 340 340 341 343 343 342 340
312 311 306 299 293 290 291 295 305 313 314 314 315 324 323 322 329 331 339 342 343 342 341 343 344 343 344 343 342 341 341 341 341 341 342 343 342 342 341 340 340 340 340 337 338 338 338 337 338
310 309 299 295 292 293 294 296 307 309 314 315 319 317 326 332 332 336 341 342 341 341 342 342 341 342 343 343 342 341 340 339 339 340 341 342 342 341 341 340 340 340 338 333 335 336 335 336 335
304 301 296 291 289 293 295 309 314 311 312 316 318 315 320 330 332 334 337 339 338 339 342 341 339 340 342 343 342 340 339 339 339 340 341 341 341 341 340 339 339 339 338 336 334 335 335 334 335
302 298 293 290 291 294 302 313 313 312 314 317 318 317 321 332 329 329 331 331 334 334 336 337 338 337 337 340 339 338 339 340 340 340 340 341 340 340 339 338 337 337 338 338 334 335 335 334 333
300 297 292 291 293 300 307 314 312 311 311 314 320 315 322 326 327 328 327 329 330 331 330 329 331 330 331 334 336 337 339 339 339 339 339 339 338 338 337 337 336 336 336 337 334 333 334 333 329
301 299 293 293 293 296 310 311 313 311 311 320 321 314 315 324 325 325 325 325 327 328 327 324 324 325 328 332 334 336 337 337 338 338 337 335 336 336 336 335 335 335 334 336 333 331 331 328 325
300 296 292 293 295 302 310 309 316 320 317 319 321 321 325 323 323 322 321 321 323 324 323 321 323 326 328 332 334 336 337 336 335 335 334 331 331 331 330 331 332 333 331 331 331 327 324 323 322
300 295 294 297 299 303 308 309 313 314 313 315 319 324 324 322 321 318 318 317 319 320 320 323 321 320 322 329 329 331 332 331 331 331 331 330 331 330 329 331 332 330 327 325 324 320 318 317 314
297 296 298 298 300 308 308 309 313 314 310 315 316 318 321 321 319 318 319 318 317 318 318 319 319 320 319 320 325 328 329 329 329 330 330 331 330 329 328 324 320 320 318 315 316 315 314 314 313
296 299 299 300 304 309 308 312 309 310 312 319 322 322 321 321 319 319 317 318 319 319 319 319 320 320 322 323 328 326 326 327 328 328 330 330 327 323 320 318 317 317 316 316 316 315 315 313 312
297 299 300 300 307 309 311 307 309 312 319 321 322 322 320 320 320 320 320 321 319 319 320 320 323 323 328 328 327 326 326 326 328 328 331 329 325 321 318 317 316 315 315 315 315 314 313 312 311
300 299 301 304 309 308 307 309 311 313 319 318 319 318 321 321 321 319 319 318 317 319 321 322 325 328 331 330 327 325 327 327 328 329 330 327 323 318 316 316 315 315 315 315 314 314 312 310 309
302 298 301 305 307 306 308 305 307 314 315 315 315 317 320 319 322 321 321 319 319 321 322 324 326 330 332 329 326 326 326 329 329 329 327 325 320 319 317 315 315 314 315 314 314 313 312 309 307
297 298 297 302 305 306 305 299 310 314 315 313 315 317 318 317 318 323 323 322 323 323 323 325 326 328 332 329 326 326 328 331 330 329 326 322 319 318 317 315 315 314 314 314 314 313 310 308 307
296 293 296 298 306 305 303 301 310 314 314 312 314 316 316 316 319 321 324 323 324 326 325 325 327 328 330 329 326 328 330 330 329 327 324 320 317 316 317 316 314 315 313 313 312 311 311 307 305
292 293 295 297 301 304 302 303 309 313 314 313 314 315 316 316 317 321 322 323 324 326 327 327 327 328 330 327 325 326 326 325 325 325 322 319 317 315 316 314 313 312 311 310 309 308 308 308 306
296 294 293 297 299 302 301 303 306 312 313 313 314 316 316 315 319 321 323 324 324 326 326 326 326 328 327 323 322 323 324 322 322 322 321 319 316 314 315 312 311 311 310 309 308 307 305 304 305
296 294 294 297 297 300 298 300 305 308 311 313 314 315 317 318 319 321 321 323 324 326 327 327 327 327 326 326 324 324 322 318 319 316 317 317 314 313 312 311 310 309 308 308 307 307 304 303 303
296 294 294 294 295 297 298 296 302 306 310 311 312 316 318 319 319 320 321 322 324 325 326 327 327 326 326 325 318 314 315 313 312 312 312 312 312 311 309 309 308 306 305 303 305 306 305 300 300
293 298 296 295 293 291 295 288 295 303 305 306 310 312 315 317 320 322 321 322 323 325 327 327 326 325 324 321 319 317 319 315 314 312 311 309 308 306 304 304 305 304 304 304 305 305 304 303 299
296 299 297 296 293 293 292 291 294 298 302 305 308 310 313 316 318 320 322 323 324 325 326 327 326 325 324 320 320 319 317 318 313 308 303 303 304 304 303 304 305 304 305 305 304 302 303 303 299
300 297 296 294 293 288 291 291 293 296 302 306 310 310 312 314 316 319 323 324 325 325 326 327 325 324 324 320 318 318 315 312 309 306 304 302 302 302 303 303 304 305 305 302 301 302 301 299 301
298 296 289 287 286 286 292 291 295 300 300 303 307 310 312 314 316 316 318 321 323 322 324 325 325 323 322 320 318 316 314 311 310 306 302 301 301 301 302 304 304 304 304 304 303 301 301 301 300
296 296 289 282 283 286 292 289 294 301 302 303 303 304 308 311 314 315 317 320 322 322 323 324 324 324 322 320 319 315 313 312 312 309 305 301 302 302 302 303 303 303 302 304 303 301 302 302 300
294 293 296 289 288 287 289 292 297 298 301 303 304 305 305 305 310 313 315 318 321 321 322 323 323 323 322 322 322 318 316 314 312 309 306 305 302 301 301 302 302 300 303 301 303 302 301 301 301
297 298 291 290 284 282 287 288 291 297 298 300 303 305 307 308 307 310 313 315 319 321 322 323 324 324 324 323 323 320 316 313 312 308 304 304 302 300 300 301 298 301 301 301 300 300 301 300 300
295 293 292 293 290 286 284 288 297 298 299 301 302 302 306 307 311 311 313 315 318 320 321 322 323 323 323 322 319 317 314 313 310 307 305 302 299 298 298 296 299 298 297 299 299 299 299 298 298
298 295 294 290 287 287 287 288 298 300 299 300 301 301 304 308 309 314 315 315 317 318 320 321 322 322 318 314 316 315 313 311 308 306 302 300 298 299 297 298 297 298 297 298 297 297 296 296 295

GFSSGP_sfc_thetae_030.txt.gz
Theta_e
325 320 319 315 302 301 297 298 303 303 306 324 328 319 313 323 316 313 340 343 344 341 341 346 345 346 346 347 346 344 344 343 344 343 343 343 344 343 343 342 343 346 347 344 343 343 341 338 338
318 314 316 311 298 294 297 301 302 310 316 322 322 326 323 318 328 330 335 342 343 341 341 340 345 345 345 344 344 343 343 344 343 343 343 343 343 343 342 342 342 346 347 345 343 342 340 338 339
316 316 309 304 298 295 297 301 302 314 319 320 321 325 318 320 329 333 342 344 343 341 340 343 343 344 344 343 343 342 342 342 342 343 344 344 343 343 342 342 340 343 345 343 343 340 338 338 338
316 314 309 298 296 299 299 302 305 311 316 319 323 320 324 330 331 338 344 342 341 342 341 342 342 343 343 343 342 341 341 341 341 342 343 343 343 343 342 341 340 341 341 339 339 335 336 336 336
315 310 300 297 296 299 301 306 317 314 312 318 322 319 322 330 336 339 342 341 340 341 342 343 340 342 342 342 341 341 340 340 341 341 341 342 343 342 342 340 340 338 339 338 336 335 336 336 335
308 307 297 297 296 301 306 313 317 314 317 320 321 322 323 332 331 333 338 339 341 340 341 340 340 339 339 339 339 339 339 340 340 340 341 342 341 340 340 339 339 339 336 337 337 336 335 333 330
305 302 297 299 300 305 312 318 316 315 316 318 324 318 324 325 327 329 331 334 336 337 334 333 330 330 333 336 337 338 339 339 340 340 340 339 338 337 337 337 338 338 336 335 336 335 332 329 327
308 305 298 301 299 301 311 315 318 315 315 325 326 317 317 322 326 327 327 327 328 328 329 328 327 327 328 333 336 337 338 338 339 339 337 336 335 336 336 335 336 338 335 333 333 332 329 326 324
308 300 301 298 299 302 311 312 319 321 318 322 324 325 325 324 325 326 323 323 321 322 323 323 323 326 328 329 335 337 338 337 336 335 334 330 327 328 330 332 334 335 332 331 328 326 325 324 320
305 301 299 303 304 303 308 312 316 317 317 319 321 322 322 323 324 323 322 319 318 318 319 320 322 322 324 328 331 335 335 333 332 331 330 329 332 330 329 332 331 330 328 326 324 322 321 322 319
305 301 304 304 305 306 307 310 316 315 312 317 317 318 320 320 321 320 320 319 318 319 319 320 320 320 321 320 326 329 329 330 331 331 329 331 331 331 331 331 328 326 324 319 319 320 320 320 319
301 305 305 305 306 308 311 314 312 315 317 324 323 321 320 321 320 319 319 317 316 317 317 319 318 319 318 318 321 324 324 327 328 329 330 331 329 330 329 328 327 324 322 321 320 321 321 319 318
303 305 305 307 306 312 314 312 313 316 321 326 323 322 320 320 321 323 323 321 318 316 317 317 318 315 318 320 321 324 326 325 326 328 329 329 328 329 328 326 324 323 323 322 321 320 318 317 317
306 306 306 307 310 313 311 312 314 316 322 321 321 319 320 318 321 321 321 320 321 318 317 319 320 321 322 324 327 325 327 327 328 331 333 333 329 329 325 324 323 321 323 322 321 319 318 317 316
307 303 306 307 312 310 312 308 311 319 321 319 318 320 321 322 324 322 321 321 321 322 320 320 324 327 325 329 331 325 327 327 329 333 336 334 329 327 326 324 323 322 322 321 320 319 317 316 314
303 302 300 306 310 311 310 302 314 319 318 316 318 320 321 323 323 325 323 320 322 325 325 325 327 329 330 332 330 326 327 329 331 334 335 333 329 327 326 324 323 322 321 319 319 318 316 315 314
302 296 299 301 309 310 309 305 314 318 317 315 316 317 318 319 322 324 327 323 323 324 324 325 328 329 332 334 330 328 330 332 335 336 334 332 328 326 326 323 322 322 319 319 318 317 317 312 312
296 297 299 300 306 308 306 306 313 317 317 314 316 317 317 317 319 324 326 328 326 326 328 328 329 332 334 334 330 327 331 334 336 335 333 330 327 325 325 323 322 320 318 317 317 314 313 313 312
301 299 297 301 305 305 304 305 310 316 317 316 317 317 317 317 320 323 326 328 328 329 328 328 328 331 333 331 326 325 328 332 333 334 332 329 327 324 324 322 320 319 317 317 315 312 309 309 311
301 299 298 301 303 302 303 303 309 315 316 317 318 319 319 319 320 322 324 325 325 327 329 329 330 331 332 330 327 327 329 331 333 332 331 329 326 324 323 321 319 318 316 315 313 310 308 309 309
301 299 298 298 300 302 302 300 305 311 316 317 319 320 321 320 320 322 323 324 326 326 327 328 330 331 332 331 328 330 331 329 328 326 327 327 325 323 321 320 318 317 315 311 311 310 307 306 307
297 303 300 299 298 294 300 292 300 306 310 314 316 318 320 321 322 323 325 326 326 328 329 330 330 331 332 333 329 327 326 325 327 326 327 325 323 321 319 318 317 315 311 309 309 308 309 308 305
299 303 301 301 299 297 296 294 299 304 305 309 314 317 320 322 322 323 325 327 329 330 329 332 332 331 332 332 330 328 328 329 330 325 324 321 319 317 316 315 313 311 309 309 308 309 308 309 307
304 302 301 301 300 291 296 295 296 300 303 305 311 315 318 320 322 324 326 328 329 331 331 332 332 331 331 332 331 330 329 329 325 321 317 315 310 311 311 311 311 310 309 308 309 307 307 308 306
303 299 292 290 291 289 297 295 297 303 305 307 308 311 317 320 321 323 324 326 328 329 331 331 331 330 331 331 331 331 330 328 323 319 315 312 311 307 310 310 308 305 306 308 307 305 304 305 306
301 299 292 285 287 290 296 292 298 305 307 309 310 311 312 316 321 322 324 326 327 330 331 331 330 330 331 331 330 329 328 326 322 319 315 311 309 306 308 304 306 306 306 306 304 305 304 307 305
299 296 301 294 295 292 294 297 302 304 304 308 310 310 312 313 315 318 322 325 327 329 331 332 330 329 331 331 330 330 328 325 322 318 315 313 310 308 306 304 304 305 305 304 304 304 306 303 305
302 304 295 296 287 285 291 292 295 299 301 304 305 308 311 314 314 315 318 321 324 328 330 332 332 329 330 331 331 330 329 325 320 318 313 309 309 310 307 304 303 302 302 303 304 305 303 304 303
299 298 298 298 296 289 287 292 302 301 303 304 306 307 310 313 315 317 317 319 321 325 328 328 329 328 329 331 331 330 328 322 318 316 315 314 314 310 305 301 300 300 303 304 303 302 302 300 301
303 300 300 294 292 295 293 292 304 305 306 306 307 306 309 313 314 318 319 320 321 323 325 326 327 328 329 330 330 329 325 321 320 319 317 314 313 304 300 300 300 300 303 302 299 300 298 298 298

GFSSGP_sfc_thetae_033.txt.gz
Theta_e
328 326 321 315 302 302 298 301 305 304 306 318 323 319 311 318 316 312 341 344 342 341 345 348 347 348 348 347 346 345 344 345 345 344 344 344 344 345 345 345 345 346 346 344 340 338 338 337 337
323 317 315 310 299 296 298 304 301 305 314 322 323 326 320 319 330 331 336 342 339 340 344 348 346 346 346 345 344 343 344 344 343 344 345 344 345 344 345 347 346 346 347 343 339 338 338 337 337
318 317 309 305 301 296 296 304 305 308 318 320 319 326 319 316 321 330 342 346 337 339 342 346 344 344 344 343 343 342 343 342 343 344 345 344 344 344 344 345 346 346 347 342 339 338 337 336 337
316 314 310 299 297 301 302 304 306 310 314 318 321 319 323 321 321 327 339 346 339 336 340 342 342 343 343 343 342 343 341 341 342 343 344 344 344 344 342 342 344 346 345 338 337 336 335 336 336
314 310 301 300 299 302 304 305 310 311 313 316 319 318 323 328 331 334 335 343 338 335 343 343 340 341 342 342 342 342 341 342 342 342 342 343 343 343 341 340 341 342 341 338 335 334 335 335 333
308 308 299 297 299 302 306 311 313 314 316 318 318 321 324 331 333 335 341 340 339 341 341 340 342 341 341 341 340 340 340 341 341 341 342 343 342 341 341 339 339 340 339 338 337 335 334 332 330
306 304 300 299 301 303 310 317 314 315 316 317 324 316 324 326 327 331 333 336 334 335 334 335 337 339 338 337 338 338 339 340 340 340 340 339 338 338 338 338 337 338 337 336 335 333 332 328 327
309 306 301 302 300 300 311 314 317 316 317 326 327 318 320 324 327 327 327 327 330 331 329 328 330 333 338 337 337 338 338 339 339 338 336 335 336 336 337 337 336 336 336 335 332 331 329 326 325
311 302 300 300 301 303 310 311 320 323 318 322 328 326 325 326 326 325 321 322 322 325 325 326 326 328 331 334 337 338 339 337 335 334 332 329 329 329 330 334 335 334 333 332 330 328 326 325 322
306 302 301 305 306 305 310 312 315 316 318 319 318 321 323 324 325 324 319 316 317 318 321 324 325 322 321 322 323 325 327 330 330 328 331 328 332 332 328 331 332 330 329 328 327 326 325 324 319
307 302 306 307 307 309 308 311 315 314 308 308 317 317 321 323 323 321 320 318 317 319 320 320 319 318 317 318 320 326 328 330 331 333 332 333 332 330 331 328 327 325 324 318 318 319 323 323 320
303 307 307 308 308 310 311 311 306 317 315 318 322 321 322 322 322 320 317 317 317 318 319 319 321 320 319 321 323 326 327 329 328 329 331 333 331 333 332 329 327 327 324 324 324 323 323 320 319
305 306 308 309 309 313 315 314 314 317 322 325 322 321 322 322 322 321 318 317 316 315 315 316 316 317 319 320 321 323 323 324 325 328 330 329 330 332 329 330 328 326 326 324 324 322 320 319 318
308 308 308 308 310 313 311 313 315 319 324 321 322 321 319 320 320 321 319 315 315 315 314 314 314 316 316 318 318 322 326 325 327 329 329 329 329 332 328 328 326 326 326 325 323 321 319 318 317
308 305 307 308 310 310 312 305 311 321 322 319 319 320 318 320 320 321 322 318 316 314 316 314 315 316 319 319 319 319 323 326 326 326 335 332 329 332 330 328 326 326 326 325 322 320 319 317 315
305 306 299 308 310 311 309 298 316 321 318 316 318 318 319 321 321 321 323 322 321 317 315 315 316 321 321 323 325 326 326 326 325 329 334 334 332 332 330 327 327 326 325 323 320 319 317 315 314
303 297 300 304 309 310 308 298 315 320 317 315 316 318 319 321 322 321 322 322 322 320 319 321 325 323 326 329 328 326 328 327 328 334 336 334 332 331 330 328 327 326 324 322 320 318 317 313 312
297 298 301 300 305 308 306 306 314 318 316 316 316 316 316 317 319 322 320 323 324 324 324 326 327 327 328 330 330 326 324 327 330 334 333 335 332 330 330 328 326 325 322 320 319 318 314 313 312
303 300 300 303 307 305 305 305 310 316 316 315 315 315 315 316 320 323 325 324 325 325 325 325 325 327 329 328 326 323 321 326 331 334 334 334 332 330 329 327 326 324 321 320 319 315 313 310 311
302 300 300 303 305 303 303 304 307 314 315 316 316 316 317 316 318 321 324 325 325 325 326 326 326 328 329 327 327 324 324 326 330 336 334 334 332 329 328 327 324 323 320 320 318 314 311 310 311
301 300 299 299 303 304 303 301 304 310 315 317 318 318 318 318 318 319 321 324 326 326 326 327 328 329 330 330 328 324 325 328 328 330 331 332 332 329 327 327 325 323 321 318 317 314 311 308 310
297 303 302 300 299 294 303 293 301 305 309 313 316 317 317 318 320 320 321 322 324 326 329 329 329 329 330 331 327 324 323 323 327 329 331 330 331 329 327 326 325 322 320 318 315 313 311 310 308
300 305 302 302 300 299 298 294 298 303 303 308 313 317 318 319 319 320 322 323 324 327 327 329 329 329 330 331 330 327 326 327 328 329 330 329 330 328 326 325 324 321 318 317 315 312 310 311 308
306 303 302 302 300 293 296 296 295 300 303 306 311 315 318 318 320 321 323 326 326 328 330 331 329 328 330 331 331 332 329 328 327 330 327 327 326 323 324 321 320 317 313 312 312 311 309 308 309
304 300 292 290 291 291 299 296 298 303 306 307 307 311 316 319 320 320 321 323 325 328 330 330 329 328 330 331 331 332 331 331 330 328 327 323 321 316 314 313 313 310 309 307 307 307 306 306 306
301 300 293 284 287 292 298 292 298 306 309 309 309 311 313 317 320 321 321 322 324 327 330 331 330 329 330 332 332 333 330 330 332 330 327 323 316 310 312 310 311 308 305 307 307 306 304 305 307
301 298 302 295 297 293 296 298 303 306 305 307 309 310 312 314 317 320 322 324 325 327 330 334 331 330 331 332 331 333 332 331 332 330 328 320 314 313 312 312 310 306 306 305 304 303 305 303 308
303 305 296 297 288 286 292 295 296 300 302 305 305 308 311 314 316 317 320 323 326 328 330 335 333 332 332 333 332 332 333 332 331 329 322 316 315 314 312 310 307 306 306 303 303 303 303 305 304
300 299 300 299 297 290 288 293 303 302 304 305 307 308 309 312 316 318 319 321 324 327 329 331 333 333 333 333 334 334 332 330 329 325 320 318 315 313 312 310 308 305 303 301 301 304 304 303 303
303 301 301 295 293 297 296 295 305 305 307 307 307 308 311 313 315 319 321 321 321 324 326 329 331 331 333 333 332 331 328 323 322 320 319 318 317 317 313 310 306 303 301 302 303 301 301 301 300

GFSSGP_sfc_thetae_036.txt.gz
Theta_e
326 324 322 316 300 300 295 298 304 302 305 315 319 315 311 320 314 308 337 328 335 342 348 348 347 349 349 348 346 345 345 345 345 344 344 345 345 346 346 346 346 346 343 339 338 337 336 334 335
321 321 314 307 297 293 295 302 301 304 313 316 315 313 310 315 324 331 335 342 342 343 347 348 347 347 347 345 344 344 345 345 344 344 345 345 346 347 346 346 345 344 343 339 338 336 335 334 336
318 317 306 302 299 294 295 302 304 307 310 314 313 324 321 316 323 327 330 338 340 342 347 347 345 345 345 344 343 343 343 343 344 344 345 345 347 348 347 345 345 345 343 338 337 336 334 335 336
317 312 308 298 295 299 301 303 304 306 310 313 316 314 321 323 322 327 328 329 333 338 345 342 343 343 344 343 343 343 342 342 342 343 344 344 346 347 347 345 345 345 342 337 335 334 333 335 333
314 308 300 297 298 302 304 305 306 306 309 312 315 314 314 331 333 335 326 329 326 333 343 341 341 342 342 343 343 342 342 342 342 342 342 343 343 344 344 344 343 341 340 336 334 333 333 333 332
307 308 297 295 299 305 307 310 309 310 312 313 314 312 319 329 329 331 338 334 332 333 340 340 342 341 341 341 341 341 341 341 342 342 342 343 341 341 342 342 340 339 338 337 336 335 333 332 330
304 302 298 299 300 302 304 307 309 313 312 310 313 306 320 324 327 329 332 335 328 331 335 335 337 339 338 338 338 338 339 340 341 341 340 339 338 338 339 340 339 338 337 335 334 333 331 329 327
307 304 299 302 300 301 308 307 312 314 312 319 315 308 316 322 326 326 327 330 330 332 332 332 334 335 336 337 337 338 338 338 337 337 336 336 336 336 336 337 337 337 335 333 332 330 329 326 324
310 299 297 300 300 302 308 308 310 314 309 310 319 320 322 326 326 323 321 321 324 327 328 329 331 333 334 333 336 336 338 336 335 334 333 328 328 327 330 333 335 335 332 331 330 329 327 324 322
305 299 301 305 306 304 307 308 313 311 310 308 311 321 325 326 323 320 318 317 319 321 324 325 323 322 327 330 331 332 332 329 327 326 327 327 328 328 330 331 332 331 330 329 328 327 325 322 312
305 300 306 306 307 308 308 309 313 312 303 307 309 317 322 322 321 320 318 317 317 319 321 318 318 319 318 318 320 322 325 328 328 329 328 329 328 327 328 326 324 323 324 317 319 320 318 318 316
302 306 306 307 309 308 310 313 309 315 308 315 320 321 322 321 318 318 317 316 317 317 315 317 317 317 316 316 316 318 323 325 329 328 330 330 328 327 326 324 324 320 319 315 316 319 318 316 315
303 305 308 308 308 310 312 310 314 316 321 322 321 322 321 320 318 317 317 317 315 315 316 317 317 318 318 317 318 320 323 324 324 328 330 330 327 328 327 326 324 321 322 322 321 318 316 315 314
307 307 307 308 308 310 309 311 311 318 321 320 320 319 319 318 317 316 314 314 312 312 312 315 316 318 319 320 321 322 322 323 325 327 328 329 329 328 327 327 326 324 323 322 320 317 315 314 312
308 303 305 307 307 308 310 303 304 317 319 317 318 317 317 319 319 317 315 314 312 311 312 314 315 316 317 318 319 321 321 317 320 325 328 328 326 327 327 324 324 324 323 322 318 315 314 312 310
303 303 298 306 308 309 306 297 307 311 317 315 313 314 313 316 319 318 317 315 314 312 312 313 316 315 315 315 315 318 320 323 323 325 329 329 328 329 328 326 324 324 322 320 316 314 312 311 309
301 295 298 301 309 309 306 300 307 313 316 314 313 315 317 318 317 320 319 316 317 315 313 314 315 314 317 315 316 319 323 326 326 325 331 331 331 330 328 327 325 324 321 319 317 315 313 309 307
296 297 299 300 305 307 304 303 308 311 314 313 313 315 316 317 316 319 319 320 318 316 314 314 315 318 319 318 315 320 321 324 324 325 330 330 330 330 328 328 325 322 320 318 315 313 310 309 308
301 300 299 302 306 304 304 305 308 311 313 312 312 312 313 315 319 320 320 321 318 318 317 318 319 320 321 321 320 323 318 321 322 329 331 331 331 329 327 326 323 321 319 317 317 312 308 305 305
300 298 298 303 306 304 301 304 308 310 313 312 313 313 312 314 317 318 319 321 320 319 320 322 323 324 323 324 325 325 321 321 323 330 331 330 329 327 327 325 322 321 319 317 315 311 307 307 307
299 298 298 299 302 304 301 299 304 310 313 314 314 316 316 313 315 318 319 320 322 321 322 323 325 325 326 326 327 326 323 322 321 328 329 329 330 329 325 325 323 321 320 316 314 311 308 304 305
296 302 301 301 299 293 302 291 300 306 307 311 313 314 315 316 316 318 319 321 321 323 324 324 324 324 325 326 323 323 318 316 321 327 329 329 330 328 326 325 324 322 319 316 313 312 308 306 303
299 304 302 301 298 298 298 294 298 303 302 307 312 314 316 316 317 316 318 321 324 325 325 325 326 325 327 327 327 324 320 320 322 326 327 327 328 328 326 325 322 320 317 314 313 310 308 307 305
305 302 302 301 298 291 297 295 295 299 302 305 311 314 316 316 317 319 320 321 323 325 326 327 326 326 327 327 327 326 322 322 323 324 325 325 325 327 325 322 320 313 311 309 308 309 307 307 306
303 299 291 289 289 290 299 295 298 303 305 306 309 309 312 317 317 317 319 319 321 322 324 326 326 325 327 328 328 327 327 325 324 325 326 324 323 320 317 313 311 311 310 309 308 307 306 305 303
300 298 292 285 287 291 298 293 297 306 308 309 309 312 312 316 318 318 318 321 322 322 324 325 325 325 326 327 328 329 327 327 327 326 325 324 321 317 313 312 311 310 308 306 306 305 304 304 303
300 296 301 295 297 291 292 299 303 305 306 306 307 309 312 312 317 318 320 320 323 325 326 326 326 326 326 327 327 327 330 327 325 326 326 323 318 313 312 311 310 308 306 305 304 303 303 303 303
301 303 295 296 287 285 292 294 295 300 302 304 305 308 311 314 316 318 320 321 322 324 327 329 329 327 328 328 329 329 327 327 327 326 326 320 315 313 312 311 310 306 304 304 304 302 303 303 302
299 297 299 300 296 289 288 292 303 302 304 305 306 309 310 312 316 317 318 319 323 324 324 328 329 329 329 329 329 329 325 323 322 327 324 317 315 314 312 310 307 305 304 304 302 302 302 302 301
302 300 299 293 292 296 296 293 306 306 306 308 308 309 310 313 315 318 319 320 320 322 325 328 329 330 331 330 328 328 328 329 325 322 320 318 316 314 311 309 307 305 303 303 301 301 302 300 299

GFSSGP_sfc_thetae_042.txt.gz
Theta_e
317 313 313 307 293 288 284 289 293 295 300 311 314 311 314 316 313 305 328 330 332 335 345 344 344 347 346 345 345 344 344 346 347 347 346 348 345 345 344 342 341 340 340 340 340 339 339 338 338
314 312 307 298 287 281 284 291 292 296 308 312 316 316 314 311 321 324 327 329 328 334 340 341 342 345 345 344 344 343 345 346 347 347 346 347 345 344 343 341 340 339 339 338 338 338 335 333 335
313 311 298 291 284 283 285 292 299 306 312 313 315 317 317 313 321 323 328 335 331 327 332 340 342 342 344 344 343 342 344 345 345 346 347 347 345 344 343 340 340 339 338 336 337 335 332 332 334
308 302 297 288 286 290 292 295 303 308 311 312 312 309 316 328 325 330 327 335 333 334 338 341 341 343 343 342 342 343 343 343 343 345 346 347 345 344 342 340 339 338 336 335 333 331 331 332 335
305 296 288 286 289 294 299 304 308 307 309 309 313 309 314 325 329 332 326 330 332 334 337 340 339 340 342 340 343 343 342 343 343 344 345 345 344 343 341 339 338 337 335 331 330 330 332 331 334
298 294 286 284 290 296 303 304 309 309 310 309 308 311 315 326 326 330 329 327 329 331 336 339 341 341 340 339 342 341 342 343 343 344 344 345 343 341 340 338 338 337 335 333 332 331 331 329 331
294 291 286 288 290 295 302 306 310 310 311 309 312 308 312 320 325 330 326 328 330 333 333 332 332 334 337 334 339 339 340 341 342 342 343 343 340 340 339 338 337 335 334 332 330 329 329 329 328
296 293 287 289 290 294 303 306 311 310 308 317 314 308 309 321 325 328 328 328 330 330 330 330 333 332 327 329 337 338 338 338 338 339 339 338 338 338 338 336 335 334 332 331 329 328 328 328 327
297 289 286 289 292 295 305 303 308 313 310 315 317 319 320 324 325 325 325 325 327 329 329 329 329 330 329 331 337 338 338 336 336 336 336 333 333 332 330 333 333 332 330 329 328 327 325 321 324
294 287 290 296 297 296 302 308 309 309 308 312 314 320 322 324 322 321 321 320 322 325 327 327 325 327 328 332 333 332 332 329 327 326 325 326 326 329 329 330 331 329 329 328 327 325 322 317 309
293 291 297 299 302 300 308 309 310 304 302 308 310 317 321 320 320 319 318 322 322 322 324 325 324 326 325 327 328 326 325 323 323 323 325 325 327 328 325 325 323 323 325 319 318 313 312 311 309
292 299 299 299 302 301 305 310 309 308 307 312 315 320 320 318 318 317 316 315 316 319 320 323 323 323 324 325 326 325 323 324 324 323 324 324 322 320 320 321 319 316 313 312 312 312 312 310 308
297 298 300 302 302 308 313 311 312 312 314 317 319 320 319 318 317 317 317 315 315 314 316 318 320 321 321 322 321 323 324 325 325 324 324 322 319 318 317 317 315 312 311 310 313 312 311 309 308
301 301 300 301 300 311 311 312 311 314 316 314 318 317 317 316 316 315 315 314 313 314 315 316 317 318 320 320 321 321 321 322 325 324 324 322 320 318 317 317 313 312 313 311 314 311 310 307 305
302 297 298 299 299 304 306 300 305 315 316 314 314 315 313 315 315 314 314 312 314 315 316 315 315 318 318 319 320 320 321 321 320 320 322 322 321 320 320 319 316 315 315 315 313 312 310 307 306
297 295 290 296 302 303 300 294 304 315 315 311 311 313 313 312 313 315 314 313 314 315 315 316 318 317 317 318 318 319 318 317 316 315 321 322 322 323 321 322 319 318 316 316 313 311 307 306 304
292 287 290 293 301 303 299 296 302 312 314 310 310 310 311 311 311 313 314 313 314 314 314 314 316 316 316 317 318 319 316 313 313 313 317 320 321 322 321 319 319 318 315 312 312 308 308 304 302
288 288 287 290 299 301 299 297 303 308 312 308 307 304 311 311 310 312 313 312 313 313 314 314 315 315 316 317 317 317 314 311 313 311 314 319 321 322 322 319 320 317 314 311 310 308 307 305 303
294 292 290 294 301 301 299 298 300 306 310 307 305 305 307 311 312 312 311 311 312 311 311 312 313 314 314 314 315 313 311 309 311 312 316 321 321 324 321 319 319 316 315 314 311 308 305 302 302
295 292 292 295 300 299 298 298 298 304 307 310 307 307 309 311 311 311 310 309 309 309 311 311 312 312 313 314 314 312 312 310 312 314 317 323 324 324 322 320 319 316 314 312 310 307 302 301 300
294 293 293 292 297 296 298 295 298 303 307 309 312 309 312 311 310 310 310 309 308 308 309 311 312 311 312 313 311 308 310 312 312 314 316 320 324 324 324 320 318 316 315 313 310 306 304 301 300
292 299 296 294 292 287 294 284 297 300 302 305 308 308 311 311 312 311 310 309 308 308 310 311 312 311 312 312 310 309 310 309 313 316 317 319 323 323 322 321 319 316 315 312 311 307 304 304 302
295 300 296 296 292 289 290 286 290 300 300 302 306 307 309 310 311 311 311 310 310 309 308 309 311 311 312 313 311 310 309 312 316 312 314 318 320 322 320 320 319 316 315 314 312 306 305 307 306
301 297 296 295 291 284 289 288 287 295 300 303 307 307 309 311 312 313 314 313 310 310 309 309 309 310 315 313 314 313 313 315 317 313 314 317 320 321 321 321 320 318 317 315 312 309 306 306 305
296 291 285 283 283 282 293 290 291 296 302 305 307 307 308 312 312 312 313 312 311 310 310 311 312 312 316 317 315 315 317 318 317 315 315 316 318 317 319 322 320 318 315 314 312 309 308 305 305
294 292 284 280 279 284 293 287 292 301 302 306 310 310 311 309 312 312 313 314 314 312 312 313 314 315 316 317 317 317 318 319 319 318 315 320 321 321 322 322 320 318 312 310 311 308 307 305 305
294 289 295 288 289 284 288 293 297 301 301 301 303 309 310 310 310 312 314 314 315 316 314 314 315 317 318 318 318 318 319 320 320 318 317 319 322 322 320 318 316 313 312 310 308 307 305 305 305
296 298 288 288 281 280 286 288 289 296 299 299 298 305 307 308 311 311 313 315 316 317 318 318 317 317 318 319 320 320 320 321 322 319 319 319 315 316 315 313 312 309 309 307 307 306 304 304 304
293 291 293 292 289 282 281 285 296 298 300 300 301 302 306 306 307 310 312 315 317 318 318 318 318 319 319 320 321 320 321 321 321 319 319 317 317 316 314 311 309 308 307 306 305 304 304 303 302
296 294 294 287 286 287 284 288 299 299 300 301 300 301 302 304 305 309 310 312 314 315 317 319 319 320 321 322 322 321 320 319 320 320 319 318 318 318 315 312 312 308 306 305 303 302 303 302 301

GFSSGP_sfc_thetae_045.txt.gz
Theta_e
317 317 311 304 291 288 284 287 292 293 294 310 315 315 312 312 313 303 328 330 337 341 343 343 344 345 344 344 345 346 347 347 348 347 346 346 345 344 342 341 342 343 343 340 340 340 339 338 339
311 310 304 295 286 281 284 290 294 303 308 312 316 315 312 310 320 324 326 328 330 341 339 341 343 343 342 342 342 345 347 347 348 346 346 345 344 343 341 340 341 343 343 340 339 338 338 338 337
310 306 297 290 283 282 284 290 298 305 310 312 312 315 315 313 320 322 326 330 331 332 339 338 342 340 339 339 340 345 345 345 346 345 345 344 344 342 340 338 340 342 340 337 334 332 332 337 338
306 301 295 288 284 289 291 294 302 306 309 309 310 306 316 325 322 328 327 333 334 329 332 338 340 340 339 338 338 344 344 343 345 344 344 344 343 342 340 338 339 341 338 333 331 334 335 336 334
302 294 287 284 287 291 294 299 307 306 307 308 311 308 312 325 328 331 327 332 330 330 330 335 338 339 339 337 338 343 343 343 343 343 342 342 342 341 338 337 338 338 335 331 334 338 336 334 333
296 293 286 284 288 294 296 302 308 308 309 308 308 310 315 324 325 330 328 326 332 330 334 335 338 338 337 334 335 340 342 342 342 342 342 342 340 339 338 337 336 335 333 332 333 335 334 333 331
293 290 285 286 289 291 299 304 307 308 309 308 312 307 312 319 325 328 326 328 331 332 336 335 335 336 334 329 329 335 341 340 340 341 340 340 338 337 337 335 334 332 331 330 330 330 332 332 331
295 292 286 288 288 289 301 304 309 308 305 317 313 306 306 320 326 328 328 330 330 330 330 331 331 332 331 331 331 335 339 340 340 341 339 337 337 336 335 333 332 331 330 330 329 329 331 332 329
294 288 284 287 289 293 303 302 308 311 309 314 317 318 320 324 326 325 324 326 327 328 327 328 330 330 323 324 327 334 339 340 339 338 337 333 332 330 326 331 331 330 328 328 327 326 329 329 328
292 286 289 293 294 294 301 306 308 308 307 311 312 319 323 323 323 322 320 321 324 323 323 326 325 325 323 323 326 330 335 335 334 334 330 328 326 325 326 327 329 329 328 327 326 324 322 318 316
292 290 294 297 298 300 305 306 308 303 300 307 308 313 320 320 319 319 319 321 321 324 322 323 324 324 323 324 326 326 325 326 328 328 327 325 326 325 324 321 320 319 321 314 312 312 310 307 308
291 296 296 297 298 306 305 307 308 306 305 309 312 317 316 317 317 317 316 317 319 322 321 322 325 325 323 323 323 325 325 324 325 325 324 324 323 319 319 318 317 315 313 310 310 310 308 306 307
294 297 300 299 300 304 311 309 309 307 311 314 316 318 316 316 317 317 315 315 317 318 321 322 321 320 324 323 323 322 323 323 324 323 323 321 320 318 316 315 313 311 309 309 310 308 308 306 306
299 299 299 299 306 311 308 308 308 312 314 312 316 315 317 317 315 315 314 314 314 317 319 321 321 321 322 322 322 322 323 323 323 320 319 318 318 317 315 313 311 310 308 311 310 308 306 304 304
300 295 296 297 299 306 307 300 305 313 313 312 313 316 316 315 316 315 315 314 315 315 317 319 319 321 321 320 321 320 323 323 323 322 320 318 318 316 316 313 311 311 309 311 309 308 305 303 303
294 293 289 294 301 301 298 294 302 313 312 310 310 312 312 312 313 315 315 315 315 315 315 317 320 320 319 318 320 319 320 320 319 322 321 319 319 318 317 315 313 312 312 313 311 309 305 304 302
290 285 288 293 298 300 298 295 300 312 313 309 309 309 309 309 311 313 314 314 315 315 315 316 317 318 318 318 319 318 316 315 315 318 321 321 320 320 318 318 316 315 314 313 312 308 306 303 301
285 287 286 288 293 299 296 297 300 311 312 309 306 307 309 308 310 311 314 314 315 315 315 315 316 316 317 317 317 317 315 312 312 313 318 319 319 321 319 318 318 317 315 312 310 307 305 303 301
292 289 288 291 295 297 297 297 298 304 308 305 305 304 307 309 310 311 313 313 313 313 314 314 315 315 316 315 315 314 312 312 312 313 316 316 318 320 318 317 317 315 314 312 311 306 305 302 301
292 289 289 293 296 296 295 295 298 303 308 308 305 305 304 309 308 309 309 310 309 311 312 313 314 315 315 316 315 315 311 311 311 312 312 317 319 319 319 318 317 315 312 310 309 307 302 301 300
292 290 290 291 294 295 295 292 296 300 305 309 310 308 307 308 309 309 309 308 307 307 309 311 313 314 315 315 311 309 311 311 309 309 310 313 318 320 320 318 318 315 313 311 309 306 304 300 299
288 295 295 293 290 286 294 284 290 298 300 305 307 308 307 309 311 310 309 308 306 307 309 311 312 313 313 311 309 309 309 308 309 308 310 312 317 320 322 320 318 316 314 311 311 308 304 303 299
292 297 295 294 289 288 288 285 288 298 297 301 304 307 308 310 311 310 309 310 308 308 308 310 311 311 312 311 310 308 307 309 309 310 311 312 315 319 320 320 318 317 315 313 312 309 309 305 304
299 295 294 292 289 283 288 286 285 292 297 300 304 306 307 310 311 313 312 311 309 308 308 309 310 311 311 311 310 309 308 307 309 311 312 313 313 316 318 318 318 317 315 313 314 313 309 307 306
294 289 282 281 281 282 290 288 289 294 299 302 303 305 307 310 310 311 310 310 309 307 307 308 309 309 311 311 311 310 309 308 309 312 313 313 313 313 317 317 316 316 317 316 314 312 310 308 306
292 290 283 279 279 282 291 286 290 298 300 301 305 306 307 308 310 311 312 311 310 309 307 308 308 308 310 311 311 312 312 311 311 312 314 314 314 316 316 318 319 320 318 314 313 313 311 309 307
292 288 293 286 286 282 286 290 295 299 299 299 301 305 305 307 310 311 312 313 312 310 309 307 308 308 309 309 313 312 313 312 313 314 315 315 316 318 317 317 319 320 318 316 313 312 309 308 307
294 295 286 286 280 279 284 286 287 292 296 298 298 300 304 308 309 311 312 313 314 313 311 311 309 309 310 310 312 314 314 315 315 316 316 315 315 316 315 315 315 315 314 313 312 310 308 307 306
291 289 290 290 286 282 280 283 294 295 297 298 298 300 304 305 308 310 312 314 315 315 313 311 311 311 311 313 314 315 316 316 317 318 319 316 315 316 316 316 314 312 312 308 308 306 304 305 304
293 291 291 286 284 285 282 287 297 297 298 299 299 301 299 304 306 310 310 313 314 314 315 314 313 313 314 316 317 317 318 319 319 319 319 318 318 318 316 315 312 310 308 307 307 304 304 304 303

GFSSGP_sfc_thetae_048.txt.gz
Theta_e
315 316 309 301 290 287 283 287 290 292 294 311 316 312 310 311 308 299 325 330 337 341 342 339 345 346 346 345 346 346 346 348 348 347 347 346 346 344 343 343 343 343 343 340 340 339 339 338 336
309 310 302 293 285 281 284 288 290 299 307 310 314 314 311 310 320 322 322 328 334 341 340 340 344 345 345 345 346 346 348 348 347 346 346 345 344 343 344 343 342 343 343 340 341 341 339 337 337
308 304 295 288 282 282 284 289 292 303 309 310 311 313 313 311 319 321 325 329 334 339 338 340 342 341 343 344 345 346 347 346 346 346 345 345 344 344 343 342 342 343 342 340 340 340 338 337 336
305 299 294 288 284 288 290 292 294 304 306 309 308 305 315 322 320 326 326 331 331 332 337 340 339 340 340 341 343 344 345 344 344 344 344 343 342 343 343 341 341 341 337 335 335 337 338 336 334
299 293 286 284 285 290 292 294 301 304 306 306 308 306 309 324 327 329 325 331 329 330 334 337 338 338 339 339 339 341 343 343 343 343 342 341 341 341 341 340 338 336 336 336 338 337 336 334 333
294 292 285 283 286 292 294 298 306 306 307 307 305 307 313 325 324 327 328 328 331 329 330 334 338 338 337 334 334 337 338 341 341 341 341 340 339 339 339 337 335 336 339 339 338 336 334 333 332
292 289 285 284 288 290 296 304 304 306 307 307 311 305 311 318 322 328 327 327 332 331 328 328 333 336 335 332 332 333 337 339 340 340 340 339 337 337 337 334 334 335 337 336 335 333 332 332 330
293 291 286 286 287 289 295 303 308 307 304 316 311 304 304 315 325 328 328 330 330 330 332 329 332 331 329 329 329 330 334 336 339 339 339 337 336 335 332 331 331 332 332 334 334 332 332 331 329
293 287 284 286 287 291 301 301 305 309 308 313 315 316 318 323 326 325 325 326 327 327 328 332 331 326 324 324 327 329 329 336 338 338 337 332 328 326 323 328 330 329 328 330 332 332 330 329 328
291 287 288 292 292 294 298 303 306 307 306 309 309 319 321 323 323 322 321 322 322 322 325 327 329 327 325 327 323 322 326 332 336 335 331 328 325 322 323 327 327 327 327 328 331 331 329 324 321
290 289 293 295 296 295 296 303 308 303 300 305 307 313 319 320 320 320 321 321 321 322 322 323 323 322 323 324 325 325 327 329 331 329 328 324 323 323 320 320 319 318 319 315 318 316 314 313 315
290 294 294 296 296 296 302 306 303 302 304 307 310 315 317 317 318 318 318 319 320 320 321 322 320 319 321 323 325 324 325 325 327 326 325 323 322 319 317 315 313 310 309 309 309 308 308 310 312
292 295 298 298 298 298 308 306 307 307 308 312 315 316 314 316 317 317 317 319 321 319 321 323 321 320 319 320 322 323 323 324 325 324 324 321 320 318 315 313 311 309 309 310 307 306 306 307 308
297 297 297 297 297 308 306 306 306 309 312 311 314 315 313 315 315 315 315 315 317 320 320 322 322 321 321 320 321 321 323 324 324 323 320 321 318 316 314 311 310 308 309 310 308 307 305 305 307
298 294 295 295 295 303 307 299 303 310 311 310 311 314 315 316 316 314 316 314 316 317 321 320 320 323 321 321 322 322 323 322 323 321 318 318 318 315 314 311 309 308 309 310 308 306 304 302 305
293 292 287 292 298 300 301 292 297 310 310 308 311 312 313 314 313 313 314 315 316 316 318 321 322 321 321 321 320 321 322 322 323 320 319 318 317 316 313 312 310 309 309 311 309 307 303 302 302
288 284 286 290 295 297 295 294 299 309 311 308 308 310 310 311 311 313 313 315 315 316 316 318 320 320 319 319 319 318 317 321 319 320 319 318 317 317 315 313 312 311 311 312 310 307 306 303 301
285 285 285 287 290 296 294 295 298 309 309 309 306 306 308 309 310 312 312 314 316 315 316 318 319 319 318 319 318 316 315 312 317 318 320 320 319 319 317 316 314 314 312 312 311 307 306 305 302
289 287 286 288 292 292 291 292 296 305 308 306 306 305 306 307 310 313 313 314 314 314 315 316 316 318 318 317 315 315 315 312 311 313 317 320 320 320 319 318 317 316 313 312 310 306 305 302 301
290 287 287 291 294 292 290 293 295 301 305 308 307 305 305 307 309 311 311 312 312 313 314 314 315 316 317 318 318 315 316 312 311 312 315 318 319 320 320 316 316 314 312 310 308 307 303 303 301
289 287 288 289 291 292 292 291 294 299 302 308 308 307 306 306 306 309 310 309 311 311 313 313 315 315 317 318 316 311 312 311 310 310 312 314 317 318 318 317 316 315 313 310 308 306 304 301 300
287 293 292 291 288 284 291 283 290 293 298 302 306 307 306 305 309 309 309 309 309 310 312 313 314 315 315 316 314 313 313 313 313 310 310 312 315 315 317 318 316 315 313 311 310 308 304 302 300
291 294 292 292 288 285 287 284 288 296 295 298 301 306 308 307 308 309 308 309 309 309 309 309 312 314 315 313 313 311 310 312 310 307 308 309 311 314 316 317 316 314 314 313 311 308 305 304 303
297 293 292 290 287 281 287 285 285 289 295 297 301 303 306 308 308 310 311 310 307 307 307 308 309 310 312 311 310 310 310 309 308 307 308 309 310 311 314 316 316 315 314 313 312 310 308 309 308
293 288 282 280 280 280 288 284 288 293 295 299 299 301 304 308 308 309 308 308 307 305 306 307 309 309 311 310 310 309 310 309 309 309 309 309 309 310 311 313 313 313 314 314 312 311 311 310 309
290 289 282 279 278 281 288 284 290 297 298 299 301 302 303 304 308 310 309 309 308 307 307 307 308 309 310 310 310 310 309 309 309 308 309 309 310 310 311 313 314 314 314 313 312 311 313 311 310
291 286 292 285 284 281 284 288 294 297 297 298 299 300 301 303 307 309 311 310 309 308 307 307 308 308 309 310 310 310 310 309 309 309 308 310 311 313 313 314 313 313 314 314 313 313 312 312 311
293 294 286 284 280 279 282 284 286 291 295 297 296 298 301 303 306 309 310 311 311 310 309 308 309 308 309 310 310 310 310 310 310 309 310 312 313 313 314 314 315 316 317 316 316 316 316 314 312
289 288 288 288 284 280 278 282 292 294 295 296 298 298 298 303 304 308 310 312 313 312 310 308 308 309 308 309 310 310 311 311 311 312 314 315 315 315 314 315 316 316 316 316 315 314 309 309 310
291 289 290 283 283 284 280 284 295 296 296 297 298 300 300 302 305 307 310 311 311 313 312 310 309 308 309 309 309 311 312 314 313 313 315 315 314 316 316 316 316 317 316 312 310 308 308 308 306

GFSSGP_sfc_thetae_051.txt.gz
Theta_e
322 320 316 308 299 298 294 295 297 297 304 314 319 317 312 316 312 306 331 332 337 334 343 344 345 347 348 348 349 349 350 350 350 348 348 348 347 346 345 343 343 343 342 339 339 338 338 338 337
315 313 309 302 296 293 295 295 296 299 311 314 314 316 315 312 323 326 329 331 335 339 344 345 345 344 346 347 346 347 349 349 348 348 347 347 345 345 344 343 342 342 342 339 339 338 337 337 337
312 307 305 298 293 293 294 296 299 302 312 313 314 317 317 315 321 326 329 333 335 341 343 344 344 344 346 346 346 347 347 346 346 346 346 345 345 345 344 343 342 342 342 340 339 338 337 336 336
310 308 301 297 293 295 297 299 300 302 310 312 313 309 318 326 323 330 331 334 333 337 342 342 342 343 345 346 346 346 345 344 344 344 345 344 345 345 344 342 342 343 342 341 339 337 336 336 334
306 302 296 294 293 296 298 300 300 304 309 310 313 309 312 326 330 332 333 333 331 336 343 341 339 340 344 346 346 345 344 343 343 343 342 343 344 343 342 341 341 341 341 340 339 335 335 334 333
303 301 295 293 293 297 300 301 307 308 310 310 309 309 315 327 326 329 332 332 337 331 338 341 340 339 340 342 342 342 342 342 342 341 341 342 342 341 340 339 338 337 339 340 338 336 334 332 331
301 298 294 293 294 295 299 308 308 308 309 310 312 307 314 321 327 329 330 332 334 333 331 336 338 336 335 336 337 338 339 340 340 339 339 339 339 339 337 337 339 339 339 337 336 334 333 332 330
301 300 293 294 294 295 300 307 311 311 309 317 314 308 309 320 327 329 331 330 331 333 332 332 333 336 332 333 332 335 337 336 336 338 337 336 337 336 335 336 339 339 337 336 334 333 332 331 329
301 297 293 294 294 297 303 305 310 314 312 315 317 318 320 323 327 327 326 328 329 328 333 335 335 334 331 329 330 333 336 335 334 337 335 333 334 331 330 332 336 336 333 333 332 332 331 329 328
300 295 295 298 298 299 301 305 307 310 309 310 314 319 322 323 324 323 323 323 326 326 329 331 331 330 329 327 327 331 333 332 332 337 336 333 332 329 327 330 331 332 332 332 332 330 329 326 325
298 296 298 299 300 300 299 303 311 309 306 309 312 315 320 321 321 322 322 323 323 325 325 326 326 326 325 325 325 324 328 329 330 335 333 330 328 329 327 327 327 330 331 330 328 327 325 325 324
296 298 299 300 301 301 299 309 308 309 309 311 314 318 320 319 319 319 320 321 320 321 322 324 326 325 324 324 322 324 327 328 327 334 329 326 326 325 324 323 322 322 326 329 326 323 325 324 323
296 298 299 302 301 301 309 308 309 309 313 316 318 318 316 318 318 319 320 323 322 320 321 320 321 322 323 321 323 324 325 326 328 330 327 325 324 324 321 321 319 319 321 322 322 322 321 321 322
301 299 301 302 302 309 306 308 313 312 316 315 317 315 316 316 317 317 317 318 321 322 322 321 321 321 322 322 321 323 323 324 326 328 326 325 324 322 319 318 318 318 318 319 320 320 320 320 320
301 298 300 300 301 305 311 305 307 314 315 314 315 314 315 316 318 317 317 317 318 321 322 321 322 321 321 321 321 323 323 325 326 325 325 325 324 322 321 318 317 319 318 317 316 316 318 318 318
298 297 294 298 302 304 307 297 303 314 314 313 314 314 314 315 316 316 317 318 318 319 321 321 322 320 321 321 322 323 323 323 324 324 326 324 322 322 320 317 318 319 319 317 315 313 314 315 315
294 291 291 294 300 303 303 299 303 314 313 312 313 313 313 313 314 315 317 317 318 318 319 320 321 320 321 321 322 323 322 321 322 323 324 324 322 321 320 318 318 319 319 317 315 313 313 311 312
290 290 291 292 298 301 299 300 303 312 313 312 313 313 312 312 312 315 317 316 318 320 320 321 320 321 321 321 321 321 321 319 321 323 323 322 322 322 321 319 319 318 319 318 317 315 314 312 311
294 291 291 293 297 296 296 297 300 304 311 312 313 313 313 312 315 315 316 318 317 319 318 319 319 319 319 318 318 317 316 318 320 324 325 324 323 323 323 321 320 319 317 320 319 317 315 312 311
294 292 292 294 296 296 297 297 301 303 309 311 313 313 313 313 313 313 313 316 316 317 318 317 318 318 319 318 319 319 318 316 319 320 323 325 324 323 324 324 322 321 319 320 320 317 315 314 312
293 292 292 292 294 297 297 296 298 302 305 309 313 315 315 313 312 312 312 313 315 315 317 317 317 318 319 320 317 315 314 314 314 316 318 321 324 323 324 326 325 323 324 320 321 319 317 314 312
290 295 294 293 292 288 297 288 296 299 300 304 308 312 314 313 314 313 313 313 315 316 318 318 319 318 318 319 316 314 315 314 314 315 315 315 320 323 325 326 325 324 324 323 323 320 320 319 314
293 296 295 294 292 291 292 290 294 297 298 302 306 308 313 314 314 313 314 314 314 316 316 317 319 319 319 318 318 315 317 317 317 315 313 314 318 320 322 323 325 325 325 325 324 321 319 318 319
298 296 295 294 292 286 291 291 292 296 299 302 305 307 310 314 313 315 316 316 314 314 313 315 317 318 319 319 318 317 317 317 316 314 313 315 316 318 320 320 323 325 325 325 324 323 321 319 317
296 293 286 285 285 285 291 289 294 299 300 302 305 306 308 313 313 314 313 313 313 310 309 312 314 315 318 318 317 318 318 317 317 317 316 316 316 316 318 320 321 322 324 325 325 323 322 321 319
293 293 287 281 283 286 290 287 293 301 303 303 304 306 307 310 313 314 314 314 312 311 310 311 313 315 316 317 316 317 318 317 317 318 317 318 317 318 319 320 321 322 322 323 324 323 323 322 321
293 290 295 289 288 287 289 292 298 301 302 303 304 305 307 308 311 314 315 315 314 313 312 313 314 315 316 317 318 318 317 317 316 317 317 318 318 318 319 320 320 321 322 323 323 322 322 321 320
296 297 289 289 282 281 286 288 291 296 299 303 303 305 306 307 310 313 315 315 316 315 315 314 315 315 316 316 317 317 317 317 318 317 316 316 318 318 319 320 321 321 322 322 322 322 322 320 317
293 292 292 292 289 284 283 287 298 299 301 302 303 305 307 308 309 313 315 316 316 316 315 314 314 314 315 316 317 317 317 317 317 316 316 316 316 316 317 319 320 320 321 322 322 322 321 315 316
294 293 293 288 286 287 286 288 299 300 302 302 304 306 306 307 309 312 315 316 316 315 315 314 314 314 315 316 316 316 317 316 316 315 317 318 317 315 316 317 319 320 320 322 320 319 315 314 313

GFSSGP_sfc_thetae_054.txt.gz
Theta_e
322 324 325 317 304 304 301 300 305 303 306 313 321 318 314 318 313 309 337 340 343 344 346 346 347 347 351 351 350 350 351 351 350 350 350 350 349 349 348 346 345 346 345 342 340 339 338 339 338
322 320 318 313 301 297 300 303 302 306 309 317 320 318 317 314 325 329 334 339 342 341 345 344 346 346 350 350 350 350 351 350 349 349 349 348 347 346 345 344 343 343 343 340 339 339 337 337 338
318 317 310 306 302 298 300 304 305 307 310 315 314 321 319 318 325 331 335 338 339 342 343 342 345 346 347 349 349 349 348 348 347 348 348 347 346 346 344 342 341 342 341 338 338 339 337 337 337
314 313 311 301 299 302 302 306 307 306 312 315 315 312 321 328 327 334 336 338 337 343 344 344 342 345 346 347 347 348 347 346 345 345 346 346 346 345 344 341 342 343 342 339 337 337 336 335 335
317 312 301 300 300 303 306 307 307 306 310 313 316 312 316 328 333 335 336 336 339 336 345 345 341 343 343 343 347 346 345 344 344 344 344 345 345 344 343 341 342 342 342 338 336 336 334 334 334
308 309 299 297 300 304 307 308 308 308 311 313 313 314 316 330 330 333 335 337 342 337 345 345 343 341 340 342 342 343 342 342 343 342 343 344 343 342 342 341 341 340 339 338 337 336 334 333 332
306 303 299 299 300 302 304 311 309 309 311 312 317 312 318 323 330 334 333 337 340 337 335 343 343 341 339 338 339 340 340 340 340 341 342 341 340 340 340 339 339 340 339 337 336 334 333 332 331
309 305 299 300 300 301 305 309 311 311 309 320 319 311 313 324 329 333 334 335 337 339 332 336 337 340 341 340 335 338 338 338 339 340 338 338 338 337 338 338 340 340 337 336 335 333 332 330 330
310 300 298 299 301 302 306 306 312 317 313 318 320 319 324 326 328 329 331 332 334 333 335 334 330 331 336 335 335 337 337 337 337 337 336 334 336 335 334 334 337 337 334 333 333 332 331 330 329
305 301 300 304 305 304 307 306 308 310 310 314 317 323 325 324 325 326 326 327 329 328 330 334 328 333 334 333 330 332 334 338 335 332 333 336 336 333 331 336 336 334 333 332 332 331 329 326 325
305 300 304 304 306 307 307 307 309 309 307 313 314 319 323 323 323 325 326 327 328 329 328 334 331 332 330 327 327 329 331 330 329 329 329 334 333 330 335 337 335 335 331 329 329 327 326 325 324
300 304 304 305 306 307 306 309 309 311 312 316 318 320 322 321 323 324 325 326 326 326 328 329 332 331 330 328 328 328 330 329 328 328 329 334 330 331 331 331 332 332 330 329 328 326 327 326 325
302 304 305 306 306 307 308 308 309 311 316 318 320 321 321 322 322 324 324 327 326 323 326 329 328 327 326 324 325 327 328 327 328 328 330 329 328 329 328 329 331 330 331 330 327 327 326 325 324
305 305 305 306 307 307 306 307 313 311 319 319 320 319 321 319 321 322 322 321 325 323 323 323 326 326 326 322 324 326 326 326 327 327 328 327 327 327 323 324 324 326 329 329 326 325 324 322 323
305 301 304 305 306 305 309 304 309 313 319 318 319 319 319 321 321 321 321 323 322 325 324 323 322 323 322 323 323 324 325 325 326 326 329 327 325 325 325 321 322 323 325 325 324 324 323 321 321
301 302 298 304 305 306 309 299 306 314 317 316 318 318 318 319 320 321 322 321 321 323 322 323 324 323 323 322 323 322 324 324 325 327 326 324 322 324 324 321 321 322 323 322 322 322 321 320 320
300 295 297 300 304 304 307 301 307 314 315 314 317 318 318 319 320 321 321 322 321 321 322 321 322 322 322 323 323 322 323 323 324 327 324 324 322 322 322 320 322 324 322 322 320 319 320 318 318
295 295 298 297 301 303 303 303 306 310 313 314 316 318 318 318 318 321 320 322 322 322 322 322 322 322 323 322 323 322 321 321 323 323 325 325 323 323 323 321 323 325 323 322 321 319 319 318 317
299 297 296 299 301 300 300 301 305 308 311 313 316 318 318 318 321 321 322 319 321 322 321 320 319 320 321 319 320 320 318 318 320 321 325 327 323 324 324 322 323 324 324 324 324 321 318 316 318
297 295 296 299 300 299 299 300 305 307 310 314 315 317 318 319 319 320 321 321 319 322 321 321 320 321 320 320 320 320 319 318 319 320 323 326 327 324 324 324 323 323 324 325 325 323 319 319 318
297 295 296 296 298 301 300 298 302 306 310 312 315 317 319 320 319 319 320 321 322 322 320 320 320 320 320 320 321 320 319 318 317 318 322 325 328 325 325 325 325 324 324 323 325 325 323 320 320
294 299 298 297 295 291 300 291 300 304 305 308 311 316 318 320 321 320 320 321 321 323 324 322 321 320 320 320 319 317 314 314 317 318 322 324 327 326 325 325 326 327 325 324 325 325 325 324 320
296 300 298 298 296 295 295 293 297 302 301 304 307 312 318 320 321 320 321 322 323 323 323 322 321 321 320 320 319 317 316 316 317 317 319 323 326 326 325 326 328 328 329 328 328 327 327 326 326
300 298 298 298 296 289 294 294 294 299 302 304 307 310 315 318 321 322 323 323 323 323 323 321 320 320 320 319 319 317 317 317 318 316 315 316 319 324 327 326 329 330 329 329 330 330 329 327 326
299 295 289 288 288 287 296 294 296 302 305 306 307 309 313 318 320 321 321 322 322 322 322 322 320 318 321 320 320 321 320 321 321 318 317 317 316 317 319 324 325 325 326 328 329 329 329 328 326
296 296 290 283 286 289 296 291 297 305 307 309 309 310 312 316 320 320 322 323 322 322 322 320 321 321 321 321 321 324 323 324 322 322 321 320 320 321 321 323 324 324 324 325 326 325 326 327 327
296 293 298 292 293 291 294 297 302 305 305 307 308 310 311 314 318 319 321 323 324 323 322 319 320 321 322 323 324 324 325 325 324 324 325 323 324 323 325 324 323 323 323 324 325 325 324 326 328
299 301 292 293 285 284 290 293 295 299 302 305 306 308 310 313 314 317 320 322 324 324 323 321 321 321 322 323 324 324 325 326 326 326 325 325 326 326 325 324 324 324 325 325 324 325 325 325 327
296 295 296 296 294 287 286 292 302 302 304 305 307 308 311 313 315 317 320 322 324 324 324 322 321 321 321 323 324 324 325 325 326 326 326 325 326 325 324 325 324 324 325 325 325 325 325 325 325
300 297 297 291 290 293 292 293 304 303 304 305 307 308 311 313 314 316 320 322 322 323 323 323 323 322 322 322 323 324 324 324 324 325 325 327 326 325 325 325 324 323 324 325 324 323 323 323 323

GFSSGP_sfc_thetae_057.txt.gz
Theta_e
322 323 325 318 306 305 302 303 307 305 306 313 316 313 313 315 310 309 338 343 345 345 348 346 347 349 351 351 350 350 351 351 350 350 350 350 349 349 348 347 346 347 346 342 342 343 342 341 340
322 321 320 314 301 300 303 306 304 307 310 314 315 315 313 312 322 325 334 342 343 344 347 346 347 347 350 350 349 349 350 350 350 349 349 349 348 348 347 346 345 345 344 340 340 341 340 338 338
323 319 311 306 303 299 301 306 307 308 311 312 312 318 316 314 325 330 339 341 343 345 346 346 346 346 348 349 349 349 349 348 349 348 350 349 348 347 346 344 344 344 343 339 338 339 338 337 338
317 314 311 302 300 305 304 307 308 308 311 313 314 311 320 328 328 335 339 339 343 345 344 342 344 346 348 349 349 349 347 346 345 346 348 348 347 345 344 342 342 343 342 339 339 337 336 336 336
316 312 304 302 302 306 308 309 309 307 308 312 314 312 315 330 334 336 337 338 340 345 346 344 342 344 345 347 347 346 345 344 344 346 345 345 344 344 342 341 340 341 340 340 337 336 334 335 334
309 309 301 299 302 306 308 310 309 308 310 312 313 313 315 333 331 336 337 339 340 344 348 345 343 342 342 343 341 341 341 342 343 343 344 344 343 341 341 341 341 339 338 338 337 335 334 334 333
307 306 301 302 302 304 307 312 309 309 309 311 319 310 317 325 331 335 336 339 341 344 346 347 346 343 339 338 338 338 341 342 342 342 342 341 340 339 340 341 340 338 337 337 335 335 334 332 331
310 307 302 303 301 302 309 310 311 310 309 320 318 309 312 329 331 334 335 335 336 341 341 343 343 343 341 342 336 336 337 338 340 340 340 339 339 339 339 338 339 338 337 336 335 334 333 331 330
313 302 300 302 302 304 309 306 312 315 312 315 319 319 324 329 330 329 331 331 334 338 338 334 339 340 340 341 337 336 336 337 338 340 337 335 338 339 337 336 337 336 334 334 334 333 331 329 329
306 301 302 307 307 306 307 308 309 309 310 312 315 321 327 327 326 325 325 326 331 333 336 335 333 337 337 337 333 335 334 335 336 339 339 334 335 336 334 336 335 334 333 332 332 331 329 326 323
307 301 307 307 307 309 308 308 311 308 307 312 313 316 324 325 324 325 324 327 329 332 335 331 331 331 335 331 334 331 339 337 334 331 329 329 334 334 336 336 336 333 330 328 327 326 323 323 322
303 306 307 307 308 307 307 310 308 310 311 317 318 320 322 322 323 324 325 327 329 330 331 332 329 331 332 332 332 331 329 329 328 328 328 329 330 332 335 332 333 330 327 327 324 323 327 325 324
304 305 307 308 307 308 309 307 308 309 314 319 319 321 321 320 322 325 327 327 328 327 330 329 330 332 331 329 330 329 329 328 327 326 327 328 330 330 333 332 331 329 330 327 325 326 325 324 325
306 307 306 308 307 308 306 307 308 311 315 317 319 321 321 321 321 324 326 326 326 326 324 326 327 328 328 327 327 327 328 327 326 324 325 327 330 329 331 331 331 330 330 328 326 326 324 323 324
307 303 305 306 307 306 308 303 305 311 314 316 319 321 321 322 322 322 324 326 327 327 327 324 325 327 324 324 325 327 327 327 324 324 326 329 329 330 333 331 330 330 331 329 327 326 324 321 323
303 303 298 305 306 307 306 299 307 313 314 314 317 320 321 321 321 323 324 326 327 326 325 325 324 324 323 324 325 325 325 325 324 325 327 328 327 329 330 326 326 326 328 326 324 322 321 321 321
302 296 298 302 308 306 305 302 307 314 313 312 315 319 320 321 321 323 323 325 327 325 323 324 325 324 323 324 323 324 324 324 324 325 326 327 326 325 326 322 325 326 325 324 322 322 322 319 319
297 298 300 300 305 304 302 303 307 311 312 312 315 318 320 320 321 323 323 324 327 326 324 325 324 322 323 322 322 322 322 323 324 324 325 324 322 323 325 324 328 324 322 321 321 323 322 321 319
301 301 300 303 305 302 302 302 306 309 310 310 314 316 319 320 323 323 324 324 326 325 324 323 322 322 322 320 319 319 318 320 321 323 323 324 323 323 324 322 326 325 323 323 325 321 320 318 320
299 299 299 302 303 301 301 301 305 307 309 310 313 316 318 320 321 322 324 323 325 323 324 322 321 321 322 322 322 321 319 319 320 321 325 326 327 323 323 324 322 324 324 327 326 325 319 317 318
299 298 298 298 302 303 300 298 302 306 309 310 313 315 317 320 320 322 322 323 323 324 323 321 320 321 322 322 324 322 322 319 317 317 319 323 327 323 323 325 325 325 327 327 328 326 324 318 320
296 302 300 299 298 294 302 291 300 304 306 308 310 312 315 318 322 322 322 324 323 324 325 323 321 321 323 322 320 319 317 315 316 316 317 321 326 325 322 325 328 329 326 328 329 327 327 326 320
298 303 301 299 298 297 297 294 299 304 303 306 309 311 315 318 321 322 323 324 325 326 325 325 321 321 321 322 320 319 319 319 317 316 316 322 325 323 324 327 329 329 328 329 329 329 329 327 325
303 300 300 300 298 291 296 295 296 300 303 306 309 310 313 317 320 323 325 325 325 326 326 324 323 320 320 322 321 320 318 317 316 315 315 321 323 326 325 326 328 329 330 330 329 330 330 329 328
300 297 290 289 290 288 298 295 297 304 306 307 307 309 313 316 318 322 323 323 325 325 325 324 321 321 320 320 319 321 322 318 319 319 317 315 319 321 325 327 326 328 329 330 326 328 330 330 328
297 297 291 284 287 291 298 292 297 306 308 309 310 311 312 315 319 321 323 324 324 325 325 324 322 321 321 320 320 322 323 321 322 321 321 321 318 321 324 328 329 329 330 330 329 329 328 326 327
297 294 299 293 295 292 295 299 304 306 306 307 308 309 311 314 318 320 322 325 326 326 325 325 323 323 323 321 321 320 321 321 322 324 325 323 323 323 325 327 328 329 329 329 329 328 328 328 329
298 301 292 294 286 284 292 295 296 301 303 306 307 309 310 313 315 318 321 324 326 327 327 326 325 323 323 324 323 322 322 322 325 325 326 326 325 325 325 325 326 326 327 327 327 326 327 326 326
295 294 297 297 294 288 287 292 304 303 304 305 308 310 312 313 314 316 319 322 325 327 327 326 325 323 323 325 326 325 326 325 325 326 328 328 328 326 325 325 325 324 325 326 325 325 325 324 325
299 297 297 292 291 294 294 293 306 306 305 306 307 309 311 313 314 315 318 322 324 325 327 326 325 324 323 325 327 328 329 329 327 327 329 330 329 329 327 325 325 325 324 325 325 324 323 323 323

GFSSGP_sfc_thetae_060.txt.gz
Theta_e
322 318 319 318 303 303 299 302 307 304 305 311 314 312 310 311 308 309 338 342 345 345 347 348 350 351 352 351 350 350 351 351 350 351 350 350 349 348 348 348 347 347 348 346 345 344 343 343 343
318 317 317 311 300 296 299 306 304 306 310 313 312 312 310 310 323 325 335 341 342 343 346 347 348 351 351 350 349 350 351 350 350 350 350 349 349 349 348 346 345 346 346 344 344 343 341 341 342
319 320 309 305 301 297 299 306 306 309 310 310 310 315 315 313 325 328 338 341 342 343 347 345 346 347 350 349 349 348 348 348 348 349 350 349 349 348 346 345 344 344 344 343 343 341 339 339 338
317 314 309 299 297 303 304 307 308 308 310 312 312 309 319 326 326 335 339 339 343 344 347 342 344 345 347 348 348 347 346 346 346 347 348 348 348 347 345 344 343 343 342 341 340 339 337 337 336
314 309 300 299 301 304 308 309 309 307 308 309 312 310 313 328 334 335 337 338 343 345 348 344 342 344 346 347 347 347 346 345 345 346 346 346 346 345 344 342 342 342 341 340 338 336 336 336 335
306 307 298 297 300 305 308 310 309 308 309 309 310 311 315 332 331 335 338 338 346 346 348 347 343 343 342 344 343 342 341 343 344 344 345 345 343 342 341 341 340 341 340 338 337 336 335 335 334
305 302 298 299 301 303 307 311 308 308 308 309 317 309 315 326 331 335 337 338 342 345 344 347 345 343 338 338 337 335 333 329 341 343 342 342 340 340 340 341 340 340 338 337 336 335 334 333 331
307 304 299 301 300 301 308 310 311 309 307 318 317 307 310 328 332 335 336 335 337 342 344 342 343 342 338 338 335 332 332 325 325 341 340 338 338 339 339 338 339 338 337 336 335 334 333 331 329
310 300 298 300 301 304 309 307 311 312 311 312 316 316 324 330 329 330 330 332 333 338 338 339 340 341 339 334 335 332 333 324 334 339 338 334 336 336 337 336 336 336 334 334 334 333 331 329 327
304 300 300 305 306 305 308 307 308 307 309 310 312 319 327 328 326 324 324 327 331 333 336 335 337 337 334 333 333 330 329 329 335 336 335 335 335 334 335 334 334 334 333 333 332 330 328 325 319
304 300 304 306 308 308 307 307 310 307 305 309 313 314 326 326 325 326 324 326 330 333 335 335 334 335 333 331 332 330 331 331 333 333 333 332 332 333 332 332 331 330 331 327 327 324 320 317 318
301 305 305 306 308 307 305 308 306 308 309 313 316 318 319 322 324 325 324 328 328 330 331 333 334 332 332 333 331 329 328 331 328 327 328 330 329 329 331 330 328 325 324 322 321 319 319 318 319
302 303 306 307 307 307 307 305 306 307 311 314 318 319 319 321 320 324 325 327 328 327 331 330 330 330 331 331 332 330 330 328 327 325 326 328 327 327 329 329 326 323 323 321 318 319 320 320 319
304 304 304 306 306 307 304 304 306 308 311 312 316 318 320 321 320 322 324 326 326 326 327 328 329 331 330 330 330 330 329 327 325 324 325 327 327 326 328 328 325 323 323 322 320 322 320 319 320
304 300 303 305 306 304 307 301 303 309 310 310 314 317 320 321 320 319 324 326 327 326 325 326 325 327 328 328 328 328 329 326 324 323 325 326 325 326 328 327 326 324 324 323 321 322 320 319 320
300 301 296 303 305 306 305 298 305 310 310 309 313 316 319 320 321 321 323 326 327 325 324 324 326 325 326 326 326 327 328 326 323 323 323 324 325 327 327 327 326 325 325 324 323 319 317 317 317
298 293 296 299 305 305 303 299 305 310 311 311 312 315 318 319 321 321 323 326 326 325 324 324 324 324 323 324 325 325 326 324 322 322 321 323 323 326 325 324 324 325 324 322 321 319 317 315 316
292 295 297 298 303 305 302 301 305 309 310 311 311 312 317 319 320 322 322 324 326 325 324 324 324 324 323 323 323 323 323 322 321 321 322 325 324 323 323 322 323 322 321 320 319 318 319 316 315
298 297 297 302 306 303 302 301 303 307 308 309 311 312 314 318 322 323 323 324 325 324 324 322 322 322 321 320 319 319 318 320 320 322 323 323 321 321 321 320 321 321 318 317 319 319 317 316 316
297 296 297 301 304 302 301 300 303 305 307 308 309 312 314 317 320 321 322 322 324 323 322 323 322 322 321 320 320 320 319 320 320 321 321 320 320 320 321 320 320 320 320 320 319 317 315 316 316
296 296 297 297 301 303 300 297 300 304 307 308 311 312 315 316 318 320 321 321 323 323 322 321 321 321 321 321 321 320 319 319 317 317 319 320 320 320 320 321 320 320 321 320 319 319 317 312 313
293 300 299 298 297 292 301 290 299 302 303 306 309 311 313 315 320 321 321 322 321 323 323 321 321 321 321 322 320 317 316 314 315 317 319 320 323 320 320 321 321 320 320 322 322 323 320 319 312
296 302 300 299 297 296 296 293 297 303 301 304 308 310 312 314 318 320 321 323 323 323 323 321 320 320 321 322 321 319 317 316 315 316 316 318 322 324 321 321 322 320 320 320 323 322 321 320 318
301 300 299 299 297 289 294 293 294 298 302 305 308 310 312 314 317 321 323 324 324 323 323 321 320 320 321 321 321 320 317 316 314 315 313 315 317 323 323 321 321 323 323 321 322 323 322 321 320
297 294 288 286 287 287 296 293 296 302 305 307 307 309 313 315 317 320 321 322 323 323 323 322 319 319 321 320 320 320 320 318 316 315 314 313 314 318 320 321 321 323 323 324 324 322 322 323 321
294 294 289 282 285 288 297 291 296 305 307 309 309 312 314 314 317 318 321 323 323 323 324 322 320 318 319 320 320 320 320 319 318 316 316 315 315 318 321 321 321 322 323 324 324 323 323 322 321
294 290 297 292 293 289 294 298 302 306 305 306 307 309 311 312 315 318 321 323 323 324 323 323 321 321 319 318 321 320 321 319 318 318 318 317 317 318 321 323 322 322 322 323 324 323 321 321 321
297 299 290 291 283 283 291 294 294 301 303 305 306 308 311 313 315 317 319 324 324 325 325 325 322 321 322 320 320 320 320 321 320 320 319 319 318 318 319 321 323 322 322 323 324 323 322 321 321
294 293 295 294 292 287 286 291 302 302 304 306 308 310 311 312 314 315 319 321 325 326 326 325 324 322 321 321 321 319 319 320 321 320 321 320 320 319 319 319 320 321 322 323 322 321 321 320 320
296 295 294 289 289 292 292 292 306 306 305 306 306 309 311 313 314 315 317 321 322 325 325 325 324 323 322 323 322 320 320 320 320 320 321 322 321 322 320 319 320 320 320 321 320 320 320 319 318

GFSSGP_sfc_thetae_063.txt.gz
Theta_e
321 316 309 308 296 292 289 294 299 298 302 307 311 309 305 305 310 307 334 339 343 342 346 349 350 350 350 350 350 350 350 351 351 351 350 348 348 348 348 348 348 349 349 347 345 345 344 344 344
314 312 307 302 291 286 291 299 298 302 306 309 310 309 307 312 327 331 332 339 340 343 344 348 350 350 350 349 350 350 351 351 351 351 349 349 349 349 348 347 347 348 348 345 345 344 344 344 343
316 314 301 295 290 289 291 297 301 304 307 306 305 309 313 316 324 330 335 339 339 341 343 347 348 349 349 349 349 349 349 349 349 349 349 349 349 348 348 346 346 347 347 345 344 342 342 342 341
308 306 302 290 289 295 297 302 303 303 304 307 307 307 317 325 325 333 337 339 337 337 343 343 344 347 349 349 348 348 348 346 347 348 348 349 349 348 346 344 344 346 346 343 341 341 341 338 338
304 300 290 288 291 297 301 303 304 303 304 308 309 307 315 327 334 334 334 335 335 335 340 341 341 344 348 348 348 347 346 344 346 347 347 347 347 346 344 343 343 343 344 342 340 340 338 336 336
296 297 287 286 293 299 303 306 304 305 305 305 305 307 317 329 329 332 334 332 335 336 340 341 343 344 342 344 344 344 344 342 343 345 345 346 344 343 342 342 341 340 340 339 338 337 336 336 334
294 292 288 290 294 297 302 305 304 304 305 307 314 306 318 323 331 333 331 331 332 335 337 341 338 340 340 337 336 335 337 333 335 338 343 343 341 341 341 342 341 340 338 337 337 336 335 334 332
300 295 290 294 294 295 303 305 307 305 303 316 312 304 313 324 329 329 329 329 330 334 335 335 335 335 334 333 333 331 330 329 329 329 334 339 338 339 340 339 339 338 337 336 335 334 333 332 329
302 293 290 292 295 298 305 302 304 306 306 310 312 309 325 329 328 325 324 323 324 332 331 332 333 334 332 333 332 330 329 329 330 330 327 334 336 336 336 336 337 336 334 334 334 333 330 328 328
298 290 293 299 301 300 302 304 304 303 306 306 307 323 326 325 323 320 317 320 323 325 327 329 330 333 332 333 330 329 327 326 328 329 327 334 335 333 335 335 334 334 333 333 332 330 328 324 318
298 294 298 301 303 303 302 301 304 300 301 306 309 319 322 321 320 318 318 320 322 326 328 328 330 331 331 330 328 328 326 327 325 331 333 333 333 333 332 332 330 330 330 327 326 324 318 315 316
296 300 301 302 304 303 301 301 300 301 304 311 311 321 321 320 318 319 318 321 324 325 330 328 330 330 330 331 329 326 327 329 327 331 332 330 330 330 329 328 328 327 325 321 320 317 315 314 317
299 300 302 303 303 303 304 300 301 299 305 310 316 316 315 318 318 319 322 322 322 323 327 327 330 329 329 328 327 327 329 329 329 329 330 330 329 329 327 326 324 322 320 318 316 315 316 314 316
302 301 301 302 302 303 302 299 299 303 305 305 313 314 315 315 316 317 320 321 321 323 325 328 328 328 328 327 327 326 328 327 327 328 328 328 328 328 326 323 321 320 318 315 316 316 315 315 315
302 297 299 299 300 300 302 297 296 302 304 303 310 314 314 316 314 318 319 321 321 321 324 325 327 328 327 325 327 328 326 324 322 324 326 327 327 326 327 322 320 321 319 315 315 317 318 315 318
297 295 290 298 301 302 299 294 299 302 302 301 303 313 315 316 315 314 319 322 321 321 321 325 327 326 326 323 325 327 325 322 321 322 324 326 326 326 327 324 320 322 320 319 317 318 316 315 316
294 287 291 295 302 301 297 296 300 303 304 302 305 309 313 314 314 314 319 322 321 321 322 323 324 324 324 324 324 326 326 324 322 322 323 325 325 325 327 325 323 323 321 321 320 317 316 314 314
288 290 291 293 299 299 297 297 301 302 304 305 304 304 312 313 314 316 319 322 321 321 321 322 323 323 323 324 324 325 325 324 323 322 322 324 324 323 325 325 324 324 322 319 317 317 314 314 315
295 293 292 294 301 301 299 297 299 301 300 303 303 304 308 313 316 316 318 322 320 319 321 321 321 322 321 320 320 320 319 320 320 321 321 323 322 322 319 322 321 320 320 319 317 316 314 312 313
295 292 291 296 301 300 298 296 297 299 298 301 304 304 305 313 315 315 319 320 319 318 319 321 320 320 320 320 320 320 320 320 320 320 321 322 320 320 318 319 319 318 319 318 316 314 313 313 313
293 291 292 293 298 299 297 292 295 300 301 302 303 307 308 313 314 314 316 317 318 317 318 320 320 320 320 320 320 320 320 319 318 319 319 320 319 319 319 319 318 317 318 317 314 313 313 311 312
288 295 295 295 293 288 295 284 293 298 299 301 301 302 308 313 315 316 315 315 317 317 319 321 320 319 320 320 318 317 316 314 316 317 318 317 318 318 318 319 318 317 318 317 315 316 316 312 310
294 298 296 296 294 291 292 286 290 297 296 299 299 303 304 313 315 315 316 316 318 319 318 318 319 320 319 319 319 317 315 316 317 317 316 317 317 317 317 318 318 316 316 317 317 317 317 317 313
300 296 296 295 293 286 291 288 287 293 297 300 303 304 305 307 315 316 318 317 317 318 317 317 318 319 320 319 318 316 316 313 313 312 314 315 318 318 317 318 319 317 316 316 320 319 318 317 317
297 292 284 284 283 282 293 290 291 297 301 302 303 303 305 306 315 315 316 316 316 317 316 316 317 318 319 319 318 316 316 315 312 313 315 315 314 318 319 318 316 317 318 317 318 320 320 318 318
294 291 285 280 280 285 293 287 291 301 304 304 304 304 306 307 316 316 317 317 317 317 317 316 316 318 319 319 318 318 317 316 314 314 315 315 315 316 320 320 318 318 319 320 320 320 320 320 320
293 289 294 288 289 286 289 293 298 300 301 301 301 304 306 308 313 316 317 318 318 318 317 317 316 317 319 319 318 318 319 318 315 314 314 315 315 316 317 320 319 318 319 320 321 320 319 319 319
295 297 287 288 281 280 287 289 290 297 299 301 300 301 304 306 308 316 318 318 319 319 319 318 317 316 317 319 319 319 319 320 319 316 314 314 314 315 315 319 319 319 319 320 321 321 321 319 318
293 291 292 292 289 282 282 288 299 297 300 300 302 304 303 304 306 310 317 319 320 320 320 318 318 317 316 317 318 319 319 319 319 317 316 315 315 314 314 317 319 320 319 319 320 321 321 319 319
296 293 293 287 286 289 287 289 303 302 301 301 302 303 304 307 308 310 310 313 317 319 320 319 318 318 318 317 317 317 319 319 319 319 318 318 316 316 315 315 317 319 319 320 318 318 320 319 318

GFSSGP_sfc_thetae_066.txt.gz
Theta_e
323 313 307 307 295 290 286 291 297 298 300 305 309 306 305 306 309 301 331 339 343 343 348 348 348 350 350 350 350 350 351 352 351 350 349 348 348 347 346 346 347 348 349 347 346 347 347 345 345
311 310 305 299 290 284 287 294 296 300 305 306 308 306 307 315 328 330 330 339 342 343 346 348 348 349 350 349 350 349 351 351 350 349 348 348 348 349 349 347 347 347 347 344 344 346 345 344 343
312 311 299 294 287 285 288 296 300 302 306 305 304 309 313 316 330 331 334 338 341 341 345 348 347 348 348 349 349 349 349 349 349 348 349 349 349 349 349 347 347 347 348 345 345 344 343 343 341
306 304 300 289 287 293 294 297 300 301 303 304 306 308 318 324 329 332 337 337 338 339 344 345 345 347 348 349 348 348 348 347 347 347 348 349 349 349 348 346 346 346 346 345 344 343 343 340 338
302 297 290 285 288 294 298 299 300 300 302 306 306 306 314 327 333 334 334 337 334 336 341 344 344 346 348 348 348 347 346 346 347 347 347 348 348 347 345 344 344 344 345 344 343 342 340 339 337
295 294 285 285 289 296 298 300 301 303 305 306 305 312 315 329 330 331 332 332 335 336 338 341 344 346 346 345 345 345 345 345 345 346 346 347 346 344 344 343 343 343 342 341 340 338 337 335 333
293 289 285 286 290 294 299 303 302 302 303 305 311 308 318 323 329 331 330 331 333 336 336 337 341 341 339 339 339 338 341 341 341 334 341 343 342 341 342 342 342 341 339 339 338 337 334 333 332
296 292 288 289 291 292 299 301 303 302 300 315 311 311 313 322 330 329 328 327 330 331 334 335 337 337 334 333 335 334 336 335 333 333 330 332 339 340 340 339 340 339 338 337 337 335 333 332 331
299 290 286 289 292 295 301 299 303 305 309 309 309 315 321 328 327 325 322 321 327 330 329 330 331 332 333 331 333 333 334 335 333 331 329 326 333 336 337 336 337 337 335 335 335 333 331 330 330
296 290 292 296 297 296 299 299 300 302 304 305 316 323 326 326 323 320 319 318 323 324 325 328 329 329 332 331 328 327 329 329 328 328 328 326 331 334 335 335 335 334 334 334 332 330 329 323 321
295 295 297 297 300 298 299 300 302 300 299 304 313 319 322 322 320 318 317 320 321 325 325 326 328 331 332 330 328 326 323 324 326 326 325 326 333 333 333 332 331 330 331 327 326 324 317 316 317
294 299 299 300 302 300 299 301 299 299 302 307 318 321 320 318 317 316 317 318 323 325 324 325 328 331 330 329 327 325 323 322 323 326 324 328 331 331 330 328 328 326 324 321 319 316 315 315 317
298 300 302 302 302 301 301 299 300 299 302 309 319 320 318 318 317 317 318 321 321 323 325 325 329 329 330 328 327 324 324 327 324 330 326 330 330 329 328 327 326 324 322 319 315 313 313 314 316
300 301 301 302 302 300 298 298 297 300 302 309 317 315 318 317 316 317 320 319 321 321 322 324 327 329 329 328 326 324 328 328 328 330 330 331 330 328 326 325 323 322 320 318 313 313 311 312 315
300 295 298 299 298 297 298 295 295 302 301 301 309 311 313 316 316 319 321 320 322 322 322 323 324 328 328 326 326 327 327 327 328 328 329 329 329 326 324 321 320 320 319 313 312 313 313 313 316
296 294 289 297 298 299 296 291 300 302 299 299 303 310 312 313 317 319 321 320 320 320 321 325 327 327 326 326 326 326 325 323 324 326 326 328 328 327 322 320 319 317 316 313 313 313 313 312 314
292 286 289 294 299 298 296 294 300 302 300 299 298 308 311 312 312 316 320 320 320 320 321 324 326 325 325 325 326 325 322 321 323 324 325 326 327 327 322 319 320 317 316 312 315 314 314 313 313
287 288 289 290 294 297 295 296 301 302 298 300 298 303 311 312 311 314 320 321 319 320 320 322 324 324 325 325 326 325 324 322 321 322 324 325 325 326 325 321 321 318 316 314 315 314 314 315 315
293 291 289 293 297 295 295 296 299 302 298 297 300 303 310 312 313 317 321 320 318 318 319 320 322 322 323 322 322 322 321 322 321 322 323 324 323 324 325 322 322 321 318 318 316 314 314 313 314
292 291 290 294 297 296 295 294 298 300 299 300 302 301 309 310 311 316 318 318 318 318 317 318 321 322 322 322 322 321 322 321 322 321 322 323 322 322 323 324 321 322 320 316 315 314 311 313 314
289 288 291 291 295 297 295 292 295 298 299 299 302 304 306 311 311 314 317 316 316 317 317 317 319 320 320 320 320 318 320 319 318 319 319 322 321 320 320 322 319 320 319 317 314 314 313 311 311
289 293 292 292 291 285 296 284 293 296 297 299 299 300 302 311 313 314 316 316 315 316 317 317 318 319 319 320 319 318 316 315 317 318 320 321 320 319 319 320 318 318 319 318 316 314 312 312 312
292 299 295 294 289 287 291 286 291 294 294 297 298 298 303 312 313 313 316 316 317 317 317 317 318 319 319 319 319 318 316 317 318 318 318 319 319 318 317 318 318 317 318 318 317 315 312 312 312
299 296 295 293 290 282 290 288 287 290 295 298 300 299 303 311 313 313 316 317 316 317 317 316 316 317 318 319 319 317 316 316 315 316 315 316 316 316 317 317 317 317 317 318 317 316 313 313 313
296 291 284 283 281 281 292 289 291 296 298 300 301 301 302 312 313 313 312 314 315 316 316 316 315 316 318 318 318 317 315 314 314 314 315 315 315 315 315 317 317 317 317 317 318 316 314 313 315
292 291 284 279 280 283 292 285 290 299 302 302 302 301 303 311 313 313 313 314 315 316 315 315 315 316 317 318 317 317 316 314 313 314 315 314 316 316 317 317 317 318 317 316 317 318 318 316 316
290 288 294 286 288 283 288 292 298 299 299 300 300 302 305 311 312 314 315 314 315 315 315 315 315 316 317 317 318 316 315 314 313 312 314 314 313 317 318 318 316 317 317 318 317 315 316 318 318
294 297 287 289 281 279 286 288 290 295 297 299 299 299 304 311 313 314 315 315 316 316 316 316 316 316 317 317 318 318 317 316 315 312 312 314 315 313 315 319 318 317 317 318 317 317 317 317 318
291 290 290 291 289 282 281 288 299 298 298 299 301 303 304 305 308 312 314 316 316 317 317 316 315 315 316 317 317 318 318 319 318 316 313 313 314 312 312 315 318 318 317 316 316 317 318 317 317
295 292 292 286 285 288 286 287 302 302 301 299 302 303 305 306 307 309 312 315 316 317 316 315 315 315 316 317 317 317 318 319 319 318 317 315 313 313 313 312 316 317 318 317 315 314 316 317 317

GFSSGP_sfc_thetae_069.txt.gz
Theta_e
322 312 305 306 293 289 285 289 294 295 298 303 306 304 302 304 304 297 326 338 342 343 346 346 348 349 350 349 350 350 350 351 351 351 350 350 350 349 348 349 349 349 350 349 349 348 348 347 346
312 308 303 297 289 283 285 292 294 297 302 305 309 310 308 312 326 327 329 339 342 344 346 345 348 348 349 349 349 350 351 351 350 349 349 349 348 348 348 348 347 348 349 348 348 348 347 345 344
309 307 298 293 286 284 285 294 296 299 302 303 302 307 314 315 327 329 332 341 340 342 345 345 346 347 348 348 349 349 349 349 348 348 348 348 347 347 348 347 346 347 348 348 347 346 344 342 341
305 302 297 289 286 290 291 295 297 298 301 302 302 307 315 325 329 332 336 340 338 339 345 345 344 346 348 348 348 348 348 347 346 347 347 348 348 348 347 346 346 346 346 347 346 343 341 340 339
299 296 289 285 288 291 294 298 297 298 300 302 303 308 312 326 331 334 334 338 336 336 341 345 343 345 347 348 348 347 347 346 345 346 346 348 348 348 347 345 346 345 345 345 344 342 339 339 338
293 293 284 283 287 292 295 297 297 300 302 302 302 311 314 328 329 330 333 332 335 335 338 342 345 345 345 346 344 343 345 345 345 345 346 347 346 345 345 344 343 343 342 341 341 339 339 337 336
290 288 284 285 287 291 296 299 298 299 300 301 310 310 316 323 327 329 330 331 334 335 335 337 343 346 342 339 341 338 340 342 342 342 341 342 342 343 343 343 343 342 340 340 339 338 335 336 335
294 290 285 287 289 290 296 298 299 299 299 311 318 311 312 322 329 328 328 330 331 332 332 333 335 334 331 332 337 336 335 334 334 336 337 337 336 339 340 340 341 340 339 338 337 334 334 335 332
296 288 283 288 290 292 298 296 299 301 303 307 308 317 320 326 328 324 322 321 325 329 328 329 330 332 332 333 337 337 335 332 333 334 333 329 331 335 336 336 337 338 336 335 334 332 333 332 330
295 287 289 294 295 294 295 296 298 299 300 301 312 321 325 327 325 321 319 319 323 323 324 327 327 328 328 333 332 333 330 333 330 330 330 327 330 333 333 334 335 335 334 334 332 331 331 329 324
294 293 295 296 298 297 295 297 298 296 297 301 307 317 322 323 320 319 319 319 324 324 323 325 327 330 328 328 327 329 330 330 329 328 327 328 329 332 331 331 331 330 332 328 326 323 322 322 321
292 296 298 298 299 297 296 298 297 296 300 303 304 320 321 320 318 318 317 318 321 322 323 325 329 329 330 328 326 325 325 327 325 325 324 327 327 329 331 330 328 326 325 323 320 315 316 318 318
295 297 299 301 300 298 299 297 298 298 302 301 313 321 319 319 318 316 317 318 320 321 322 326 327 328 328 327 326 324 323 324 324 324 324 327 328 329 330 328 326 322 321 320 316 313 315 317 317
297 298 299 301 301 300 298 298 295 300 299 302 317 317 317 317 316 314 316 318 321 322 322 326 325 329 329 327 325 324 322 324 322 325 324 329 329 330 328 326 325 322 320 317 316 313 313 316 317
298 293 296 297 295 296 298 292 291 299 298 303 314 316 315 316 314 316 318 320 322 323 322 324 325 328 328 327 325 325 326 326 325 326 324 327 330 329 327 325 322 321 318 314 312 311 310 313 317
294 293 288 295 296 297 296 290 296 300 299 297 308 312 315 315 315 317 319 321 322 320 321 322 326 325 327 326 326 326 326 325 327 328 328 327 329 328 325 323 321 321 317 315 313 311 310 312 316
289 285 287 291 297 296 294 291 297 300 299 297 298 306 310 314 313 316 320 321 320 320 319 321 325 324 325 325 326 325 323 322 323 326 326 328 327 325 323 320 319 318 317 315 313 312 312 312 314
285 286 285 288 294 294 291 292 298 300 300 299 298 299 308 311 313 315 318 320 319 318 318 322 323 325 325 325 325 323 322 322 322 322 324 326 327 324 320 318 318 317 313 313 313 314 312 312 314
291 289 287 289 297 292 291 292 295 299 297 296 296 295 306 310 313 315 319 318 318 317 317 321 321 324 324 323 322 322 320 320 321 320 323 324 326 324 320 319 317 316 310 312 314 311 311 310 313
287 287 288 293 297 293 291 291 295 298 298 298 299 296 300 309 309 316 318 318 319 318 318 319 319 322 324 324 323 323 323 322 322 321 321 324 324 326 322 319 318 316 314 314 315 312 310 310 312
288 285 288 289 293 293 291 289 292 298 297 298 298 299 303 309 309 315 317 317 318 317 317 318 319 320 322 323 320 320 320 320 320 320 320 323 322 323 325 321 320 319 317 316 315 312 312 310 310
285 292 293 289 287 282 290 281 290 295 296 296 298 298 300 308 311 314 315 316 316 317 316 316 320 319 320 321 320 319 318 316 319 320 320 322 321 322 321 323 320 320 320 317 315 314 314 313 311
290 297 295 293 288 285 287 283 288 292 293 295 297 298 299 308 311 313 315 316 317 318 317 318 318 317 319 319 319 318 316 317 318 318 318 320 320 319 318 321 319 319 320 319 317 313 311 314 313
297 295 294 293 288 280 286 286 286 291 294 296 299 300 298 305 310 313 316 316 316 317 317 316 316 315 317 318 317 315 316 316 316 317 317 318 319 318 317 319 318 319 318 318 317 315 313 313 315
295 290 282 281 279 279 289 287 289 296 298 298 299 301 299 304 310 311 313 314 315 316 316 316 316 315 315 318 316 315 313 315 316 316 317 316 317 316 315 317 318 317 317 318 318 316 316 313 312
291 291 284 277 279 281 290 284 290 300 301 302 302 302 302 301 310 311 314 314 314 315 316 315 314 315 315 317 318 318 315 316 315 316 317 317 317 317 316 317 318 318 317 317 318 317 316 315 313
291 287 293 286 288 282 286 291 297 299 298 300 298 299 299 304 310 310 313 315 314 316 315 315 315 315 316 316 317 317 316 312 312 314 315 316 318 317 315 315 316 318 318 317 316 317 316 316 314
293 296 286 288 280 278 285 289 289 294 294 299 299 299 303 307 309 311 312 314 315 315 316 315 316 315 315 316 315 315 316 316 312 311 311 312 312 314 316 316 315 316 317 317 316 315 315 316 316
291 290 289 290 288 281 280 287 298 298 298 297 299 301 302 305 309 311 312 313 314 315 315 315 315 316 316 316 317 316 315 314 313 311 311 312 312 312 312 317 317 315 316 316 316 315 315 314 315
294 292 291 285 284 287 286 287 302 301 299 299 300 302 304 307 309 311 312 314 314 315 315 315 315 315 317 317 317 316 315 316 315 314 314 312 312 312 312 312 316 318 316 316 315 316 317 316 314

GFSSGP_sfc_thetae_072.txt.gz
Theta_e
322 311 304 304 292 289 284 287 292 293 296 300 304 303 301 300 301 295 320 338 340 340 345 346 347 347 349 350 349 350 352 353 353 353 352 352 351 351 350 350 350 351 352 349 350 350 350 348 347
314 305 302 297 287 282 283 290 292 295 299 302 309 309 307 306 323 324 328 336 341 341 344 345 347 347 348 349 349 350 352 352 352 352 352 351 351 350 350 349 349 349 349 350 350 349 348 346 345
309 305 297 293 285 283 283 290 296 297 300 301 300 306 310 310 325 326 331 337 340 341 343 344 346 347 348 348 348 349 350 349 350 350 351 351 350 350 350 348 348 349 349 351 349 348 345 344 342
304 300 296 288 285 289 289 293 296 296 299 300 299 303 312 323 325 330 335 339 338 341 343 342 344 346 348 348 348 348 348 347 347 348 349 350 350 349 349 347 347 348 348 348 346 346 343 341 340
298 295 286 283 286 290 293 296 295 296 297 300 302 303 309 322 330 333 336 338 335 336 342 343 342 345 347 348 348 348 347 346 346 347 347 347 348 348 347 345 346 346 347 346 345 343 341 339 339
293 292 284 282 285 291 294 294 295 297 299 300 299 301 311 326 329 329 334 335 335 334 337 342 344 345 345 346 345 344 345 345 345 346 346 346 345 344 345 345 344 344 344 342 342 341 339 338 338
289 288 284 284 286 290 295 297 296 297 298 298 305 304 312 322 327 330 331 332 333 333 335 337 341 344 343 341 339 337 339 342 343 341 341 342 342 342 342 342 342 342 341 341 340 339 338 337 335
293 289 283 285 287 288 294 296 297 297 296 308 315 307 308 321 327 328 329 329 330 330 332 332 340 342 336 333 334 337 336 337 339 337 334 335 337 339 339 339 340 341 340 339 339 337 336 335 333
294 286 282 285 288 290 296 293 297 298 298 299 306 314 318 325 326 323 321 322 323 328 327 329 334 332 330 331 334 336 337 338 337 337 335 332 334 335 335 335 338 339 337 337 335 335 335 333 331
294 286 286 291 292 292 293 294 296 297 297 299 301 316 324 325 323 321 318 320 322 324 324 326 327 328 328 333 336 333 332 332 333 333 332 331 330 332 332 333 335 335 335 334 332 334 332 329 324
294 290 292 294 296 295 293 295 297 294 295 298 299 304 320 322 321 319 318 320 324 324 322 324 327 330 330 329 331 330 330 329 330 331 330 329 329 332 331 330 331 331 332 327 328 329 325 322 321
291 295 296 295 298 296 295 296 296 296 299 301 302 302 318 320 321 320 319 318 320 321 322 324 329 329 328 328 328 329 330 329 329 329 328 329 329 330 326 328 328 329 326 321 324 322 321 321 318
292 295 297 298 298 297 298 295 297 295 300 300 300 303 315 320 321 321 318 318 319 320 320 326 329 329 328 327 326 326 327 328 328 327 326 328 328 328 326 328 327 327 322 319 316 316 318 316 316
294 295 296 298 298 299 298 298 295 299 299 298 301 308 315 319 320 315 315 316 318 320 322 325 327 328 327 326 326 324 324 324 326 325 325 328 327 329 328 328 326 322 323 318 314 316 316 315 316
296 292 294 295 295 296 298 292 292 299 297 297 299 310 315 318 317 316 317 317 319 321 321 324 325 326 325 325 325 324 324 324 325 325 325 328 328 328 329 327 324 321 319 314 311 311 314 315 315
292 291 287 293 294 296 295 290 296 298 296 295 296 307 315 316 316 316 314 317 319 319 323 323 325 325 325 325 325 325 326 326 324 326 325 327 328 330 328 326 322 319 317 315 312 312 313 314 313
288 284 287 290 295 294 292 290 293 297 298 296 296 300 311 315 314 314 316 318 319 320 322 322 324 324 324 325 325 326 325 325 326 326 326 325 329 329 327 324 321 319 317 315 312 310 313 314 312
282 285 284 285 290 291 290 290 294 296 296 297 296 295 305 311 314 315 316 319 319 317 319 323 324 323 324 325 324 324 322 323 323 326 326 325 328 326 324 321 319 319 317 315 313 311 311 315 314
288 286 286 287 293 292 291 290 293 295 295 294 296 294 298 307 314 314 317 318 316 315 317 321 323 324 325 323 321 320 320 320 321 323 326 326 325 322 320 318 317 316 315 314 313 312 312 311 314
286 283 283 288 293 292 290 289 293 295 295 296 297 297 297 302 308 314 316 317 317 317 318 319 321 324 324 324 322 323 321 321 321 322 324 326 324 321 319 318 316 315 312 313 313 313 310 311 314
287 285 285 285 290 292 289 288 292 295 296 297 297 298 297 301 307 312 315 317 318 317 318 318 320 323 324 324 322 321 320 321 319 319 321 323 325 322 320 320 316 315 312 312 313 311 311 309 310
284 291 289 288 286 280 288 280 288 291 294 296 297 297 297 301 307 313 314 316 318 318 319 318 319 320 322 322 321 319 318 316 319 319 321 322 324 324 321 319 318 315 314 314 314 313 312 312 310
289 294 293 292 287 284 285 284 286 291 291 294 297 298 298 304 307 312 314 316 318 319 317 316 318 319 320 321 321 320 319 318 319 319 319 321 321 323 323 320 320 318 317 316 315 314 312 312 312
295 293 293 291 287 280 285 284 283 287 292 296 298 299 300 299 306 311 314 316 317 318 316 317 317 316 318 319 320 319 316 316 316 317 317 319 319 320 321 322 319 319 319 317 317 315 313 313 313
292 290 281 279 279 279 287 283 287 292 295 298 298 299 300 301 304 310 313 315 316 315 316 316 315 314 315 316 317 317 316 316 316 316 317 317 318 317 317 320 319 320 319 319 317 315 313 312 312
289 289 280 277 277 280 288 281 287 297 298 301 301 301 299 299 304 310 313 314 315 315 315 316 315 314 313 312 314 315 312 314 317 317 318 318 318 318 318 318 318 318 319 319 318 317 316 315 313
289 287 293 286 287 282 284 288 295 300 298 299 300 301 301 300 301 308 312 313 315 315 314 315 315 315 315 313 313 312 312 313 315 317 317 318 319 319 317 317 318 317 318 318 318 318 317 317 316
292 295 286 286 279 277 284 287 288 293 294 297 298 299 302 308 308 311 312 314 315 316 316 316 315 315 315 316 312 313 312 311 311 314 314 316 317 317 315 315 317 317 317 317 317 317 317 316 316
289 288 289 289 286 282 281 285 297 295 296 296 298 301 304 308 309 310 312 314 315 315 315 314 314 315 315 315 316 312 312 311 310 310 311 314 314 315 314 314 315 315 316 317 316 316 315 315 315
293 290 290 285 284 287 286 286 301 300 299 300 300 301 303 303 305 311 312 313 313 314 315 314 315 315 315 316 316 316 315 312 310 310 310 311 313 312 313 316 314 314 315 316 316 315 315 313 313

GFSSGP_sfc_thetae_075.txt.gz
Theta_e
326 319 313 312 300 299 293 294 298 298 300 305 308 307 307 308 311 305 330 344 345 345 348 349 345 347 350 350 351 352 354 354 354 354 353 353 353 352 351 351 351 351 353 353 351 351 350 348 348
318 309 310 306 295 290 292 296 297 301 305 306 310 312 311 309 324 326 334 343 345 347 347 349 346 347 349 349 350 350 353 354 353 353 353 353 352 351 351 351 350 351 352 351 350 351 349 348 346
312 309 305 303 295 290 292 296 302 303 304 303 306 312 311 314 328 329 337 345 346 345 347 347 344 344 347 349 349 349 350 351 352 352 353 352 352 352 351 349 350 350 350 351 350 349 347 345 343
310 309 303 296 293 296 295 299 301 301 303 305 307 305 315 326 330 335 339 345 345 346 346 345 344 345 346 349 349 349 347 346 350 350 351 352 352 352 350 349 349 350 350 350 349 346 345 342 341
305 303 295 293 293 296 298 300 301 301 301 303 305 304 313 326 334 337 341 343 344 343 346 347 343 344 346 348 348 348 348 344 347 349 349 350 350 350 347 346 347 346 348 348 347 345 342 341 340
300 301 291 289 291 297 300 301 301 301 302 304 303 304 309 330 334 338 342 343 345 344 343 345 345 345 345 346 346 345 343 344 344 347 348 349 347 346 345 344 343 344 345 344 343 342 341 340 338
298 296 291 291 291 294 298 301 300 301 302 303 306 304 314 327 335 339 342 343 344 345 346 343 344 346 343 341 342 339 340 341 343 342 342 341 340 341 341 342 343 343 343 342 341 340 339 339 336
299 298 291 291 291 293 299 301 302 302 302 308 318 308 310 324 335 338 339 341 342 342 345 344 342 344 346 348 337 338 339 339 340 339 338 336 336 336 338 339 341 341 341 340 340 339 338 337 334
300 293 290 291 292 295 300 299 302 304 303 304 307 311 321 328 333 333 333 335 337 339 341 340 340 343 343 347 340 339 339 339 338 338 336 334 337 335 335 336 337 339 337 337 338 337 335 333 332
299 293 293 295 297 296 299 299 301 301 301 303 304 315 326 329 330 330 330 331 334 335 337 339 339 338 339 341 340 343 342 343 341 337 334 337 336 334 332 333 335 336 336 335 336 335 332 332 332
299 293 296 297 299 299 299 300 302 300 299 303 303 306 316 326 328 328 328 330 333 335 336 337 335 336 336 335 337 338 340 341 338 335 334 336 336 334 333 332 333 332 334 335 335 334 333 333 331
294 298 299 299 301 300 299 302 301 301 302 307 307 308 307 313 325 327 327 328 331 332 334 335 334 334 333 334 332 335 335 335 334 335 334 333 335 331 330 329 332 331 331 334 335 333 332 331 329
294 296 298 300 301 301 302 300 300 301 305 307 306 306 306 307 315 326 329 328 330 330 333 332 332 332 332 331 331 332 333 334 331 332 331 330 333 332 330 329 332 329 327 332 331 330 329 328 327
296 297 297 299 299 300 299 300 301 302 306 304 305 305 307 311 316 323 327 326 327 329 331 330 330 332 332 330 329 329 331 331 330 329 330 331 333 332 328 329 330 326 325 328 328 328 327 327 326
297 293 297 298 298 298 302 297 298 304 306 304 304 305 306 311 320 323 325 327 327 329 331 328 329 331 329 329 328 328 327 328 328 328 329 330 332 330 329 330 328 325 324 325 326 326 326 325 325
293 294 289 297 298 299 299 291 299 303 302 302 304 304 304 309 319 324 326 327 326 329 328 328 327 328 328 328 327 328 326 326 327 326 328 329 330 331 329 328 326 325 321 322 323 324 323 323 323
290 286 289 292 299 298 296 294 300 301 301 301 303 304 305 308 317 323 324 324 326 328 329 325 327 327 327 327 327 327 327 326 326 326 326 327 328 330 329 327 325 323 323 321 322 323 323 322 322
285 286 289 289 296 296 295 294 298 301 301 302 303 304 305 305 311 319 322 324 326 328 328 326 327 326 327 327 326 327 327 327 328 327 326 327 328 329 328 326 323 323 322 320 320 321 323 322 321
289 288 287 290 294 293 292 294 297 300 300 301 302 303 304 305 310 316 321 324 325 327 325 325 325 325 325 324 324 323 322 324 324 327 328 327 326 328 325 323 321 322 322 322 321 320 321 320 322
289 287 287 290 292 292 291 292 297 299 300 301 303 304 304 305 307 314 320 323 324 323 324 325 325 325 326 326 324 324 323 324 324 327 327 329 326 325 323 321 321 321 323 322 321 320 319 320 321
290 288 289 288 292 294 291 289 292 297 301 301 302 304 305 304 305 310 318 321 324 322 323 323 324 325 327 327 326 323 323 323 321 321 323 324 323 322 321 321 320 320 321 319 319 320 319 316 319
287 293 291 290 288 284 292 283 291 295 297 300 302 304 305 306 305 308 317 319 322 323 325 324 323 324 326 326 323 321 320 319 321 321 322 324 324 322 321 318 318 319 320 320 319 319 318 317 315
290 295 293 293 290 289 289 286 290 295 294 298 301 303 305 306 306 310 316 320 322 324 323 322 322 323 324 325 323 321 321 323 322 322 321 322 324 322 322 319 317 316 318 320 319 319 319 321 320
297 293 293 293 290 283 288 287 288 291 294 298 302 304 306 307 307 311 317 320 322 323 321 319 320 320 323 324 324 322 321 320 320 320 321 322 322 322 321 320 318 317 316 316 316 317 320 320 321
293 289 283 281 281 281 290 287 290 295 298 301 302 304 306 307 308 313 316 318 320 320 318 318 319 318 320 322 322 322 320 320 320 320 320 320 319 319 321 321 320 319 318 317 317 316 316 318 318
290 289 284 277 279 283 289 284 290 300 302 303 304 305 307 309 306 312 317 318 319 319 316 318 317 316 317 319 320 321 320 319 319 320 320 320 320 320 320 321 320 320 320 319 318 317 315 316 318
290 287 293 287 287 283 287 291 298 300 300 302 303 305 308 310 311 309 316 318 319 317 316 317 317 315 315 317 319 320 318 318 319 320 321 321 321 320 320 321 319 320 320 319 319 317 316 315 315
293 295 286 287 278 278 285 288 290 294 297 299 301 302 306 311 311 312 316 316 318 317 316 317 318 319 317 316 320 321 321 320 319 320 319 319 320 321 320 321 319 318 319 319 319 318 318 316 316
290 289 289 288 287 281 281 286 296 296 298 298 299 299 300 304 311 313 314 316 316 316 316 316 317 318 318 317 318 320 320 320 320 318 318 319 319 318 317 319 318 318 319 319 318 318 318 317 317
294 291 291 284 283 287 286 286 300 299 298 298 297 298 299 300 302 310 313 314 314 314 315 315 316 316 318 317 317 317 319 319 318 319 320 321 319 319 317 317 318 319 320 321 320 319 317 316 316

GFSSGP_sfc_thetae_078.txt.gz
Theta_e
324 324 320 316 303 302 299 300 304 304 306 311 312 309 310 314 313 310 337 347 348 350 353 351 346 349 351 351 352 354 355 354 354 354 354 354 354 353 352 352 353 353 354 354 352 352 352 350 349
322 318 315 313 298 296 298 303 302 305 308 310 310 312 312 311 319 326 337 345 347 348 353 353 346 348 350 351 352 353 354 354 354 353 354 354 353 353 352 351 351 352 354 354 353 351 351 349 347
319 316 308 303 300 296 298 303 304 308 308 308 311 316 315 314 326 329 338 347 348 348 351 352 346 346 350 350 351 351 353 353 353 353 354 354 353 352 352 350 351 352 353 354 352 350 349 346 345
314 311 309 299 297 301 301 304 306 308 308 308 310 308 316 325 329 333 340 346 346 348 350 347 344 345 348 349 350 349 349 350 351 351 353 353 353 352 350 350 350 352 352 352 350 348 346 344 342
314 309 299 297 297 301 304 306 307 307 307 307 308 306 311 324 334 339 342 346 346 348 351 351 342 344 346 349 350 349 348 346 350 351 351 351 351 350 348 349 349 349 350 349 348 346 344 342 341
306 307 297 295 298 301 304 307 306 305 307 307 307 309 311 329 333 339 344 347 350 349 351 352 345 345 345 346 347 347 346 344 347 349 348 349 348 348 346 345 347 347 345 344 345 343 342 341 339
304 301 297 298 298 298 301 307 304 304 305 305 311 307 314 323 333 341 344 347 350 351 351 352 348 348 343 341 343 343 343 343 342 344 343 343 341 342 342 343 342 343 343 343 343 342 340 339 337
307 304 299 300 297 297 303 304 306 305 304 312 313 308 310 322 335 342 344 344 346 350 352 346 347 348 350 350 340 341 341 341 341 341 339 338 339 339 339 338 340 340 342 342 342 340 339 337 335
309 299 297 299 298 300 304 303 307 309 306 308 310 311 316 324 332 339 340 341 342 346 349 348 345 346 348 350 348 341 341 341 339 339 338 336 341 338 338 337 338 339 338 338 339 338 336 334 333
302 298 299 304 303 301 304 304 305 304 305 306 308 312 320 323 327 333 335 335 339 341 344 347 343 344 346 345 349 349 347 345 344 344 343 344 340 339 339 337 337 337 336 336 336 335 333 333 335
303 298 303 302 303 304 302 303 305 303 302 305 306 309 312 314 322 327 333 333 337 340 342 344 346 348 347 343 344 346 345 344 345 344 342 341 339 338 334 335 338 337 335 336 336 336 337 337 334
299 302 303 304 304 303 302 305 303 304 305 308 309 310 311 312 314 321 327 333 335 338 340 342 342 342 342 342 340 342 343 343 343 343 342 337 336 334 334 333 336 334 336 333 337 340 338 335 333
298 299 301 302 303 302 303 301 302 303 307 309 309 309 310 312 314 316 322 328 335 336 339 341 340 337 338 337 338 338 341 338 339 341 342 338 335 336 335 335 334 332 333 332 338 337 334 334 333
300 300 301 302 302 303 300 301 303 304 309 308 309 309 310 312 314 316 318 325 332 336 338 341 339 339 340 338 336 336 338 338 336 338 339 341 336 334 332 331 333 331 330 332 336 334 333 332 332
299 296 299 301 302 301 303 299 300 306 309 307 308 309 310 312 314 316 320 326 331 335 338 339 337 336 338 338 335 333 334 336 335 335 337 335 334 334 331 330 331 330 330 330 334 333 332 330 330
295 296 292 299 301 303 302 295 302 306 306 306 308 309 309 311 313 316 322 327 332 335 336 337 335 337 338 335 333 331 332 334 335 334 335 333 333 334 333 329 329 327 326 328 331 330 329 329 328
293 288 291 294 301 300 300 297 303 306 305 305 307 308 309 311 313 317 323 328 332 335 337 336 335 334 335 333 332 330 330 332 330 331 330 332 333 333 332 330 330 326 323 325 329 329 329 327 326
289 290 292 291 296 297 297 298 303 305 305 305 307 309 309 310 312 316 321 328 332 334 337 336 332 333 333 333 330 329 331 330 329 328 329 329 329 330 330 331 327 327 322 322 327 328 329 327 326
292 289 289 292 295 294 294 296 300 303 305 305 307 308 308 310 313 315 320 328 331 334 335 334 330 331 330 329 326 326 327 328 327 329 329 329 328 329 329 327 325 326 321 321 323 328 327 325 327
291 289 289 293 296 296 296 296 300 301 302 304 306 307 309 310 311 313 319 327 330 332 334 333 331 330 330 329 326 326 326 327 329 329 329 330 332 329 327 325 324 322 321 321 326 327 325 324 325
292 291 292 292 296 298 297 295 298 302 303 304 306 308 309 310 310 312 317 325 329 331 333 332 332 332 331 331 329 331 327 327 326 326 327 328 332 327 326 325 323 323 322 321 324 327 326 321 324
289 295 294 293 292 289 296 287 296 299 300 302 304 307 309 310 311 313 315 322 326 330 333 333 332 330 331 332 329 328 324 320 325 326 324 328 327 324 324 324 323 323 324 323 325 326 327 325 321
291 296 294 294 293 293 293 290 295 298 297 300 304 307 310 312 312 314 315 319 325 330 331 333 332 329 331 330 329 327 324 323 326 325 323 325 324 322 321 322 321 322 323 326 327 326 325 325 323
297 294 293 294 293 286 292 291 294 296 298 301 305 307 309 312 314 314 317 321 325 330 331 330 329 327 329 329 329 326 323 323 325 323 323 322 322 322 322 320 320 320 321 325 326 325 325 325 324
295 289 283 284 283 284 292 290 294 299 303 304 305 309 312 314 315 315 317 320 324 327 325 325 328 324 326 328 327 327 327 325 323 324 322 322 321 321 320 320 320 317 319 322 324 324 323 323 323
291 290 285 279 282 286 293 288 295 303 305 307 308 311 314 316 317 314 319 321 323 326 321 322 325 322 324 326 326 326 326 323 323 324 326 326 323 324 325 321 319 319 317 318 318 319 319 321 322
292 289 295 288 290 285 289 294 300 303 304 306 307 308 309 314 318 315 318 322 324 325 318 321 322 321 322 323 325 327 326 326 324 324 324 322 324 323 323 322 321 320 319 317 317 316 316 317 319
296 298 287 289 281 281 288 290 292 298 300 304 304 304 304 307 315 315 319 321 324 321 319 322 322 321 321 322 322 323 325 325 323 323 322 325 324 324 323 322 320 320 320 321 318 316 317 316 316
292 291 292 290 290 284 284 288 296 295 298 299 301 300 300 302 304 315 318 320 319 318 319 319 321 321 320 319 321 322 322 323 322 322 321 322 323 323 321 323 322 321 320 319 318 318 316 315 316
296 293 293 287 285 289 287 290 300 298 296 297 296 296 298 299 300 302 312 315 316 317 317 318 321 321 322 319 320 321 321 323 323 322 321 322 321 322 322 322 322 320 319 319 319 318 318 316 314

GFSSGP_sfc_thetae_084.txt.gz
Theta_e
326 323 321 316 300 300 297 299 306 305 307 311 312 311 309 311 313 310 340 345 350 347 349 349 349 352 353 353 354 354 353 354 354 354 354 355 355 355 354 353 353 355 356 356 353 353 351 350 351
320 320 317 309 297 293 296 304 304 307 310 314 313 311 310 309 317 328 334 343 346 345 347 349 349 350 352 352 352 354 354 355 354 354 354 354 355 354 353 353 352 354 354 353 352 351 352 350 349
319 318 308 302 298 294 296 304 307 310 311 310 309 312 312 312 318 328 341 345 345 346 346 349 348 349 351 351 351 352 353 353 353 353 354 354 354 353 353 351 352 352 354 353 352 352 351 348 346
313 314 309 298 296 301 302 305 308 308 310 311 310 307 316 324 326 333 341 342 342 344 347 343 345 347 350 351 351 352 352 351 351 352 352 354 354 352 351 349 350 353 353 351 352 350 348 345 344
311 310 299 297 298 302 305 308 309 307 307 310 310 307 310 321 327 337 340 340 344 347 350 346 343 347 349 351 351 351 350 350 350 351 352 352 352 350 349 348 349 351 350 350 350 349 345 344 343
306 307 297 295 298 303 306 309 308 307 307 309 309 308 310 320 325 333 340 344 350 350 352 348 345 346 347 348 348 347 348 349 349 350 350 352 350 346 345 346 346 346 345 345 345 344 344 343 342
306 303 298 298 299 302 305 311 308 307 307 306 311 308 313 316 330 335 340 346 350 353 353 349 346 345 344 344 345 345 346 346 348 348 346 347 343 342 343 342 341 341 342 342 342 343 342 342 341
310 305 299 300 299 300 307 308 309 307 306 313 312 305 306 320 330 340 343 341 345 352 353 351 348 347 346 345 342 344 345 344 345 345 343 341 341 342 341 340 336 338 338 340 342 341 341 339 337
312 300 297 298 299 302 308 306 310 311 308 309 310 310 315 324 325 334 336 338 342 346 349 352 350 349 349 348 345 343 344 343 342 342 340 337 342 340 339 338 338 338 336 336 339 339 337 334 334
303 300 299 304 305 304 306 307 307 307 306 307 308 313 315 319 321 322 330 332 338 342 345 347 347 349 350 345 346 345 345 344 343 343 341 343 342 339 338 335 336 336 335 336 337 336 334 333 333
301 298 303 304 306 306 305 305 308 305 304 308 308 310 313 315 317 321 322 329 334 339 343 347 345 349 349 345 348 346 345 344 343 343 342 342 342 337 333 330 332 334 336 335 336 334 334 335 333
299 302 303 303 306 305 303 306 304 305 306 310 310 312 312 312 315 317 318 322 332 336 340 347 345 345 346 344 344 345 345 344 342 342 341 340 338 334 332 331 332 333 334 335 334 333 335 335 334
299 301 303 305 304 305 305 302 302 303 308 310 310 311 310 311 312 315 314 317 323 332 338 342 345 344 345 345 343 344 344 341 341 342 341 340 338 335 336 334 333 333 334 334 332 332 333 333 332
301 301 301 302 302 303 300 301 302 303 306 306 307 308 309 311 312 312 312 314 320 327 336 342 343 344 344 342 342 342 343 343 342 341 340 339 337 335 334 334 333 333 333 333 332 331 331 330 330
302 297 300 300 301 300 302 297 298 304 306 305 306 308 308 310 312 311 312 314 319 325 333 341 343 343 341 339 340 339 341 341 340 339 339 338 337 335 333 332 332 332 334 332 330 329 330 329 330
297 297 290 297 299 300 300 293 300 305 305 304 306 307 308 310 311 313 314 314 317 323 329 341 341 340 340 339 338 337 336 338 337 338 338 337 336 335 333 331 331 333 332 329 328 327 328 328 327
294 289 291 294 300 299 299 295 302 306 306 305 306 307 308 310 311 313 314 314 315 320 328 339 340 339 340 339 336 335 334 337 336 336 337 336 335 334 333 332 332 330 329 327 327 327 327 325 325
289 290 292 291 296 298 296 296 301 303 303 303 304 307 308 309 311 313 314 314 316 319 333 340 339 338 338 337 333 332 332 334 335 333 333 334 334 333 333 330 330 329 328 327 327 326 326 325 323
294 292 290 293 297 294 294 295 297 300 301 301 302 304 307 308 312 313 314 314 319 327 335 339 337 336 337 331 329 328 326 329 330 331 331 332 332 332 331 329 328 328 327 326 326 325 324 323 323
293 290 290 293 295 295 294 294 299 301 302 303 302 303 305 308 310 313 314 317 324 330 334 338 336 336 336 332 330 330 329 329 329 330 330 331 332 332 330 329 327 327 325 325 324 324 322 322 323
293 290 290 290 294 296 295 292 296 300 301 303 304 305 305 306 309 311 313 315 325 330 334 337 335 336 335 333 331 329 330 329 326 327 329 330 330 330 330 329 326 325 325 324 324 323 322 319 321
289 295 294 293 291 286 295 284 293 297 299 302 304 305 305 306 308 312 313 314 325 328 335 336 336 334 334 333 329 326 324 323 325 325 328 329 330 329 329 327 326 325 325 324 323 324 323 321 317
291 296 295 294 292 291 290 286 291 297 296 300 303 306 307 308 309 311 313 314 325 328 334 336 335 333 333 332 330 326 324 325 325 326 326 326 327 329 329 326 325 324 324 323 323 323 322 322 319
298 295 294 293 291 284 289 287 288 292 298 302 306 309 312 310 309 311 314 315 322 327 333 335 333 332 331 331 329 328 325 324 324 324 323 325 323 323 324 325 324 324 323 321 322 323 323 322 321
295 291 283 281 282 281 292 289 292 300 303 304 305 309 312 313 315 317 317 313 315 326 331 334 332 330 331 330 330 328 328 325 325 324 324 322 321 320 321 322 322 322 322 322 321 322 322 322 320
292 291 284 277 279 282 290 286 293 303 306 307 307 307 309 309 309 312 315 313 318 327 331 332 331 329 330 330 329 328 327 325 325 326 325 323 321 321 321 321 321 321 322 322 322 321 322 322 321
292 288 293 287 288 283 287 291 300 301 302 303 303 303 303 304 305 307 311 313 321 326 330 330 330 328 330 330 328 327 326 325 324 325 325 325 323 322 321 320 319 319 320 322 322 320 321 321 321
294 296 288 287 279 278 285 288 289 293 296 299 299 300 301 301 300 302 304 308 325 328 328 328 327 327 328 328 328 326 325 325 325 325 325 325 325 323 322 320 318 318 318 318 319 319 320 320 320
292 291 291 291 288 281 280 285 293 294 297 297 299 299 297 296 296 297 299 303 310 323 324 323 324 323 325 325 325 325 324 324 325 325 325 323 325 323 323 321 319 317 317 317 317 317 317 316 315
295 292 293 286 284 288 287 287 299 299 300 299 298 298 296 294 294 294 295 298 301 304 313 321 321 322 322 324 323 323 323 323 323 323 323 323 322 323 322 322 321 319 317 316 316 315 315 315 314

GFSSGP_sfc_thetae_087.txt.gz
Theta_e
321 320 314 309 294 289 285 291 299 299 300 303 308 307 304 304 312 308 337 344 345 345 348 349 349 352 353 353 352 352 353 354 354 354 354 355 354 355 354 353 354 355 357 356 354 353 352 352 350
315 316 310 301 288 283 286 297 297 301 305 307 309 306 305 306 322 330 334 344 345 346 347 348 349 350 352 352 352 352 354 354 354 354 354 354 354 354 354 352 352 355 356 355 353 352 351 350 348
314 314 300 293 288 286 286 296 299 304 306 306 304 306 309 310 325 331 336 342 343 343 346 348 348 348 350 351 352 351 352 353 353 353 354 355 354 353 353 351 352 354 355 355 352 352 351 348 346
307 305 301 290 288 292 295 298 300 302 304 305 303 304 311 323 326 335 340 342 340 340 346 344 345 347 349 350 350 351 351 350 350 351 353 354 353 353 352 350 351 354 354 353 353 352 349 345 344
301 299 291 288 291 295 299 302 303 302 303 305 305 304 306 320 335 336 335 339 340 341 342 344 343 346 348 350 350 350 350 349 349 350 351 352 352 352 350 349 349 351 351 349 350 349 346 344 343
294 297 288 289 293 298 300 303 303 304 305 304 303 304 304 314 329 332 334 340 345 342 342 342 345 346 347 348 347 347 348 348 348 349 350 351 350 348 347 347 345 346 344 344 345 344 344 343 343
296 293 290 290 293 296 301 305 302 303 304 302 306 303 305 321 328 332 336 341 346 345 341 340 342 345 344 343 343 344 346 347 347 347 347 348 346 343 344 344 342 340 340 340 341 342 343 343 341
301 297 293 294 294 295 302 305 306 303 300 310 308 301 299 319 326 332 336 339 344 345 341 339 338 340 339 339 341 342 343 343 344 345 343 343 342 343 342 340 340 341 338 337 339 340 341 341 338
305 295 293 295 296 298 304 303 306 305 303 304 306 305 316 323 325 325 327 332 339 343 343 340 339 339 339 338 341 343 344 343 342 342 340 337 338 338 339 335 337 338 334 337 338 338 337 336 336
294 293 295 300 301 300 303 302 301 302 303 304 303 308 315 317 320 322 322 324 334 337 342 341 341 341 341 344 338 337 341 338 338 339 336 337 335 335 336 333 336 336 336 336 337 337 335 334 331
293 291 297 301 304 303 301 300 302 299 299 303 303 305 307 312 312 313 320 323 333 338 342 341 340 342 341 339 338 338 338 338 337 336 335 337 336 333 334 333 334 333 335 334 335 334 334 333 331
293 297 298 299 301 301 299 301 300 299 301 304 304 304 306 306 309 311 312 315 320 337 340 341 340 342 340 338 340 339 339 337 336 335 336 336 333 331 328 327 328 331 332 333 333 332 333 332 331
294 295 298 299 300 299 301 298 299 298 301 302 304 305 303 304 306 310 313 314 316 330 339 340 340 341 340 336 336 336 338 338 337 335 336 336 332 331 329 326 328 331 332 333 331 331 332 332 331
296 297 297 298 298 298 297 296 296 299 300 301 302 302 304 304 305 304 307 308 311 316 337 341 340 340 340 336 334 334 335 335 335 335 335 335 334 331 330 329 328 329 332 334 332 331 330 331 331
299 293 295 295 295 296 298 294 295 300 301 300 301 303 303 304 305 304 306 305 307 314 325 340 339 340 339 336 334 333 333 334 333 334 334 335 334 333 330 330 330 330 331 331 330 328 328 328 330
293 292 286 292 295 296 294 288 296 300 299 299 301 302 303 304 305 306 305 307 308 309 324 340 340 337 336 335 333 332 332 332 331 332 333 333 333 334 331 330 329 330 330 329 328 328 326 327 327
289 284 286 290 296 295 293 290 296 299 301 299 298 299 301 304 305 306 307 309 310 308 324 337 337 335 334 334 332 330 331 330 329 330 331 332 331 331 330 328 328 330 329 328 326 324 325 326 326
284 284 285 285 290 293 290 290 295 297 297 297 297 299 300 302 304 308 309 310 310 308 327 336 336 334 332 333 330 327 329 331 328 328 329 334 331 331 328 326 326 328 326 324 324 325 325 325 325
290 288 287 289 293 291 290 290 292 296 297 297 297 299 300 301 304 308 309 310 308 307 333 335 333 334 331 329 326 325 324 329 326 326 328 328 328 329 325 326 328 327 325 326 325 325 324 323 324
290 287 286 289 292 292 290 289 292 296 297 298 299 300 300 301 303 308 308 307 307 315 334 334 333 333 330 329 327 323 323 327 323 324 326 330 327 327 326 327 327 326 326 325 325 324 323 323 323
290 287 287 287 291 292 289 288 291 296 298 300 301 302 303 301 301 305 307 307 309 326 333 332 332 332 329 328 327 325 323 322 321 323 324 328 329 328 327 327 327 326 326 324 324 324 322 320 322
287 293 292 290 288 283 290 281 290 294 295 298 303 303 301 302 303 305 307 307 317 331 333 332 332 331 328 327 325 324 322 320 320 322 325 325 326 328 328 328 327 326 326 325 324 324 323 321 318
289 294 291 290 287 286 287 284 287 293 292 295 303 307 303 302 301 303 304 307 318 329 332 331 331 331 329 327 325 322 319 319 319 321 322 323 325 326 325 325 325 325 325 325 325 324 322 322 320
295 293 291 290 286 280 286 285 286 290 293 301 305 306 305 306 307 309 311 313 313 327 331 331 330 330 328 326 324 323 320 319 319 319 320 320 322 324 325 325 325 325 325 324 324 324 323 321 321
291 287 279 277 277 277 289 286 289 298 301 302 302 303 303 304 303 304 305 307 310 314 328 329 328 327 327 325 324 323 322 319 319 320 320 321 319 318 320 323 323 323 324 323 324 323 322 322 320
288 287 280 275 276 280 288 283 290 296 302 303 303 303 302 300 301 301 302 303 306 313 326 328 326 326 326 325 324 325 322 321 321 322 322 320 320 319 320 320 322 322 323 322 323 323 322 322 320
289 285 291 284 285 280 284 287 297 299 299 300 300 299 297 297 297 298 301 301 305 319 325 327 326 326 326 326 326 324 322 321 320 321 321 321 321 321 320 320 320 321 321 321 321 321 321 321 320
291 293 281 284 278 277 283 286 287 292 294 298 297 296 295 295 294 296 297 299 303 308 318 321 325 325 326 327 325 323 322 321 323 324 323 320 321 321 320 319 319 319 320 321 320 319 320 320 320
288 287 288 288 286 279 278 283 292 293 296 297 296 295 293 292 293 293 294 296 300 303 306 309 321 322 325 325 324 322 322 323 324 324 323 323 322 320 320 319 318 318 318 318 320 319 319 318 318
291 290 289 282 282 284 284 284 297 298 299 297 295 294 292 292 292 292 292 293 294 297 299 303 308 320 321 322 322 321 322 323 323 322 321 323 322 322 320 320 318 317 317 317 317 317 318 317 316

GFSSGP_sfc_thetae_090.txt.gz
Theta_e
318 316 312 307 293 287 283 289 294 295 296 300 305 304 302 303 309 301 336 343 343 344 348 350 349 351 352 352 352 352 354 354 354 354 354 354 354 354 354 354 355 355 357 355 353 353 353 352 351
312 314 307 298 287 282 284 291 294 298 301 303 305 305 302 303 325 333 334 343 343 344 347 348 349 350 351 351 351 352 354 353 354 354 354 354 354 354 353 353 353 355 356 355 353 353 352 350 349
311 312 299 293 285 284 284 292 297 300 302 302 302 304 307 310 330 334 339 343 344 344 346 347 348 349 351 350 350 351 352 352 352 353 354 354 354 354 353 351 351 355 356 355 353 352 350 348 346
306 303 299 289 286 289 290 295 296 298 301 303 302 301 308 320 330 336 342 343 341 343 345 344 345 348 350 350 350 351 350 349 350 351 353 354 354 354 352 351 351 355 354 354 353 352 347 345 344
299 297 289 286 288 292 296 299 300 300 300 302 302 302 304 323 334 340 339 339 337 340 342 344 343 346 348 350 350 349 349 348 349 350 351 352 353 352 351 349 350 352 350 349 349 347 344 344 343
293 294 286 286 289 294 298 299 299 301 303 302 301 302 302 327 334 337 338 336 338 340 341 342 345 346 346 347 347 346 347 347 348 348 349 351 350 349 349 348 347 346 344 343 344 344 343 342 343
291 290 286 286 290 293 299 301 299 301 302 301 304 300 304 318 329 333 338 340 339 340 339 340 342 345 343 342 342 343 345 346 346 346 347 348 347 346 346 346 345 344 342 341 342 341 341 341 340
298 294 289 290 292 291 300 301 302 301 299 307 306 299 298 319 329 335 340 340 339 338 338 338 338 339 339 341 340 342 343 344 344 345 344 343 344 344 343 342 342 341 341 340 340 339 339 339 338
300 290 288 291 294 297 304 301 304 302 301 303 305 303 313 324 330 332 335 337 338 338 336 337 337 336 336 337 341 342 343 342 341 342 341 338 340 339 339 338 340 337 337 338 338 337 335 336 336
293 288 292 298 299 297 301 302 302 300 300 302 303 307 316 321 326 327 329 333 335 336 335 336 336 336 336 341 337 337 341 339 339 339 337 337 335 335 335 335 336 334 334 336 337 337 335 335 334
291 291 295 296 298 299 300 301 304 299 297 300 301 303 306 312 314 320 324 333 334 338 338 337 337 337 337 338 335 335 339 336 335 335 333 333 334 336 332 330 333 331 334 333 334 334 334 333 331
290 295 296 297 299 298 296 299 298 297 299 303 303 302 302 304 310 310 318 321 333 337 339 339 339 339 339 339 336 335 336 335 334 333 334 335 333 333 332 332 331 331 330 330 330 331 333 332 332
292 295 298 298 298 298 298 296 297 297 299 300 301 301 300 301 304 308 309 313 326 334 339 339 340 340 340 338 337 336 336 335 334 332 335 335 332 329 330 328 330 331 331 331 329 329 332 332 331
294 294 294 295 295 296 295 294 294 297 299 299 299 300 300 300 301 302 305 309 310 334 338 339 338 341 340 338 337 336 337 336 333 333 335 333 332 329 328 326 329 330 330 331 330 328 329 331 331
297 292 293 293 293 292 293 292 291 296 297 297 299 300 301 302 302 300 302 305 310 312 336 338 338 339 339 337 337 335 334 335 334 333 333 333 331 329 327 326 326 329 330 330 331 328 328 327 330
291 290 285 291 293 295 292 287 294 297 296 296 298 299 300 301 303 304 302 302 306 309 330 339 339 338 337 336 336 334 332 333 333 333 333 333 332 331 329 328 326 328 331 330 329 328 326 324 325
287 282 285 288 293 293 291 289 293 296 297 295 296 296 298 299 301 302 305 303 305 306 317 337 338 337 336 334 335 333 331 331 330 332 332 331 332 331 330 328 328 328 329 329 327 326 325 323 323
282 283 283 283 288 290 289 288 293 294 293 295 294 294 295 297 299 304 306 307 307 308 319 336 337 337 335 334 332 330 330 329 332 329 331 330 331 329 329 328 327 330 329 327 326 325 323 323 324
287 286 284 287 290 288 288 288 291 294 292 293 295 297 298 299 302 301 305 305 307 307 325 334 335 334 333 331 328 327 327 328 326 328 327 329 330 329 328 325 327 330 327 325 324 323 322 323 325
287 285 284 288 291 289 289 288 292 292 292 295 297 297 298 300 303 303 302 304 304 305 323 333 333 332 333 331 330 327 326 326 329 324 324 326 325 326 326 326 326 327 325 324 324 323 322 321 325
288 285 285 287 290 289 286 287 290 293 295 297 299 300 305 304 304 303 304 302 304 306 327 332 332 331 332 330 325 323 321 321 323 325 321 323 325 325 326 327 327 326 325 323 324 323 322 320 321
285 292 290 288 285 281 288 280 287 291 293 296 297 303 303 303 305 304 305 307 305 308 327 332 333 331 329 327 325 323 322 320 322 325 320 321 324 324 325 327 326 326 326 324 323 324 323 323 318
288 293 290 288 284 283 285 281 284 293 295 298 302 303 303 302 303 304 305 307 309 320 329 332 332 329 328 328 325 323 320 318 321 320 319 319 320 323 325 326 326 325 325 325 324 324 322 323 320
293 290 289 288 285 279 284 282 282 291 293 296 300 302 302 301 301 302 305 306 305 310 328 331 330 328 327 326 324 322 320 318 319 319 319 321 322 323 324 326 326 325 325 324 324 324 323 322 321
289 285 278 276 276 276 286 283 286 293 296 297 299 300 300 299 298 300 301 303 304 308 312 329 328 325 326 324 323 322 321 320 319 319 319 321 321 322 323 324 324 324 325 324 325 324 323 322 320
286 286 279 275 275 278 286 280 288 297 299 300 302 300 298 296 297 298 300 300 303 307 315 328 327 323 323 323 322 322 321 320 320 320 321 320 320 321 321 322 323 323 324 324 324 324 323 322 321
287 283 289 282 283 279 282 287 294 298 298 300 300 298 295 294 295 296 297 297 300 303 310 321 326 325 323 323 322 321 321 319 319 320 321 319 321 319 318 319 320 321 322 322 322 323 321 322 321
291 292 280 280 275 275 280 284 286 292 294 298 297 294 292 292 293 293 294 295 298 301 305 314 321 324 323 323 323 322 321 321 322 320 319 320 320 320 319 319 319 320 320 320 320 321 321 320 320
283 283 286 285 283 277 275 278 293 293 295 297 294 293 289 290 291 291 292 294 296 299 301 305 310 322 322 322 322 320 321 322 323 321 320 320 320 320 319 319 319 318 319 319 319 318 319 319 319
288 287 289 282 280 282 280 281 297 296 297 294 291 291 289 289 289 290 290 291 293 293 297 299 302 307 320 321 321 321 322 323 322 322 322 321 320 320 319 319 318 318 318 318 318 318 318 318 317

GFSSGP_sfc_thetae_096.txt.gz
Theta_e
315 310 308 301 290 286 281 285 288 291 291 295 298 299 297 299 300 298 329 339 340 342 346 348 349 351 352 352 351 352 353 353 354 355 355 355 355 354 354 354 354 355 357 355 353 353 353 352 351
308 310 303 295 284 280 282 287 289 292 295 299 300 299 298 299 308 326 332 340 341 343 345 346 349 349 351 351 351 351 353 354 353 354 355 355 355 354 354 353 353 355 356 355 353 353 352 352 348
307 306 296 292 282 281 282 287 291 295 299 298 297 299 301 301 318 330 336 341 343 343 345 346 348 349 350 350 350 351 351 351 352 352 354 354 354 354 354 352 353 355 356 354 353 353 352 348 346
304 302 296 287 284 287 287 289 292 296 298 298 296 298 302 307 323 333 340 341 341 343 345 345 346 348 349 350 350 350 350 349 349 351 353 354 354 354 353 351 353 355 355 355 354 350 349 345 345
297 295 286 284 285 288 292 294 296 296 297 299 298 298 299 305 330 338 339 341 340 342 344 345 344 346 348 350 350 349 348 347 348 350 351 352 352 353 351 350 351 353 353 352 351 349 346 344 344
292 292 284 282 285 290 294 295 296 297 299 300 297 297 299 311 329 335 338 336 339 340 342 344 346 346 347 348 347 346 346 347 347 349 349 351 351 350 350 349 349 350 349 348 347 345 345 344 344
288 287 283 283 287 290 294 297 296 297 299 297 301 297 299 305 321 334 332 334 337 338 340 343 345 346 344 343 343 343 344 345 345 346 347 348 347 347 348 348 348 348 346 345 345 343 343 343 342
291 288 283 286 288 289 296 298 299 299 297 304 302 296 297 305 330 336 334 333 333 337 340 341 342 344 342 342 341 342 342 343 343 345 344 344 344 345 346 345 346 346 343 343 343 342 342 342 340
297 287 283 286 289 291 299 297 299 301 300 300 301 301 304 319 333 333 331 330 329 332 333 338 339 340 342 342 341 343 344 343 342 343 342 340 340 341 342 341 343 343 339 340 341 340 339 338 337
292 286 287 293 294 293 297 297 299 298 299 299 300 303 305 310 324 327 327 326 325 327 331 336 336 337 338 339 341 340 343 344 343 343 340 338 337 337 338 338 340 339 338 339 337 338 336 335 333
288 286 292 295 298 295 293 295 297 294 294 298 298 300 301 302 302 321 324 328 331 331 330 333 334 335 335 336 338 340 339 340 340 339 337 335 335 336 332 334 333 333 336 334 334 332 330 329 332
286 291 293 294 297 294 292 293 294 294 296 299 299 300 299 299 300 303 317 323 326 334 333 332 332 333 334 336 336 337 337 337 337 336 334 337 337 336 332 333 329 328 328 330 330 330 328 328 331
289 292 294 295 295 294 295 293 293 293 297 297 298 298 297 297 298 300 301 305 316 327 334 334 333 333 333 334 335 335 336 337 337 335 335 338 337 335 333 332 331 326 327 329 329 329 330 329 331
291 291 292 292 292 292 291 291 291 294 296 295 295 295 296 297 298 297 297 299 301 315 328 336 334 334 332 333 333 333 334 335 334 335 336 337 336 334 332 332 331 330 329 328 328 327 329 330 330
294 290 291 292 292 292 291 288 289 294 292 293 293 295 295 296 296 296 298 298 300 304 315 331 335 334 332 333 332 332 333 333 332 333 335 335 334 332 331 329 328 328 329 327 323 326 327 327 328
288 287 284 290 291 293 290 285 292 294 292 293 293 294 295 295 296 296 297 297 299 299 305 315 336 335 333 333 334 332 331 332 332 333 333 333 332 331 329 327 328 328 328 328 326 326 326 327 326
284 280 282 286 291 290 287 285 291 294 293 291 291 291 293 295 296 297 299 298 299 298 301 310 330 335 335 334 335 334 331 332 332 332 333 332 331 329 328 327 327 328 328 328 327 326 326 325 325
280 280 280 282 287 286 285 286 290 292 290 291 290 290 291 294 298 306 307 308 309 305 299 304 323 334 336 337 335 334 333 333 334 332 332 331 330 327 327 327 326 328 327 327 327 325 325 325 325
285 283 282 283 287 285 285 286 288 291 288 288 289 293 300 301 304 305 306 307 307 307 303 300 312 331 335 336 332 331 330 331 333 333 332 332 331 330 329 328 325 326 326 326 326 325 324 322 325
284 281 281 284 287 285 285 286 289 289 289 293 297 299 300 301 303 304 304 305 306 305 306 306 305 326 334 335 334 331 332 332 333 332 332 332 331 330 330 328 326 325 325 325 325 325 323 323 325
284 282 283 283 286 287 284 282 284 289 295 299 299 299 300 300 300 301 302 303 304 303 304 307 308 320 332 334 334 325 328 326 325 328 328 330 331 329 329 328 326 326 326 324 325 325 323 321 323
281 288 287 285 283 279 285 277 282 289 293 296 297 297 298 299 300 299 300 301 302 303 304 306 310 314 331 334 332 329 328 325 327 327 328 328 329 328 329 327 326 325 327 326 325 325 324 322 319
285 290 288 286 283 281 282 279 280 290 290 293 295 299 298 298 298 296 298 299 301 302 302 306 309 316 330 333 331 327 327 327 326 327 320 325 326 327 327 326 325 326 326 325 324 324 323 323 321
291 288 287 284 282 276 281 279 278 284 291 293 296 300 300 297 297 297 298 298 298 300 301 303 308 320 330 332 330 326 326 320 324 325 324 325 325 325 326 327 326 325 325 324 324 324 323 322 322
288 283 277 275 275 275 283 280 282 288 294 296 297 297 296 295 294 294 294 294 295 297 299 301 305 314 329 329 328 326 324 321 323 324 324 323 323 323 324 324 323 323 324 324 324 323 323 323 322
286 284 278 273 275 276 283 278 283 294 297 299 298 295 294 292 293 292 293 293 293 295 297 299 302 307 327 327 327 326 320 320 320 321 322 323 323 323 324 323 323 323 322 324 324 323 322 322 322
286 281 286 280 281 277 279 283 289 295 295 296 293 292 290 290 290 291 292 292 292 294 296 298 300 305 324 325 324 322 320 319 319 320 321 322 323 321 321 322 322 324 324 323 323 323 322 322 322
285 288 280 280 275 274 277 279 280 288 291 291 290 289 289 288 288 289 290 290 291 293 295 297 299 304 323 323 323 322 321 320 320 320 319 320 321 321 320 320 321 322 323 323 323 322 323 322 322
280 280 283 283 282 276 274 275 289 288 289 288 289 289 288 287 287 287 288 289 290 292 293 294 298 302 309 321 322 320 319 319 319 319 319 319 318 319 319 319 320 319 319 319 319 320 320 320 321
284 285 284 277 276 279 279 277 291 289 289 289 288 288 288 287 287 287 287 288 288 289 291 292 295 299 303 309 319 319 318 319 318 318 318 316 316 316 317 318 317 317 317 318 317 317 318 318 318

GFSSGP_sfc_thetae_099.txt.gz
Theta_e
321 315 315 310 298 296 291 293 296 296 297 302 303 303 303 305 302 301 336 343 345 346 352 352 349 351 352 352 351 352 354 356 356 356 355 354 354 354 353 354 354 356 358 358 355 354 355 356 353
314 314 311 304 294 290 293 294 295 298 300 304 304 304 303 303 309 316 336 344 346 347 351 352 349 351 351 351 351 352 354 355 356 356 356 355 354 354 354 353 353 356 357 357 355 354 354 353 349
313 310 305 301 292 291 292 294 297 299 303 303 303 305 305 306 313 321 342 346 346 347 350 351 348 349 350 350 351 351 352 352 353 354 355 356 355 355 354 353 353 356 356 356 354 355 354 349 346
311 310 303 294 292 293 293 296 298 300 303 304 304 302 308 310 321 332 342 346 346 347 349 348 346 347 349 350 350 351 350 349 350 352 354 355 355 355 353 352 354 356 356 356 355 354 351 346 345
306 303 295 292 292 294 297 298 300 300 301 303 304 302 305 311 324 337 343 345 345 347 350 351 344 347 349 350 350 349 348 348 349 350 352 353 354 353 352 351 352 354 354 353 353 351 347 345 344
300 301 292 290 293 295 298 301 301 301 302 304 303 304 306 311 322 335 343 343 345 347 349 351 347 347 347 348 348 346 346 347 347 348 350 351 351 351 350 350 350 350 350 349 349 347 346 345 344
297 296 291 291 291 294 297 302 299 301 303 304 305 303 308 311 327 340 339 342 345 346 348 350 351 350 344 343 343 343 344 345 346 346 347 349 348 347 348 349 348 349 348 347 346 345 344 344 344
298 297 290 292 292 293 300 302 304 303 303 308 307 302 304 311 327 340 339 341 342 343 345 346 348 348 350 351 341 342 342 343 343 345 344 344 345 346 346 346 347 347 344 345 343 343 343 343 341
301 293 289 291 292 294 302 301 305 308 305 305 306 307 309 312 324 335 337 336 340 340 339 342 344 345 347 347 348 344 343 343 342 344 343 342 350 351 350 346 344 342 340 341 341 341 340 339 338
300 293 291 297 298 297 300 301 302 302 302 303 304 307 309 309 310 319 330 335 335 337 338 339 340 342 343 342 344 348 349 348 348 349 350 350 350 350 348 345 341 340 338 339 338 338 338 337 344
295 291 296 298 301 302 300 300 303 301 298 301 302 304 307 307 308 310 315 333 337 337 338 338 337 340 340 340 340 343 344 344 345 345 345 349 349 348 348 349 347 348 341 346 341 342 343 343 343
291 294 296 297 300 300 298 301 298 299 300 304 305 305 303 304 306 307 308 313 328 338 338 340 339 336 337 338 338 340 340 341 342 341 343 342 343 344 344 343 345 346 344 342 344 342 343 341 341
293 295 297 298 298 298 299 297 298 298 302 303 302 302 303 303 304 306 307 308 310 317 333 340 340 338 337 336 337 338 339 339 339 340 341 343 341 340 340 340 340 342 342 340 340 339 339 339 339
295 295 296 296 296 296 295 297 295 299 302 300 300 300 301 302 304 304 306 307 308 310 313 336 340 340 339 339 337 336 338 339 338 338 339 342 340 339 338 336 336 336 337 337 336 334 336 336 337
296 293 295 296 297 296 297 294 293 300 298 298 300 301 301 302 303 303 304 305 306 307 308 313 334 342 340 339 339 338 338 337 336 336 339 340 340 339 337 335 335 335 335 334 332 331 332 334 336
292 292 288 294 295 296 296 290 296 298 297 298 299 300 300 301 301 304 310 312 314 313 312 311 312 336 341 340 338 339 338 337 335 335 337 339 338 337 335 334 334 336 333 331 329 329 329 330 329
289 285 287 290 295 294 293 290 296 299 297 297 298 299 298 301 310 311 312 313 314 315 315 313 312 318 337 340 341 340 338 337 336 336 335 337 337 334 334 333 333 336 333 331 329 328 328 328 328
284 285 287 287 291 291 290 290 294 296 296 296 297 297 303 307 308 310 311 311 313 314 314 315 314 313 329 339 340 339 338 339 339 336 335 336 336 333 332 332 332 333 332 329 329 326 328 329 328
289 287 286 289 291 288 289 290 293 296 295 296 296 304 305 306 308 309 310 310 311 312 312 313 313 316 316 336 335 332 330 333 335 336 335 335 334 332 330 330 330 331 330 329 328 327 326 326 328
288 286 285 288 290 289 291 290 294 295 295 296 303 303 304 305 306 307 307 308 308 308 310 310 312 314 314 327 335 335 332 333 336 336 334 335 333 331 329 329 329 329 328 328 328 326 324 325 327
286 285 286 287 290 292 289 288 290 293 299 303 304 303 304 304 303 304 304 305 306 306 307 307 309 311 314 318 334 335 334 334 331 333 332 333 334 331 330 331 330 328 329 327 327 327 324 322 325
285 290 290 288 287 284 290 282 288 292 295 300 301 302 304 303 303 303 302 302 303 304 304 304 306 310 314 319 329 331 327 325 331 333 332 332 330 329 328 330 331 329 328 327 329 328 326 325 321
288 292 289 289 286 286 286 284 287 291 293 297 300 303 302 302 301 300 300 300 301 300 300 302 304 306 312 319 326 333 329 332 335 334 330 330 332 329 323 322 328 328 328 329 330 326 326 325 324
293 290 290 288 287 281 286 285 284 289 293 296 300 302 300 299 298 298 299 298 297 298 298 299 301 303 308 320 327 332 330 331 331 330 329 331 329 324 324 326 328 329 328 329 330 328 326 325 325
291 287 280 279 279 278 285 283 287 291 296 298 299 298 297 296 295 295 295 294 294 295 296 298 299 301 306 311 330 331 330 331 331 330 329 328 326 323 324 328 327 327 329 329 331 326 327 325 324
287 287 281 275 277 280 285 281 287 296 301 299 297 296 295 294 293 293 293 293 292 293 294 295 298 299 304 308 330 330 328 328 331 332 328 328 327 327 328 328 329 328 329 326 327 326 326 326 324
287 285 289 283 283 280 283 286 292 297 297 296 294 293 292 291 292 292 292 292 291 292 293 294 296 298 303 309 329 329 325 324 325 331 331 330 328 327 326 327 326 325 324 325 327 324 325 325 324
289 290 284 285 276 275 280 283 285 290 291 292 292 292 291 291 291 291 291 291 291 292 292 293 295 298 302 308 326 324 324 325 324 325 324 325 325 323 325 325 324 323 324 327 326 324 324 324 324
282 283 286 286 284 279 277 281 291 290 291 290 290 291 290 290 290 290 290 290 290 290 291 292 293 296 301 303 320 323 323 321 321 322 324 324 322 322 322 322 323 324 324 325 323 323 323 322 322
287 285 285 279 278 281 280 281 293 292 291 291 290 290 290 290 289 289 289 289 288 288 289 289 292 293 298 300 308 320 321 322 322 321 322 323 320 320 321 322 322 321 322 321 321 320 321 321 320

GFSSGP_sfc_thetae_102.txt.gz
Theta_e
322 319 322 316 304 302 301 301 304 303 303 307 308 307 307 310 306 306 323 349 349 349 356 355 350 351 352 353 353 355 356 357 356 355 355 355 355 354 354 354 355 356 358 359 356 354 355 357 356
318 316 317 313 300 299 302 304 301 304 305 309 309 309 308 307 313 319 327 344 349 349 355 356 350 350 352 352 352 353 357 357 357 356 355 356 355 354 354 354 354 356 358 358 355 354 357 356 352
316 317 311 306 302 299 302 302 304 305 307 307 307 310 309 308 316 321 331 344 349 350 353 353 349 349 351 351 351 352 354 355 355 355 356 356 355 355 355 353 354 357 358 358 355 356 356 350 349
313 312 310 301 301 304 302 304 304 304 307 308 308 306 312 317 318 324 335 349 349 350 352 349 346 348 349 350 350 351 351 351 352 354 355 356 355 355 354 353 355 358 357 357 356 356 351 347 346
314 310 302 300 302 305 305 305 305 304 305 306 308 306 309 316 321 328 336 347 350 351 353 355 343 347 349 350 350 350 349 349 351 352 353 354 355 354 353 351 354 355 356 355 354 353 348 346 345
306 308 299 299 303 305 305 307 306 305 306 307 307 307 311 316 318 327 336 346 351 353 354 356 348 347 347 348 348 347 346 347 348 350 351 353 353 352 351 351 351 352 353 351 351 348 346 345 345
304 303 300 301 301 302 304 307 305 305 305 307 310 306 312 315 318 327 336 346 351 354 354 355 356 352 345 344 344 343 345 345 346 347 348 350 349 349 349 350 350 349 348 348 349 346 345 345 344
305 303 299 300 299 300 305 306 307 306 306 312 312 305 307 316 317 323 333 342 348 351 354 354 353 353 355 355 343 343 343 344 344 346 346 345 346 347 348 348 348 348 347 347 345 343 344 343 342
306 298 297 300 299 301 304 303 308 311 308 309 311 310 313 315 316 317 322 332 345 348 351 350 350 350 351 354 352 345 344 343 343 345 344 343 352 353 353 348 345 347 343 344 342 341 342 341 340
302 298 299 303 303 301 303 304 305 304 304 305 308 312 312 313 314 314 315 319 340 344 347 350 350 348 348 346 349 352 353 352 352 351 352 351 352 352 348 346 343 343 341 341 341 339 339 340 348
301 297 303 301 303 303 302 303 306 303 301 305 305 307 310 311 313 314 314 315 323 339 345 347 349 351 351 347 348 347 349 350 351 353 352 352 351 352 350 349 350 351 343 347 344 345 346 345 345
296 299 300 301 302 302 301 303 302 303 303 307 307 309 309 309 310 311 312 314 315 320 332 344 347 349 350 348 346 346 345 346 345 347 350 350 349 349 349 347 347 348 348 346 346 344 345 345 344
297 298 300 301 301 301 302 300 301 302 306 308 308 307 308 308 309 311 312 313 314 315 318 329 344 347 348 348 346 346 345 346 347 346 346 346 346 346 347 346 347 347 346 347 345 344 343 344 342
299 299 300 302 302 302 300 300 302 303 307 306 306 306 307 307 308 310 311 313 314 315 316 319 327 343 346 345 346 345 345 346 344 343 343 345 345 347 343 344 344 344 345 345 344 343 343 343 342
300 296 298 300 300 299 302 298 299 304 306 304 305 306 306 307 308 308 312 316 318 320 321 323 321 328 341 344 345 344 343 344 343 342 344 343 345 346 344 341 341 343 344 344 344 343 342 340 339
296 297 293 299 300 301 300 295 300 304 303 303 304 305 305 306 307 313 317 318 320 321 322 323 323 323 326 339 341 344 344 344 343 343 342 343 343 343 343 339 340 340 341 339 338 336 334 334 337
295 291 294 295 301 300 299 295 300 303 302 301 304 305 305 306 312 315 316 317 318 319 321 323 325 325 323 326 337 341 345 345 344 342 342 344 343 342 342 339 339 340 338 337 335 333 333 332 335
291 292 294 293 297 297 296 295 298 301 302 302 304 304 305 309 311 314 315 317 318 318 320 321 322 324 326 324 328 337 338 343 344 342 341 342 343 341 341 340 338 338 335 337 335 333 332 331 331
293 293 293 295 297 294 294 294 297 301 302 302 303 304 307 310 312 314 315 316 317 318 317 317 319 321 322 322 319 330 333 338 339 341 342 342 342 341 340 338 336 335 334 334 333 331 328 329 332
292 291 291 294 296 293 294 295 299 301 301 302 302 306 307 309 310 312 313 314 315 315 316 315 316 317 318 320 321 325 332 334 336 340 343 341 340 341 338 336 333 334 333 332 333 332 326 328 331
290 290 290 289 294 296 295 293 296 298 300 304 306 307 308 308 308 309 310 311 312 312 312 312 313 314 316 318 320 322 331 334 336 336 339 340 340 339 337 335 332 332 333 332 333 331 328 324 327
287 293 291 291 291 288 295 287 293 296 298 302 305 306 307 307 308 308 308 308 308 309 309 308 308 310 311 315 317 321 322 328 332 334 336 337 336 335 335 332 331 331 332 332 333 332 331 329 323
290 294 292 293 291 291 291 288 292 295 294 300 304 306 306 306 306 305 305 306 306 306 305 302 303 305 306 308 310 318 321 332 333 334 333 333 333 333 334 332 332 331 332 331 333 334 334 332 327
295 292 293 293 291 284 289 289 290 292 295 299 304 305 304 304 305 304 305 305 305 305 303 300 299 300 303 305 308 313 323 327 332 332 331 330 331 331 332 333 334 332 331 330 329 331 334 332 330
292 288 282 280 281 281 290 288 291 296 299 301 303 303 303 303 303 302 302 302 302 301 301 298 297 297 300 302 305 313 324 325 333 332 332 328 328 329 331 333 328 329 330 331 330 329 333 332 329
289 288 282 276 279 283 289 284 291 301 303 303 302 302 302 302 301 301 300 300 300 299 300 297 294 295 298 301 306 312 328 329 335 333 332 330 330 332 336 331 327 327 329 330 331 330 334 333 332
290 287 293 286 287 284 287 290 298 298 298 299 299 300 299 299 299 299 299 299 299 298 298 294 293 294 296 300 303 312 334 335 333 332 332 331 337 336 332 329 327 327 328 330 329 331 332 329 327
293 295 286 288 279 278 284 286 289 293 294 295 296 297 298 298 298 297 297 297 297 297 297 293 293 293 295 299 302 310 330 331 332 332 332 329 334 332 331 328 329 327 328 329 330 330 328 325 326
288 289 290 290 287 281 280 286 294 293 293 294 295 297 297 297 296 295 296 296 296 297 296 292 291 292 293 296 301 305 326 328 329 329 328 327 329 330 328 328 325 324 326 327 326 325 327 327 323
287 287 287 283 282 285 285 285 296 295 294 294 294 295 295 295 294 295 295 294 295 295 293 290 290 290 291 294 298 302 304 314 323 323 324 326 325 328 328 327 324 323 325 325 326 325 325 324 322

GFSSGP_sfc_thetae_105.txt.gz
Theta_e
326 321 322 318 306 306 303 306 309 306 306 310 310 309 310 311 309 307 326 340 350 350 359 354 350 352 354 354 355 355 355 355 355 355 355 355 356 355 355 355 356 357 358 358 356 356 356 356 356
324 319 318 314 303 301 304 310 305 308 309 310 310 310 310 309 315 319 325 334 343 350 355 355 350 351 353 353 354 355 356 356 356 355 355 355 355 355 354 355 355 357 358 358 357 355 356 357 354
320 319 312 308 305 302 304 307 308 309 309 309 309 312 312 311 316 321 331 340 346 347 353 356 349 349 351 352 353 354 355 355 355 355 356 356 355 355 355 354 354 356 358 358 356 355 356 353 351
316 315 313 304 303 308 308 310 307 307 309 310 310 308 314 319 319 324 332 340 349 349 352 349 347 348 350 351 352 353 353 353 353 354 355 356 355 355 354 353 354 357 359 358 356 357 354 349 348
316 313 304 303 304 308 312 311 309 308 309 309 310 308 311 319 321 324 331 339 349 352 353 356 345 347 349 351 351 351 351 351 352 353 354 354 354 354 353 352 354 356 357 356 354 352 349 347 346
308 311 303 301 305 310 312 311 310 309 310 310 309 309 312 320 319 322 330 340 352 355 354 357 349 348 347 348 348 348 348 350 350 351 352 354 353 352 351 351 353 353 353 352 352 350 348 346 346
306 307 303 304 304 307 310 312 309 309 309 309 313 307 314 317 321 321 326 338 349 355 357 357 358 352 347 346 345 344 346 347 348 349 350 351 350 350 350 351 351 352 351 349 350 347 346 345 345
309 307 302 304 303 305 311 310 311 309 309 314 314 307 310 317 320 320 322 330 344 352 354 356 357 355 355 353 345 344 344 345 346 347 347 347 348 348 348 348 350 350 349 347 348 346 345 344 343
310 301 300 303 304 306 310 305 311 312 310 311 313 313 315 318 318 318 319 323 338 348 351 355 355 355 355 355 351 346 345 345 344 346 345 344 354 354 353 348 346 347 344 344 343 341 342 341 341
305 302 303 308 308 306 308 307 308 308 308 308 310 314 316 315 315 315 316 318 324 342 347 351 352 352 353 352 355 353 351 350 349 349 350 351 352 352 350 348 344 345 343 343 342 341 339 340 346
306 301 307 308 309 308 306 306 308 306 304 308 308 311 313 313 314 315 315 317 317 327 346 349 352 352 351 351 351 351 352 351 352 352 352 352 351 352 349 349 349 351 344 348 346 346 347 346 344
301 305 305 306 308 305 304 307 305 306 307 310 310 311 311 311 312 313 314 316 316 318 328 345 348 351 353 353 350 351 350 352 350 351 355 353 350 351 350 346 348 350 348 347 347 346 346 344 344
303 304 305 306 304 304 305 303 303 304 308 310 311 310 310 310 311 313 314 314 316 316 319 323 337 346 350 351 350 350 349 349 350 350 352 350 348 350 347 346 345 347 345 347 346 343 344 344 344
304 303 303 305 304 304 302 302 304 305 309 308 308 309 310 310 311 312 313 313 316 318 319 321 323 330 342 347 350 348 348 348 348 348 348 349 349 348 346 345 344 343 345 348 346 345 344 344 344
303 298 302 303 304 303 305 300 301 306 308 307 308 309 309 310 311 311 313 316 318 320 322 324 327 325 328 340 344 346 346 346 344 345 348 346 346 349 349 344 344 343 345 348 346 346 346 343 342
300 301 295 303 304 304 303 296 305 308 307 306 307 308 308 309 309 312 317 318 319 320 322 325 325 328 329 328 333 341 342 346 344 344 346 346 346 349 348 344 342 344 344 345 344 344 342 340 340
299 293 297 300 306 303 302 298 305 308 305 304 306 307 308 308 310 316 317 318 319 320 322 323 325 326 328 329 328 332 343 344 345 345 346 347 346 346 347 344 342 344 342 343 341 341 340 338 338
294 294 298 297 303 301 300 299 303 305 304 304 305 306 308 307 311 315 316 318 319 321 321 322 322 324 326 326 327 327 329 341 344 343 346 348 348 347 347 342 343 342 338 340 337 336 337 336 336
298 296 297 300 304 300 298 299 301 304 303 303 305 306 307 309 313 314 316 318 319 319 319 319 320 321 322 321 322 323 321 331 338 340 344 348 346 348 344 342 343 341 336 339 336 335 334 333 335
296 294 294 298 301 299 298 297 300 302 302 304 305 306 307 310 311 312 314 315 316 316 317 317 317 318 318 319 320 322 324 326 332 339 342 345 343 344 340 341 340 340 336 338 335 334 331 332 332
292 291 292 291 296 299 296 294 297 302 304 305 305 308 310 309 310 310 312 313 314 313 313 313 313 314 316 318 318 320 323 325 327 337 338 340 344 344 341 341 340 338 337 335 334 334 330 327 329
286 294 293 293 292 287 297 287 296 300 299 301 305 307 309 309 309 310 310 310 311 312 313 312 312 311 313 315 314 314 316 319 322 330 335 338 342 340 340 342 338 336 337 334 334 334 332 332 325
290 294 292 293 289 291 292 290 294 298 296 299 304 307 309 308 308 308 309 309 310 311 310 310 309 309 310 310 310 308 311 318 324 327 335 338 340 339 339 340 337 334 334 334 332 333 333 334 330
294 292 291 293 291 283 289 290 292 294 297 300 304 307 307 307 308 308 309 308 308 309 309 308 307 306 306 304 304 304 306 311 319 325 331 336 339 337 336 335 335 335 336 333 332 334 336 335 333
291 287 280 279 281 282 291 289 291 296 300 302 304 305 306 306 306 305 305 305 305 305 306 304 302 301 302 299 300 302 305 308 314 322 328 335 336 332 331 333 331 334 333 326 324 328 333 335 333
290 288 282 276 277 281 289 284 291 301 305 305 305 305 305 304 304 304 304 303 303 303 303 300 299 299 298 297 298 301 304 308 315 322 329 332 334 334 331 331 331 332 332 331 332 333 334 333 332
290 287 292 286 288 284 286 291 298 300 300 302 302 302 302 302 303 302 302 302 302 301 300 298 298 298 296 295 296 299 303 308 321 329 334 335 337 334 332 331 331 331 332 331 332 329 330 332 334
292 295 285 287 279 278 285 286 289 294 296 299 298 298 299 300 300 301 301 301 301 301 299 298 298 296 294 294 295 298 301 306 324 332 333 334 336 335 334 332 330 328 328 331 331 327 330 331 334
290 290 290 289 286 281 280 285 296 295 296 296 297 297 297 298 298 299 300 300 300 300 299 297 295 294 293 293 294 296 299 303 310 328 331 333 335 334 332 331 328 328 328 325 325 328 326 328 330
291 289 289 284 282 285 285 285 297 298 297 295 295 295 297 297 297 298 299 299 298 297 297 296 293 293 292 291 292 294 296 298 302 307 319 331 332 332 332 328 329 329 327 328 321 319 323 325 326

GFSSGP_sfc_thetae_108.txt.gz
Theta_e
323 319 319 315 304 304 300 303 310 306 306 310 311 308 307 309 308 306 330 335 344 354 352 351 350 352 354 355 355 355 354 355 356 355 356 356 356 356 356 356 355 357 359 359 356 356 356 356 355
319 321 316 310 302 298 301 308 306 307 309 311 310 310 308 308 315 318 325 335 343 351 356 351 350 351 353 353 354 355 356 355 355 355 356 356 355 355 355 355 355 357 358 358 356 355 357 356 354
321 320 309 306 302 298 301 308 307 308 310 309 308 312 311 312 318 320 330 337 345 347 357 353 348 350 352 352 353 354 355 354 354 354 356 356 355 355 355 354 354 356 358 358 358 356 356 354 351
315 313 310 302 300 305 306 310 309 308 309 310 310 307 313 320 319 323 330 336 346 350 354 346 346 348 351 351 353 353 353 353 352 353 355 356 355 355 354 353 354 356 358 358 357 356 354 350 349
315 311 302 301 302 306 309 311 311 307 309 310 310 307 310 318 321 323 329 338 348 354 354 351 345 348 350 351 352 352 352 351 352 352 353 354 354 354 353 352 353 355 357 356 355 354 351 348 347
307 309 300 298 302 307 311 313 311 309 310 310 309 309 311 320 320 322 327 339 352 356 357 351 349 348 348 348 349 349 349 350 351 351 352 353 353 352 352 351 352 353 353 353 351 350 348 346 346
304 304 300 302 302 305 309 314 310 309 309 309 313 308 314 317 321 322 326 332 349 357 361 356 353 349 347 346 345 345 347 348 349 350 350 351 350 349 350 350 351 352 351 350 350 348 347 345 345
307 304 300 302 301 302 310 311 311 309 308 314 314 307 308 319 321 322 323 324 340 354 356 358 355 352 350 349 345 344 345 346 347 348 348 347 348 349 349 348 349 350 349 348 349 347 345 344 343
310 300 297 300 302 305 311 309 311 313 310 311 313 312 315 319 319 318 320 322 328 349 352 354 352 352 352 351 348 345 346 346 345 347 347 344 352 350 350 347 346 348 345 344 346 345 343 342 341
304 299 300 306 308 307 309 308 309 307 308 308 310 314 317 317 317 315 315 317 326 332 350 352 351 350 352 351 350 348 348 346 347 347 348 350 351 352 350 347 344 345 343 343 343 342 340 339 342
305 300 304 306 308 309 307 306 309 306 304 308 308 311 314 315 317 318 315 315 318 328 346 350 351 349 348 349 351 349 348 347 347 347 347 348 348 349 347 347 346 346 343 346 342 341 343 343 342
301 305 306 306 307 306 304 307 305 306 307 311 311 312 311 310 312 314 313 315 317 328 326 348 350 350 349 349 348 351 351 348 347 347 348 348 346 346 347 345 346 347 346 344 343 343 343 342 342
303 305 306 307 307 306 306 303 303 304 308 310 310 310 310 310 311 313 314 315 323 322 322 324 330 345 349 347 349 348 347 349 348 350 349 347 346 345 345 344 344 345 345 344 342 342 342 341 340
304 304 304 304 304 305 303 303 304 305 308 307 308 308 310 310 311 312 314 317 317 320 322 325 328 329 329 346 346 346 348 347 349 348 348 349 348 344 343 343 341 344 343 343 342 341 339 339 339
305 300 302 303 304 303 305 300 301 307 308 307 307 308 309 310 311 311 315 316 319 321 323 326 328 331 331 330 334 345 345 346 345 346 347 346 346 346 344 342 340 340 342 340 342 340 341 339 338
299 300 295 302 304 305 303 295 303 308 307 306 307 308 309 310 310 312 315 318 319 320 323 325 325 328 330 331 330 329 331 344 344 344 345 346 345 344 343 342 339 341 340 341 341 340 338 337 336
298 292 295 298 306 304 303 299 305 307 307 305 306 307 308 308 310 314 317 319 318 319 322 323 325 325 326 329 329 329 329 327 342 343 342 344 343 342 343 342 341 341 339 339 340 338 337 335 334
292 293 296 297 302 304 301 301 304 306 306 304 305 306 307 307 308 315 316 318 318 320 321 321 321 323 324 324 327 327 326 326 327 338 342 343 344 342 342 342 341 340 339 338 339 336 337 335 334
297 295 294 298 302 300 300 299 302 305 305 304 304 305 306 308 313 315 317 318 317 318 317 317 317 318 318 318 318 319 320 323 324 331 337 341 342 342 341 341 340 339 337 336 337 334 333 331 332
296 294 293 297 300 299 297 295 298 303 303 304 304 304 305 308 311 312 314 315 316 315 314 314 313 314 314 315 316 317 317 318 321 324 326 335 338 339 340 340 339 338 336 335 335 333 330 331 332
293 292 292 292 296 297 295 292 296 301 303 304 305 305 307 309 309 310 311 312 314 312 312 311 311 311 312 313 313 314 315 316 318 320 321 324 336 338 339 340 339 336 335 333 334 332 329 327 330
289 296 294 292 290 285 294 284 292 297 299 301 303 305 308 309 309 309 309 309 311 310 311 310 310 309 310 310 308 308 308 308 312 315 320 324 336 336 338 339 338 335 334 332 332 333 330 328 325
291 295 293 292 289 288 288 285 290 296 295 298 302 306 308 307 308 307 307 307 308 308 308 308 307 306 306 306 305 303 302 306 309 313 315 320 324 335 336 337 336 334 333 331 333 332 330 328 325
296 291 291 291 288 280 287 285 286 292 296 299 303 305 306 306 306 306 306 306 305 306 306 304 303 302 303 303 301 299 299 301 303 306 310 314 322 329 334 334 337 336 333 331 331 326 330 328 328
292 287 280 279 280 279 289 286 288 296 300 301 303 304 305 305 304 303 302 302 303 303 303 301 300 300 301 301 298 297 298 299 300 303 306 310 316 324 327 333 334 334 332 331 331 330 329 328 327
289 287 281 275 278 281 289 283 288 300 303 304 304 303 303 302 302 301 301 301 301 301 301 299 298 298 299 298 297 296 297 299 301 304 307 309 315 322 328 330 332 332 332 331 331 329 327 324 323
289 285 291 284 284 281 285 289 295 300 300 301 301 300 299 299 299 299 300 301 300 300 299 298 296 295 296 296 295 295 297 299 300 303 307 312 317 322 330 332 331 331 331 331 324 322 323 322 326
293 295 284 284 277 277 284 286 287 294 295 297 296 296 296 297 297 298 299 299 299 299 298 298 296 293 294 294 293 294 295 298 300 303 306 316 321 327 330 331 331 329 330 329 326 326 327 329 328
290 288 289 288 286 280 279 283 293 291 294 294 295 295 296 296 296 296 298 298 297 297 296 296 294 292 291 292 292 293 293 295 297 299 301 304 309 327 329 330 330 329 328 328 328 327 327 326 325
293 289 289 284 282 285 284 283 295 293 295 295 295 295 296 296 295 295 296 296 295 294 293 293 292 291 290 290 291 291 291 293 294 295 298 302 302 311 327 329 329 328 326 326 326 324 324 323 318

GFSSGP_sfc_thetae_111.txt.gz
Theta_e
318 313 311 307 295 294 291 295 299 298 298 302 306 304 301 302 306 303 324 333 347 347 350 350 350 353 354 354 353 352 354 355 355 355 355 355 354 354 354 354 354 357 358 357 356 355 355 355 354
315 316 309 301 292 288 291 299 296 299 304 306 307 306 304 305 314 319 321 331 345 348 349 349 349 351 353 353 353 352 355 355 355 355 355 355 354 354 354 353 353 356 358 358 355 355 356 355 352
316 317 300 295 291 289 292 299 299 303 306 305 304 307 309 310 315 319 326 336 342 350 348 349 348 349 351 352 352 353 353 353 353 354 355 355 354 355 355 353 353 356 359 359 356 356 356 352 350
308 304 300 292 291 296 298 303 302 303 304 306 303 305 309 318 316 320 331 340 342 348 349 346 345 348 350 351 352 352 352 351 351 352 354 355 355 355 354 352 353 356 357 358 359 356 353 350 348
308 300 292 291 293 298 303 306 304 304 304 305 305 304 306 314 318 321 330 341 342 348 348 346 344 347 349 351 351 351 351 350 350 351 352 353 354 353 352 351 352 354 355 356 355 353 351 348 347
298 298 289 288 294 301 304 305 306 306 306 306 304 305 305 314 314 315 323 337 344 349 349 346 347 347 347 348 349 349 349 349 349 350 351 352 352 351 350 350 350 351 352 352 351 350 348 347 346
295 292 290 292 295 299 304 308 304 305 306 305 311 304 307 312 313 314 314 321 344 349 348 346 346 347 345 344 345 345 347 348 348 348 349 350 349 348 349 349 350 350 350 349 349 348 346 345 344
298 294 291 293 294 295 304 307 305 305 302 312 311 303 301 310 313 312 311 312 343 346 348 346 345 345 343 343 343 344 345 346 346 347 347 346 347 348 348 347 348 349 348 348 348 346 345 343 342
299 290 291 292 294 298 306 303 306 306 305 307 308 308 311 314 312 309 308 311 327 344 344 348 347 346 344 343 344 344 345 345 345 347 346 344 347 347 348 346 345 347 344 344 345 344 342 341 340
295 289 292 298 301 300 303 303 303 303 304 305 305 311 313 313 310 308 306 307 309 334 341 343 346 346 347 348 343 341 344 343 344 345 346 348 346 347 349 345 343 344 343 343 343 342 340 339 339
297 294 299 301 303 304 302 302 305 300 300 304 304 307 310 310 308 308 307 306 308 334 343 343 345 345 347 347 343 342 342 341 342 342 344 344 347 346 346 345 344 343 343 343 342 340 340 339 339
297 302 302 303 304 303 302 304 302 301 302 305 305 306 306 306 306 308 306 307 308 308 336 344 344 343 341 343 347 345 342 341 341 341 342 343 342 341 344 343 343 342 343 341 341 340 339 339 340
299 301 303 304 303 302 303 300 301 302 303 305 305 306 305 305 305 306 307 307 306 310 314 319 335 338 342 341 342 344 344 343 343 342 343 344 342 341 341 342 343 343 343 342 340 340 340 339 339
302 302 302 303 302 302 301 301 301 302 303 303 304 304 304 305 305 304 304 304 310 313 316 317 319 321 323 327 334 339 338 340 343 343 343 344 344 342 341 340 340 342 343 342 341 339 339 339 339
302 296 298 299 299 298 301 297 298 304 304 303 304 305 304 304 305 304 306 308 311 315 316 318 320 320 321 325 324 325 333 340 338 340 341 344 343 341 341 339 338 341 342 341 340 337 338 337 337
296 295 290 296 299 301 300 293 301 303 302 301 304 304 304 303 305 305 309 310 312 315 315 317 319 318 318 319 321 322 324 324 331 338 339 340 342 341 340 338 335 335 340 338 339 337 335 335 334
292 287 289 293 300 300 299 295 302 304 305 303 303 302 301 302 306 309 309 311 313 313 314 314 315 315 316 317 318 319 320 321 323 327 335 339 341 341 340 338 337 336 335 336 336 334 336 333 333
285 287 289 290 294 298 296 296 300 304 304 302 301 298 299 300 306 310 312 312 312 312 312 312 313 312 312 313 315 315 316 318 319 320 324 336 339 341 339 338 338 336 335 332 334 335 334 335 333
292 291 289 293 297 296 295 295 295 299 301 301 299 299 299 306 309 311 310 310 310 309 309 309 309 309 309 309 309 310 311 313 314 316 319 320 333 338 339 338 337 339 337 335 334 334 333 327 331
291 289 289 293 296 295 293 291 295 298 299 301 302 299 300 307 308 308 308 307 307 306 306 306 306 306 306 308 308 308 309 311 313 315 317 318 320 324 337 338 337 338 336 334 333 333 328 327 330
291 289 289 288 292 294 291 289 292 297 300 303 304 302 303 306 305 305 306 305 305 304 304 304 304 304 304 305 305 304 305 306 307 309 311 313 316 319 324 336 337 337 335 334 332 329 329 324 326
287 293 292 290 288 283 290 281 289 293 295 299 303 301 304 304 304 304 303 302 302 302 303 302 302 301 302 302 301 299 298 298 301 303 307 309 311 314 319 325 334 336 334 331 328 322 322 318 323
290 293 291 290 286 287 286 283 286 292 292 296 300 302 303 302 301 300 300 301 301 301 299 300 300 300 300 300 299 297 296 297 300 301 302 305 307 311 315 321 328 331 332 331 323 320 323 326 326
295 291 290 288 287 279 284 284 283 287 292 296 301 302 301 299 300 300 301 301 299 298 297 297 298 298 299 298 297 296 295 296 296 298 299 302 304 307 311 318 325 330 330 330 328 325 326 326 326
290 285 278 275 278 276 287 285 285 292 297 300 301 300 299 299 298 298 298 297 298 296 296 297 295 294 295 296 296 295 294 295 295 297 299 301 303 306 308 315 320 326 328 329 328 328 328 327 325
287 285 278 273 274 280 287 281 287 299 301 300 299 298 298 297 298 297 297 296 295 296 295 293 293 291 292 294 294 294 294 295 296 298 300 301 303 307 310 312 318 321 326 328 329 328 325 322 326
289 283 289 282 282 277 281 288 295 293 297 297 296 296 294 295 296 296 296 295 295 294 294 293 292 291 290 292 292 293 294 294 294 296 299 301 305 308 312 312 316 315 319 321 327 326 323 321 317
291 292 282 283 275 275 281 284 281 287 288 292 292 292 293 294 294 295 294 293 294 293 293 291 291 292 290 290 290 292 292 293 293 295 297 298 301 304 307 316 317 320 316 321 326 325 323 323 322
288 287 288 287 285 278 277 282 287 285 290 290 291 292 291 292 292 292 292 292 292 291 291 291 290 290 289 289 289 290 290 291 292 293 294 295 298 301 305 308 322 324 325 325 324 324 322 321 320
292 288 288 281 280 283 282 282 293 291 292 293 292 291 291 291 290 290 290 290 289 289 289 290 290 289 289 289 289 289 289 290 290 291 292 294 295 297 300 306 316 324 324 324 324 323 323 322 322

GFSSGP_sfc_thetae_114.txt.gz
Theta_e
316 310 309 305 295 291 288 292 297 297 297 301 304 302 299 300 305 301 324 339 347 346 349 351 350 352 353 353 353 353 354 354 354 354 353 354 354 354 354 354 355 357 358 356 355 355 355 355 353
312 314 306 298 290 285 288 296 296 298 302 303 305 304 303 306 316 320 321 337 346 347 348 349 350 352 352 351 351 352 354 354 354 354 354 353 353 353 353 353 353 356 357 356 355 354 354 355 351
314 314 300 293 288 287 289 296 298 302 304 303 302 306 308 308 316 319 325 342 347 347 347 348 348 350 352 351 351 351 353 352 353 353 354 354 354 354 353 351 353 356 358 356 354 354 355 351 349
307 301 298 291 289 293 295 299 301 301 303 303 301 303 309 316 315 323 334 341 346 347 346 345 345 348 350 351 351 351 351 350 350 352 353 354 354 354 353 351 353 356 358 358 356 355 353 349 347
304 297 291 287 290 295 299 301 302 303 302 303 302 303 305 313 322 330 336 338 345 346 345 346 343 346 349 351 351 350 349 349 349 351 352 353 353 353 352 350 352 354 356 356 356 353 350 348 347
296 295 288 287 291 297 299 302 303 304 304 303 302 303 303 313 314 324 335 336 346 344 345 345 346 346 347 348 348 347 347 348 348 349 350 352 351 350 350 349 350 351 351 351 351 349 348 347 345
293 291 287 287 291 294 300 304 302 302 304 303 308 302 306 309 310 311 322 339 345 346 343 344 345 347 344 343 344 344 346 346 347 347 348 349 348 347 348 349 349 349 349 348 348 347 346 346 344
296 292 287 288 290 292 299 303 304 302 302 311 309 301 301 309 312 310 310 334 343 345 342 342 343 344 343 343 342 343 344 344 345 346 345 345 345 346 346 346 347 348 347 347 347 346 345 344 341
297 288 285 289 291 294 302 301 301 305 302 304 307 306 310 313 310 307 306 312 339 343 342 341 341 342 341 342 343 343 345 344 344 345 344 343 347 346 346 345 344 345 343 344 345 344 342 340 339
293 287 290 295 296 297 301 301 301 301 302 302 303 308 311 311 307 306 306 307 326 337 340 343 342 341 341 344 342 341 344 345 346 347 347 347 347 345 347 344 341 343 342 342 342 342 340 339 339
293 291 296 299 301 301 301 302 304 300 298 302 302 304 307 307 306 305 305 306 306 313 339 341 342 342 341 342 340 339 340 339 341 343 345 345 344 346 345 344 343 342 342 342 342 341 341 339 338
293 298 300 300 302 300 299 300 300 299 300 304 304 304 304 304 306 306 305 307 306 321 338 341 341 340 341 341 340 339 339 338 339 340 341 343 343 343 344 344 342 341 342 341 341 341 339 338 338
297 298 300 302 302 301 302 300 300 300 303 303 303 304 303 303 304 304 306 304 312 316 327 333 334 330 335 342 342 343 341 339 339 339 341 342 341 341 343 343 342 341 341 341 340 339 338 338 337
299 299 298 299 298 299 299 299 298 301 303 304 304 303 303 303 303 302 303 305 310 314 316 318 319 320 323 324 325 332 338 338 338 339 339 341 340 340 340 342 341 341 341 341 340 339 338 337 337
300 295 297 297 296 296 300 296 296 302 302 302 304 305 304 302 302 302 303 309 314 314 315 316 317 316 317 317 320 322 324 328 334 339 338 339 341 340 340 339 340 342 342 341 340 338 337 337 336
294 293 287 293 296 298 294 291 297 302 301 299 300 303 304 302 303 304 310 312 312 313 313 312 314 312 312 313 315 317 319 320 323 325 331 337 342 342 339 339 339 338 341 340 339 338 335 335 335
289 283 287 290 297 295 294 293 298 302 302 300 301 302 304 303 304 306 310 310 310 310 310 309 309 309 310 310 311 312 313 315 316 318 320 328 334 338 339 338 338 336 336 338 338 337 335 333 333
283 285 285 285 291 293 292 293 298 299 298 299 300 301 303 301 305 309 309 308 308 308 308 307 307 307 308 308 308 309 310 311 313 313 316 318 319 326 334 337 337 335 333 334 335 336 335 333 333
290 288 287 290 293 292 291 292 294 297 297 297 298 301 302 305 307 307 307 306 306 305 305 305 304 304 304 304 304 305 304 306 308 310 313 315 317 319 319 331 336 334 334 334 332 332 329 329 331
291 288 287 291 293 292 289 290 294 296 296 297 297 300 305 305 305 305 304 303 303 302 302 301 301 301 301 302 302 302 302 304 305 308 308 310 311 313 314 317 325 335 334 332 330 332 329 331 331
289 287 287 287 290 291 289 287 290 294 296 298 299 300 306 305 303 302 301 300 300 299 299 299 299 299 300 300 300 299 299 300 301 301 302 305 306 308 310 312 316 318 331 334 333 329 329 326 326
286 292 291 289 286 281 289 280 287 290 292 295 297 300 302 301 301 300 299 297 297 297 298 298 299 298 299 298 297 295 294 293 297 298 300 301 304 305 308 311 313 316 321 328 333 329 327 321 316
289 292 290 289 284 283 285 280 285 291 289 292 298 299 299 300 299 297 297 296 296 296 295 296 295 295 296 296 295 294 293 294 295 298 299 300 302 304 306 307 309 312 315 321 331 326 319 319 315
294 290 288 287 284 275 282 282 280 285 291 295 299 298 298 298 297 297 297 297 295 295 294 294 293 291 293 294 293 295 293 293 294 295 297 299 302 303 306 307 308 311 315 320 327 327 324 319 318
289 284 279 273 276 275 285 282 283 293 295 298 294 294 295 296 295 294 293 293 293 293 292 293 292 290 290 291 291 293 293 294 294 294 296 296 298 300 303 305 308 309 312 317 325 323 321 321 320
286 285 278 272 273 276 285 277 285 292 291 294 295 295 295 294 294 293 292 292 292 292 291 290 290 290 290 290 290 292 292 293 293 293 294 295 298 300 302 304 307 309 311 314 320 326 324 321 323
287 281 287 282 281 274 279 284 290 289 288 288 288 290 291 292 292 291 292 291 291 291 290 289 290 290 289 289 289 290 291 291 292 292 294 295 296 298 299 300 303 306 313 313 317 323 322 323 324
289 290 282 281 274 273 279 280 280 285 285 287 286 286 286 290 290 290 290 289 289 290 290 290 290 289 289 289 289 290 290 291 291 292 292 293 294 295 296 298 301 305 312 314 315 318 323 322 322
287 286 287 285 281 276 275 278 287 286 289 287 287 288 289 288 288 288 288 289 289 289 289 288 288 288 287 288 288 288 288 289 290 290 290 290 292 293 295 296 299 304 307 318 315 316 321 322 322
292 288 288 279 277 280 279 281 291 291 293 290 289 288 288 287 287 286 286 287 287 287 288 287 286 286 287 288 288 287 288 288 288 288 288 289 289 291 292 294 296 299 300 305 321 317 320 320 320

GFSSGP_sfc_thetae_117.txt.gz
Theta_e
314 307 307 303 294 290 287 291 294 296 297 300 302 300 299 300 303 296 322 335 346 345 350 350 350 352 353 353 352 353 353 354 354 354 354 354 355 354 354 355 356 357 359 358 356 355 355 354 350
313 311 304 296 290 285 288 293 294 297 300 302 303 302 302 307 317 320 321 341 345 346 348 350 350 351 352 352 352 352 354 354 354 353 353 353 354 354 354 354 354 356 357 357 356 355 355 354 349
311 310 298 292 287 286 288 293 297 302 303 300 301 303 307 308 317 320 325 343 345 345 347 349 349 349 351 350 351 351 352 352 352 352 353 353 353 354 354 353 354 356 357 356 354 354 355 351 347
306 301 297 291 288 292 293 296 300 300 303 301 300 301 307 313 317 322 333 345 343 344 346 345 346 348 350 350 350 351 351 349 350 351 352 353 353 353 353 351 354 356 357 356 355 355 352 348 346
302 296 291 288 289 293 296 300 301 300 301 301 300 300 304 314 323 330 338 344 343 343 344 345 344 347 350 350 350 349 349 348 349 350 351 352 352 352 350 349 352 354 355 355 354 353 350 347 346
296 294 288 286 289 294 297 300 300 301 301 302 302 300 303 310 318 327 332 335 343 342 343 344 346 346 347 348 348 347 347 347 348 349 350 351 351 350 350 349 350 351 352 352 351 349 348 347 346
293 290 286 286 290 293 298 302 299 300 301 300 304 301 304 307 310 319 332 337 342 343 341 341 344 346 345 343 344 344 345 345 346 347 347 348 347 347 348 348 348 349 349 348 349 347 346 346 344
294 291 287 287 289 291 297 300 301 300 301 306 306 300 300 307 311 308 326 336 341 341 340 339 340 342 342 342 341 342 343 344 344 345 345 345 345 345 346 346 347 347 347 347 347 346 345 345 343
295 288 284 288 290 293 299 298 299 303 301 302 303 303 307 311 308 304 306 327 335 341 338 338 338 339 339 340 342 343 345 344 343 344 343 341 345 344 344 344 344 345 343 344 345 344 342 341 340
292 286 288 294 294 295 299 298 299 299 300 301 301 305 308 309 307 305 304 310 333 336 338 338 338 338 338 343 340 340 342 344 344 345 343 345 346 344 344 343 341 342 341 341 342 342 340 340 337
290 289 293 296 298 299 297 300 300 297 297 300 300 302 304 304 305 305 304 304 319 337 338 340 339 339 338 339 337 337 339 342 345 344 345 345 343 344 344 344 342 341 341 340 341 340 340 339 338
291 295 297 297 300 299 298 300 298 299 300 303 302 303 302 301 302 305 304 304 304 317 329 339 340 340 339 341 337 336 338 337 338 342 343 343 342 342 342 342 343 341 340 340 340 341 341 339 337
295 297 299 299 299 298 300 297 298 298 302 302 302 302 301 301 302 302 304 303 309 318 331 332 327 329 336 339 339 341 338 336 336 336 340 342 341 341 341 341 342 341 340 339 339 340 340 338 337
298 297 296 297 297 298 297 297 296 299 302 301 302 302 302 301 302 301 300 302 312 316 316 317 317 318 321 321 323 326 329 335 339 336 337 338 339 339 340 341 340 340 340 339 339 339 339 339 338
298 293 295 296 295 295 297 292 293 298 300 300 301 302 303 304 303 300 302 306 312 314 314 313 313 313 313 314 315 317 319 324 326 327 332 336 338 338 338 338 340 341 340 339 339 337 337 337 337
293 291 286 292 294 296 293 288 296 298 300 299 299 300 302 303 304 302 305 310 310 310 309 309 311 310 309 310 311 313 314 315 316 322 324 327 329 332 338 338 338 340 339 338 338 337 336 336 336
287 282 285 289 295 293 292 290 295 299 299 299 298 298 299 301 302 306 307 307 307 306 306 305 306 306 307 307 308 309 309 310 312 313 315 319 321 323 324 330 338 338 337 337 337 337 337 335 335
282 283 280 284 290 292 290 291 295 296 297 297 297 297 297 299 303 306 305 305 304 303 304 304 303 303 303 304 305 305 304 304 307 308 310 312 315 316 317 320 327 334 333 334 335 334 335 334 334
288 286 285 287 292 290 290 290 292 294 294 295 296 296 297 302 303 304 303 302 301 301 300 300 300 300 301 300 299 300 298 301 302 305 305 306 309 310 310 312 314 320 330 331 330 331 330 332 333
289 287 286 289 292 290 288 289 293 293 293 295 296 294 300 301 301 301 300 298 298 297 298 298 298 298 298 298 298 298 297 299 300 301 301 304 303 305 307 307 309 313 315 321 331 331 328 327 329
289 287 287 286 289 290 288 286 288 293 294 295 296 297 302 301 299 298 297 296 296 295 296 296 296 296 296 297 296 296 297 296 297 296 298 300 302 303 304 305 307 309 311 312 319 330 330 327 324
285 290 289 288 285 279 287 278 287 288 292 296 298 297 298 297 297 296 295 295 295 294 294 293 293 294 295 295 294 293 292 292 293 294 297 299 301 303 304 305 305 306 309 311 315 322 329 329 320
287 292 289 288 283 281 283 279 282 289 290 294 295 295 295 296 296 295 294 294 294 294 293 292 291 291 292 292 293 293 293 294 296 296 296 297 301 302 304 306 306 306 307 309 311 314 322 328 327
293 289 287 286 282 274 281 280 278 285 287 291 296 295 295 294 294 294 295 294 292 292 292 292 291 290 291 291 292 292 292 292 293 293 294 295 297 299 302 304 305 306 308 309 311 313 319 326 324
288 288 281 275 275 275 284 280 283 287 288 291 290 291 291 291 291 291 291 291 291 290 290 291 290 289 289 289 290 292 292 292 292 292 292 293 295 297 299 300 301 303 306 309 310 311 314 322 323
286 285 279 273 273 275 283 275 283 289 290 290 290 290 289 288 289 289 289 289 290 289 289 289 289 288 289 289 290 290 291 291 292 292 292 293 294 295 297 298 299 300 303 305 308 311 312 317 323
286 281 286 281 281 275 278 283 288 289 288 288 288 288 287 287 287 286 287 288 288 289 289 288 288 288 288 289 289 290 290 290 290 291 292 291 292 293 295 295 297 298 300 303 307 312 312 315 322
289 290 280 281 274 273 277 279 277 284 285 288 287 286 286 287 287 287 287 287 288 289 289 288 287 287 288 288 289 289 289 290 290 290 289 289 290 291 292 293 294 296 298 302 304 307 314 314 321
287 284 285 283 279 274 274 275 283 286 288 287 287 287 286 286 285 285 286 287 287 288 288 286 286 286 286 288 288 288 288 289 288 288 287 287 288 289 289 290 292 293 294 296 297 299 314 313 316
291 288 286 276 276 281 274 275 291 290 291 289 289 287 286 286 285 285 285 286 286 286 285 284 285 285 286 288 288 288 288 288 287 286 286 287 286 287 288 289 290 290 291 293 293 294 299 314 315

GFSSGP_sfc_thetae_120.txt.gz
Theta_e
314 307 306 302 294 290 287 290 292 294 297 298 300 298 297 300 307 299 319 329 343 345 348 348 350 352 353 352 352 352 354 354 355 355 356 356 355 355 355 355 355 356 358 359 356 356 355 351 349
311 309 303 296 291 287 287 291 294 296 301 302 300 300 302 306 316 319 322 340 343 346 347 347 350 351 352 351 352 352 354 354 354 354 355 355 355 355 354 354 355 356 358 358 355 355 355 352 347
309 306 298 291 287 287 287 292 297 300 302 300 298 302 306 307 316 320 322 343 344 344 347 348 349 349 351 351 351 351 352 352 352 353 354 354 354 354 354 353 354 357 358 358 355 355 355 350 346
305 300 296 291 287 290 290 295 297 299 301 301 299 299 306 312 317 319 335 343 341 343 346 346 346 348 350 350 350 351 350 349 350 351 352 354 354 354 353 352 354 357 357 357 356 355 352 347 345
299 295 289 287 287 291 295 298 298 298 299 300 300 299 303 312 322 330 340 343 340 341 343 344 344 347 349 350 350 350 349 348 349 350 351 352 353 353 352 351 353 354 355 355 354 353 349 346 345
295 294 287 286 288 293 296 297 298 299 300 300 299 300 301 309 319 328 333 338 342 341 342 343 347 347 347 347 347 346 346 347 347 348 349 351 351 350 350 350 351 352 352 351 350 349 347 346 345
293 290 287 287 289 291 297 300 298 298 299 299 303 300 303 307 309 315 326 333 339 341 340 341 343 346 345 343 344 343 344 345 346 346 347 348 347 347 348 348 349 350 349 349 348 347 346 346 345
293 291 286 286 288 289 295 298 300 299 297 305 304 297 298 306 309 307 311 332 336 339 338 337 339 341 342 341 341 342 343 343 343 345 344 344 344 345 346 346 346 348 348 347 348 346 345 344 343
294 287 285 288 289 292 297 296 298 301 299 300 302 301 305 309 308 304 303 316 333 339 337 336 337 339 339 339 342 343 344 344 342 343 343 339 343 342 343 343 343 345 343 344 345 344 342 341 341
291 286 288 292 292 292 295 296 298 298 299 299 299 304 306 306 305 304 303 303 316 333 336 336 336 337 337 341 339 340 341 342 343 345 345 345 346 345 343 342 341 342 341 342 342 342 340 340 339
289 288 291 293 296 296 295 297 299 295 296 299 300 302 304 302 301 302 304 303 304 325 335 337 335 336 337 339 337 337 339 343 344 345 345 345 344 344 343 343 341 338 341 340 340 340 340 339 338
290 293 294 295 298 296 296 297 296 298 300 303 301 302 301 300 301 301 301 303 303 303 327 336 336 336 337 338 336 336 338 340 341 343 343 343 341 341 341 341 342 341 341 340 339 341 342 339 338
293 295 298 298 297 297 298 296 297 296 300 300 301 301 301 301 301 302 301 300 302 302 326 338 341 340 339 340 340 337 335 337 338 339 341 342 341 339 340 341 341 340 341 340 339 340 341 340 339
295 296 295 296 297 296 295 295 293 296 298 299 300 300 301 301 302 301 302 302 305 317 321 317 321 326 324 323 324 325 328 331 336 335 337 339 339 339 339 340 340 340 340 340 340 339 339 338 339
296 291 293 294 293 294 294 290 290 296 297 297 297 300 300 301 301 301 301 300 311 312 311 311 313 314 314 315 316 317 319 321 323 325 327 329 330 328 333 338 339 340 340 337 339 338 338 338 337
291 290 285 291 293 294 293 286 293 296 297 297 297 298 300 300 301 305 306 306 305 306 305 306 309 308 309 309 311 313 313 314 315 316 320 320 323 324 326 324 329 338 341 338 338 337 336 336 336
287 280 284 288 293 292 290 287 294 298 297 295 297 296 296 297 302 302 302 302 302 302 302 302 303 303 304 306 307 307 307 308 308 310 310 312 315 317 316 321 324 328 333 336 336 336 335 334 335
281 282 280 283 288 290 289 290 293 294 293 295 296 294 295 300 299 301 300 300 299 299 299 300 300 300 301 302 303 302 302 303 303 305 305 307 308 309 309 312 314 316 323 332 333 331 333 332 333
287 284 283 285 291 289 289 289 290 293 293 292 293 293 294 298 299 298 297 297 297 297 297 297 297 297 298 298 298 299 297 300 300 300 302 303 303 305 305 307 308 312 313 315 323 331 326 326 331
288 285 285 288 291 289 287 287 291 291 292 294 295 296 297 297 296 295 295 294 293 293 293 293 294 295 295 296 296 296 296 298 299 298 299 300 301 303 303 303 304 307 309 310 312 321 328 328 330
287 285 285 286 288 288 287 284 286 291 296 298 295 295 296 294 293 294 294 293 293 292 292 292 292 292 294 295 296 296 295 295 295 295 296 298 301 302 303 303 304 305 306 307 310 313 317 326 327
283 290 289 286 284 278 286 277 284 288 290 295 293 293 294 294 294 293 292 292 291 293 294 293 293 293 293 293 294 293 292 292 295 296 296 297 300 300 302 305 306 307 307 307 308 311 312 318 323
286 290 288 287 282 280 281 278 280 287 286 291 292 292 291 292 292 291 292 292 291 291 292 293 293 292 291 291 292 292 291 293 294 295 294 295 296 299 301 303 304 304 306 307 308 309 310 312 316
292 288 286 284 281 277 281 280 277 283 286 288 289 289 290 290 290 291 291 292 291 291 291 292 291 291 291 290 291 290 290 291 292 292 293 294 295 297 299 299 300 301 303 304 307 310 311 311 313
287 285 277 274 275 275 282 279 280 286 289 289 288 288 289 289 289 289 288 288 289 290 290 290 289 288 290 290 290 290 290 290 291 291 291 292 292 293 295 296 297 298 300 301 304 305 307 310 311
284 285 281 273 272 274 282 276 283 289 290 290 290 289 289 288 288 287 287 287 288 289 288 288 288 288 289 289 289 290 290 290 290 290 290 290 290 291 293 294 295 297 298 300 302 304 306 310 312
285 284 287 282 281 277 278 283 287 290 288 289 289 289 288 288 288 287 287 287 287 288 288 286 287 287 288 289 289 289 289 289 288 289 289 289 289 290 291 292 292 294 296 297 299 301 303 306 311
288 289 281 282 275 273 276 277 277 284 285 286 287 287 287 288 287 287 286 287 287 288 287 286 287 286 287 288 289 289 289 289 289 288 287 287 288 289 289 290 291 292 293 294 295 296 298 301 305
285 284 285 284 281 274 273 275 281 285 287 285 286 288 286 286 285 285 285 286 287 287 286 285 286 286 287 287 288 288 288 288 288 288 287 287 288 288 288 289 289 290 290 291 291 292 294 295 299
291 287 286 280 276 279 273 275 289 289 289 289 288 287 286 286 284 283 284 284 285 284 285 285 286 286 286 287 287 286 287 287 286 285 285 285 285 287 287 288 288 288 289 289 289 290 291 293 296

GFSSGP_sfc_thetae_123.txt.gz
Theta_e
318 313 314 311 303 302 296 297 300 302 303 306 306 304 307 309 313 308 329 335 347 351 353 353 350 352 352 352 352 352 354 356 357 356 354 354 354 354 354 354 355 357 358 359 356 356 353 350 349
315 314 311 306 301 297 296 299 300 303 305 306 305 308 308 309 321 326 332 346 347 351 352 354 350 351 351 351 351 352 354 355 356 356 355 354 354 354 354 353 354 356 358 359 356 356 355 351 347
314 309 308 302 298 297 296 300 302 304 305 305 304 308 311 313 321 327 331 348 348 350 352 352 349 349 351 351 351 351 352 352 353 355 356 356 355 355 355 353 354 356 358 358 356 356 356 349 345
311 310 304 301 296 298 299 302 303 304 306 308 304 304 312 317 319 325 344 348 347 349 352 349 347 348 350 350 351 351 350 350 350 351 354 355 356 356 354 353 354 357 358 358 356 355 353 347 345
307 305 300 297 296 298 301 303 304 303 303 305 305 305 307 315 328 342 346 347 346 348 351 352 344 347 350 351 350 350 349 348 349 350 351 353 354 354 353 352 353 355 356 355 355 352 350 347 345
305 303 298 296 295 298 302 304 303 303 304 305 305 306 308 316 323 331 339 346 350 349 350 352 348 347 347 348 348 347 347 347 347 348 349 351 352 351 351 351 351 352 353 352 351 350 348 346 345
303 301 297 295 295 297 300 305 303 302 303 304 307 303 309 312 316 317 321 340 348 351 349 351 353 352 345 343 343 343 345 346 346 347 347 348 348 348 349 350 350 351 350 349 349 348 346 346 344
302 301 295 296 295 297 301 303 303 304 303 308 309 303 304 311 315 317 317 334 344 348 350 349 350 353 354 354 342 341 343 343 344 345 345 344 345 346 347 347 348 349 348 347 347 346 345 345 343
301 298 296 296 295 298 301 301 305 307 304 306 307 308 310 313 313 314 314 315 325 343 349 350 349 350 351 351 350 345 344 343 343 345 343 343 351 351 350 346 344 346 344 344 346 344 343 342 341
300 297 297 298 298 298 301 302 303 304 305 303 305 310 311 311 310 310 310 311 314 316 329 348 348 349 349 347 350 351 351 352 352 351 351 351 350 350 348 346 341 342 341 342 343 343 341 341 349
296 296 297 298 300 302 301 302 303 302 301 304 304 306 308 308 310 310 311 311 312 313 316 332 348 349 348 348 349 348 349 349 349 350 349 348 349 349 347 346 348 350 344 349 347 349 350 350 350
296 298 298 301 302 301 300 302 301 302 303 306 306 306 307 308 309 309 309 311 311 312 314 321 345 348 348 348 349 346 344 344 345 346 347 348 347 346 346 345 344 344 346 347 348 347 349 350 350
298 299 301 302 301 301 301 300 300 301 305 305 306 306 306 307 308 309 310 311 312 310 315 324 339 348 348 347 347 347 345 341 343 344 345 346 345 345 345 344 345 346 344 343 343 345 345 344 346
300 299 299 300 301 300 298 298 299 300 303 302 303 304 305 306 306 308 312 312 315 319 320 323 322 323 342 343 345 340 339 337 338 337 339 343 342 341 342 343 344 344 344 344 344 342 342 342 343
299 296 298 298 298 297 299 294 296 301 302 302 302 303 305 305 308 308 309 309 310 311 312 314 315 315 317 324 326 330 327 328 328 328 328 329 329 329 335 340 339 342 344 342 344 341 342 340 341
295 294 290 295 297 297 298 290 297 301 301 300 301 302 303 304 305 305 305 305 305 306 306 308 307 307 310 314 319 321 322 322 323 322 322 322 322 324 326 327 329 330 334 343 343 339 337 337 338
292 287 288 291 296 296 295 291 298 302 300 299 300 301 301 303 301 301 302 302 302 302 302 301 302 302 305 310 312 314 314 315 316 316 316 318 316 317 320 322 324 322 326 330 336 339 338 337 337
286 287 288 288 294 295 293 293 297 300 298 298 300 301 301 299 297 298 298 299 299 299 299 298 299 299 301 306 309 310 310 310 310 310 311 311 313 313 315 318 318 319 322 325 331 331 336 337 338
290 288 288 291 295 292 292 293 295 297 299 297 299 300 299 297 298 298 298 298 298 298 297 297 296 297 298 300 301 304 305 307 306 306 307 308 309 311 312 312 314 316 317 319 321 323 328 332 334
292 289 290 292 294 293 292 292 295 298 297 295 295 295 295 295 295 295 295 295 296 297 297 296 295 295 296 298 300 301 301 305 304 304 305 305 307 309 309 310 311 311 312 315 317 319 321 330 331
290 289 289 289 292 293 291 289 292 295 297 295 295 295 295 293 292 293 293 292 292 293 294 294 294 294 294 296 299 300 301 301 301 301 302 303 304 305 307 307 307 308 309 308 309 314 318 320 328
288 293 292 290 288 285 291 282 289 291 293 293 293 291 291 291 292 292 292 292 293 293 294 295 293 293 294 295 295 296 293 293 296 298 300 301 302 303 303 304 305 306 307 308 309 311 311 315 318
290 293 291 290 288 287 287 285 286 289 288 288 290 290 291 291 292 291 293 293 293 293 294 292 295 293 293 293 295 293 292 293 295 296 297 298 299 300 300 301 301 302 303 305 306 308 310 312 312
294 292 290 289 287 281 286 286 284 285 288 288 289 290 291 291 292 292 292 292 292 292 291 293 292 292 292 292 293 291 291 291 291 292 292 293 295 296 297 297 298 299 300 301 302 304 306 309 312
293 290 282 280 278 279 285 284 288 288 290 292 290 290 290 291 290 290 289 290 290 290 291 291 290 289 291 292 291 291 291 291 290 289 290 291 291 292 293 294 295 296 297 299 301 302 303 306 308
290 289 282 276 277 280 285 282 287 291 291 292 292 292 291 290 289 288 289 289 289 289 289 290 290 290 290 291 290 291 291 290 290 290 289 290 290 291 292 292 293 294 295 297 298 300 302 305 307
289 287 292 285 283 280 284 286 288 290 288 290 290 291 289 288 288 288 288 288 288 289 288 288 288 288 289 290 290 290 290 290 289 289 289 289 290 290 291 291 291 292 293 294 295 296 298 299 300
292 293 285 286 277 275 281 282 285 285 285 289 289 289 288 289 287 287 288 288 288 288 288 288 288 288 288 289 289 289 289 289 289 288 287 288 288 289 289 290 290 291 291 292 292 293 295 296 298
288 287 287 287 284 279 277 282 289 288 289 288 289 289 288 288 287 286 287 288 288 288 287 287 287 287 287 288 288 287 287 288 288 286 286 287 287 287 287 288 289 289 290 290 290 291 294 294 296
293 290 289 283 280 282 280 283 292 293 293 291 289 289 289 288 286 286 286 287 286 286 286 286 286 286 287 287 287 287 287 287 286 286 286 286 285 286 286 287 288 288 289 289 289 290 291 291 292

GFSSGP_sfc_thetae_129.txt.gz
Theta_e
326 327 325 321 310 310 306 306 311 309 310 314 314 313 312 320 319 317 346 350 352 352 356 354 350 352 353 354 355 355 356 356 356 356 356 356 355 355 355 355 356 357 360 359 355 355 354 353 353
322 323 322 317 307 304 306 310 308 310 312 314 313 313 314 317 329 333 341 350 353 354 357 354 350 351 352 353 354 355 357 357 356 356 356 356 355 355 355 355 355 356 359 358 354 354 353 352 350
321 322 315 312 309 304 306 309 310 312 313 313 311 317 318 318 328 332 347 348 350 351 353 357 351 350 351 352 353 354 356 356 355 355 356 356 355 355 355 355 354 356 358 357 355 355 355 349 348
320 320 316 307 306 308 309 311 311 311 313 314 313 312 321 331 333 340 345 345 347 350 355 351 350 350 350 351 352 352 353 353 353 354 355 356 356 355 354 353 355 358 358 359 358 357 354 348 346
321 317 309 307 307 309 311 312 312 310 311 312 314 312 315 322 331 336 342 343 346 350 355 358 349 350 351 351 351 351 351 351 352 353 354 355 355 355 354 352 353 356 357 358 357 356 353 349 346
314 316 306 305 307 309 311 312 312 310 311 312 312 312 314 322 323 326 330 338 345 350 355 358 350 350 350 350 350 349 349 349 350 352 353 354 354 353 353 352 352 353 354 354 354 352 351 350 347
312 312 307 307 306 307 309 313 311 311 311 311 314 311 315 319 322 324 326 328 335 346 353 359 361 355 348 347 347 346 347 348 348 348 350 352 351 351 352 351 351 352 352 352 352 351 349 349 347
313 312 307 306 306 307 310 311 312 312 311 316 316 311 312 318 322 324 324 324 327 330 338 348 355 359 360 360 345 346 346 346 346 347 347 347 349 349 349 349 350 351 351 349 349 349 348 347 346
315 307 305 305 304 308 310 309 314 316 313 314 315 314 317 319 322 323 322 322 325 326 329 334 341 348 356 358 356 347 346 347 346 346 345 345 350 350 351 349 347 348 347 345 346 345 346 345 344
310 306 306 310 309 307 309 309 310 309 310 310 312 316 317 317 318 318 318 319 321 322 325 327 337 341 348 348 353 358 357 354 354 353 353 354 353 352 349 346 344 346 345 345 344 343 342 343 347
310 305 308 308 308 309 308 307 310 307 305 308 308 311 313 314 315 316 316 318 320 323 326 331 335 345 343 346 347 349 350 353 354 357 356 357 356 354 355 352 351 351 346 350 347 348 348 347 346
304 307 306 306 308 307 306 309 307 307 307 310 310 311 311 311 313 314 316 317 319 322 324 327 329 333 341 345 346 346 346 347 348 351 355 355 354 352 353 352 353 352 350 349 351 350 350 349 350
304 304 306 308 308 307 308 305 306 306 308 310 310 310 310 312 314 316 316 317 318 318 321 321 323 325 330 334 335 349 352 351 352 353 354 353 353 353 354 352 352 352 353 352 349 349 348 346 346
308 307 307 308 306 306 304 304 304 306 309 308 309 309 312 312 313 314 314 315 315 315 316 317 318 321 324 324 324 327 330 334 341 338 334 335 338 347 349 349 349 349 350 349 350 350 349 348 348
306 302 304 305 305 303 305 301 301 308 309 307 308 309 311 311 311 311 312 312 313 313 314 313 314 315 318 323 319 321 321 326 325 328 327 328 328 328 330 336 343 344 346 347 349 348 348 347 347
301 303 298 304 304 304 302 297 305 308 307 306 307 308 310 309 309 310 311 312 312 311 310 311 312 313 315 315 320 317 317 319 320 322 321 322 323 325 325 328 331 335 334 336 341 343 338 341 345
301 296 298 299 304 302 301 298 304 307 305 305 307 309 308 307 308 309 310 311 311 312 311 310 309 309 313 315 315 316 318 315 317 318 317 320 321 322 323 326 330 332 331 333 334 335 336 339 337
296 297 298 297 301 301 299 299 303 305 305 305 308 308 307 306 305 307 308 310 311 311 310 308 308 307 309 312 314 314 312 316 316 314 315 317 318 320 321 323 325 325 325 327 330 333 335 333 333
299 297 296 299 302 299 299 300 302 305 305 306 307 307 306 305 306 307 307 308 308 308 307 307 306 307 306 305 307 310 309 310 311 313 314 315 316 316 316 315 317 317 317 319 322 324 325 326 333
299 296 296 299 301 299 299 298 302 304 305 305 305 305 304 305 306 305 306 307 307 307 307 307 306 306 307 307 307 307 309 311 309 309 312 312 313 311 309 308 309 310 310 312 314 314 315 319 325
297 295 296 296 299 300 298 296 300 303 305 304 304 304 304 303 303 304 304 306 306 305 305 306 306 306 306 307 307 309 309 309 308 308 306 308 309 308 306 306 306 306 308 307 309 310 310 310 316
294 299 297 295 294 290 299 289 297 302 301 302 303 303 303 303 302 303 302 302 302 303 304 303 304 304 304 305 304 304 304 303 306 306 307 306 307 307 305 304 304 303 304 304 305 307 306 307 306
296 298 296 296 294 294 294 291 296 301 299 301 303 303 303 302 301 300 299 300 301 303 303 303 303 303 302 301 301 300 300 301 302 303 304 304 305 304 303 302 302 301 302 302 302 303 303 305 304
300 296 296 296 294 287 292 292 293 297 299 301 303 303 303 300 299 299 299 300 301 301 301 303 302 301 301 301 300 298 297 296 296 295 296 298 300 301 300 300 300 299 299 300 300 301 301 303 304
298 294 288 286 287 286 294 291 294 300 301 301 302 302 303 301 298 298 299 298 298 299 299 299 300 299 299 298 298 297 296 297 296 294 293 292 294 294 295 297 296 296 297 297 298 298 299 301 302
295 294 288 281 283 287 294 288 294 302 303 303 303 304 302 298 298 298 298 298 297 298 297 297 298 297 297 296 295 295 295 294 294 293 293 292 292 292 293 293 294 294 295 296 296 297 298 299 299
295 291 296 290 290 286 289 294 299 301 300 301 301 302 299 297 298 297 297 297 297 296 294 294 295 295 294 294 294 293 293 293 292 293 293 292 292 292 292 293 292 293 294 294 294 295 295 295 296
296 298 289 291 281 280 286 289 292 295 297 299 299 300 297 297 296 297 298 296 296 295 294 293 293 293 293 293 293 293 292 292 292 292 290 291 291 291 291 291 291 292 293 292 293 292 292 292 292
293 292 293 293 290 283 282 289 299 299 300 299 300 301 297 296 297 297 298 296 296 295 294 292 292 292 292 292 292 292 292 292 292 291 290 291 290 290 290 290 291 291 291 292 291 290 290 289 289
296 294 293 288 285 290 289 289 301 301 302 302 301 301 299 298 298 299 297 296 294 293 292 291 291 291 292 292 292 292 292 292 291 290 290 291 290 289 289 290 290 290 289 290 290 289 289 288 287